ECMWFNIL_700_spd_000.txt.gz
Wind_Speed
5 5 4 4 4 5 5 6 7 7 8 7 8 9 9 9 10 10 10 11 12 12 12 13 14 14 15 15 16 16 17 18 18 18 18 18 17 17 17 18 18 19
5 5 4 3 3 5 6 6 6 7 9 9 9 10 10 10 10 10 10 11 12 13 13 14 15 15 16 16 17 18 18 18 19 19 19 19 19 19 19 19 20 20
6 5 4 4 5 6 7 7 7 7 8 9 10 11 11 11 10 10 10 11 12 13 14 15 16 16 17 17 18 18 19 19 19 19 19 19 19 19 19 19 20 20
7 7 6 5 7 8 9 8 8 8 8 9 10 11 12 12 11 11 10 10 11 12 14 15 16 17 17 18 18 19 19 20 20 20 20 19 19 19 18 18 19 19
10 10 8 8 9 11 10 9 9 9 9 9 10 10 11 12 12 12 11 10 11 11 13 14 15 16 17 18 18 19 19 20 20 20 20 20 20 19 19 18 18 18
15 14 12 12 12 12 12 11 11 11 10 11 11 11 12 13 13 13 12 12 12 12 13 14 15 16 16 17 18 18 19 19 19 19 19 19 19 19 19 18 17 17
17 18 16 16 15 15 15 14 14 13 12 13 13 13 14 14 14 14 13 13 13 14 15 15 16 16 17 17 18 18 19 19 19 19 18 18 18 18 18 18 18 18
19 21 21 20 19 19 18 17 17 16 15 15 15 15 16 17 17 16 16 15 15 15 16 17 17 18 18 19 19 19 19 19 18 18 18 18 18 18 19 19 20 20
21 22 24 25 23 23 22 21 20 19 18 18 17 18 19 19 20 20 19 18 18 18 18 18 19 19 20 20 20 20 20 19 19 19 18 18 19 19 20 21 21 21
26 24 25 27 27 26 25 24 23 22 22 21 21 21 22 21 22 22 22 21 21 22 22 21 21 21 22 22 21 21 21 20 20 20 20 20 21 21 22 22 23 23
31 29 26 28 30 31 30 28 27 26 25 25 25 25 25 25 24 23 23 24 25 25 25 26 25 25 24 24 24 24 23 22 23 23 23 23 23 24 24 25 25 25
32 31 28 28 32 33 33 32 31 29 29 29 29 29 29 28 27 26 26 26 27 28 28 30 30 29 28 28 27 27 26 25 26 25 26 26 26 26 27 27 28 28
32 30 28 30 33 34 33 35 35 34 33 33 31 31 31 31 30 29 28 29 30 30 30 32 33 33 33 31 31 30 29 28 28 28 28 28 28 28 29 29 30 30
33 31 30 31 35 37 35 34 35 37 38 37 35 34 33 32 32 32 31 31 31 32 32 33 34 35 35 34 34 33 32 31 30 30 30 30 30 30 31 31 31 31
32 33 33 33 36 38 38 37 37 38 40 40 40 39 36 34 33 34 33 32 33 34 34 34 35 36 36 36 36 36 35 34 33 32 31 31 31 32 32 33 33 33
31 33 35 36 36 38 40 40 42 43 42 42 42 42 41 39 37 36 35 35 35 36 36 36 37 36 36 36 37 37 37 36 35 34 33 33 33 33 33 33 34 34
33 33 35 37 38 39 41 44 46 46 44 43 43 42 42 42 41 39 38 38 39 40 39 39 38 37 37 37 38 37 37 37 36 35 34 34 34 34 34 34 35 36
35 35 35 36 38 40 43 47 48 46 45 46 47 46 46 45 44 43 42 42 43 44 42 41 39 38 38 38 38 37 37 37 37 36 35 35 35 36 36 37 37 38
35 35 35 35 37 39 43 47 46 43 44 47 49 49 49 46 45 45 44 43 45 46 44 41 39 38 38 38 38 37 37 38 37 37 37 36 37 38 38 39 40 41
34 34 35 35 36 39 43 45 44 43 45 48 48 46 45 43 43 43 43 42 44 45 42 39 38 38 38 37 37 37 38 38 38 38 38 38 39 40 40 41 42 43
36 36 36 36 36 38 39 40 41 45 48 48 44 39 36 38 40 41 40 41 41 39 36 36 37 37 37 37 37 38 39 40 40 40 40 40 41 42 42 43 44 45
36 37 38 38 38 38 37 35 37 40 43 42 39 34 34 37 38 38 38 37 34 31 31 33 35 36 37 37 38 40 40 41 42 42 42 42 42 43 44 44 45 46
36 37 37 38 39 39 38 36 36 39 41 40 37 34 35 35 35 36 35 33 29 27 28 31 33 36 37 38 39 41 42 43 43 43 43 43 44 44 45 45 46 47
37 37 37 36 37 37 36 35 37 39 40 38 34 32 32 32 33 32 30 28 26 25 26 29 33 36 37 38 39 40 42 43 44 44 44 44 45 46 46 47 47 48
37 37 36 35 34 34 35 34 33 33 34 33 32 31 29 29 31 30 29 27 25 25 26 29 32 34 36 37 38 39 41 43 43 44 45 45 46 47 48 48 48 48
36 34 33 32 31 31 31 30 29 30 33 34 31 28 27 28 29 29 28 26 25 25 27 29 31 32 34 36 37 39 40 42 44 45 46 46 48 49 49 49 49 48

ECMWFNIL_700_spd_003.txt.gz
Wind_Speed
7 6 5 3 1 1 2 2 3 4 5 6 7 8 9 9 9 8 7 6 6 6 7 7 8 9 10 11 12 13 14 15 15 15 15 15 15 15 15 15 16 16
10 9 7 6 4 2 0 1 0 1 3 4 6 7 8 9 10 10 9 8 8 7 6 7 7 8 9 10 11 12 13 14 15 15 15 16 16 16 17 17 17 17
16 14 11 9 8 7 5 3 3 3 4 4 5 6 7 9 10 10 10 10 10 10 9 8 8 9 10 10 11 12 12 13 14 15 15 15 16 16 16 16 16 16
19 19 16 12 11 11 10 8 7 7 7 7 7 6 6 8 9 10 11 11 12 12 12 11 11 11 11 11 11 12 12 13 14 15 15 16 16 16 16 16 16 16
18 19 18 16 14 14 15 13 11 11 11 12 11 10 9 8 9 10 10 11 12 12 13 13 13 13 13 13 12 12 12 12 13 14 15 16 16 16 16 16 16 16
18 17 18 18 17 16 17 16 16 15 15 15 15 14 12 11 10 10 10 11 11 12 12 13 14 14 14 15 14 14 13 13 13 14 14 15 16 16 16 16 15 15
20 19 18 19 19 19 18 18 19 18 18 18 19 18 16 15 14 13 12 12 11 12 12 13 13 14 14 15 16 15 15 15 14 14 15 15 15 16 16 16 16 16
22 21 19 20 22 22 21 20 21 21 21 21 22 21 20 19 18 16 15 14 13 13 14 14 14 15 15 16 16 16 17 16 16 16 16 16 16 16 16 16 16 17
23 23 23 24 24 24 24 23 23 23 24 24 24 24 23 22 21 20 19 17 16 15 16 16 17 16 17 17 17 18 18 18 18 18 17 17 18 18 18 18 18 18
26 25 25 25 25 26 26 26 26 26 26 27 28 28 27 26 25 24 22 21 20 19 19 19 20 19 19 20 20 21 21 21 20 20 19 19 19 20 21 21 22 22
28 27 26 25 26 26 27 27 29 29 30 30 31 31 31 30 28 27 26 25 23 23 23 23 23 22 22 22 24 24 24 23 23 22 22 21 21 22 23 24 24 25
27 28 28 27 27 28 28 29 29 31 33 33 33 34 34 34 33 31 30 29 27 26 26 26 26 25 25 25 26 27 27 27 26 25 25 24 23 24 24 25 26 27
26 27 27 28 28 29 31 32 32 32 33 35 36 37 38 38 37 36 34 33 31 30 29 29 28 27 27 28 29 29 29 30 29 28 28 28 27 26 26 26 27 28
28 28 29 29 28 29 30 33 35 35 36 37 39 40 42 42 41 40 39 38 36 34 32 31 30 30 30 31 32 32 32 33 33 32 32 32 31 29 28 28 28 29
31 31 32 32 32 31 30 31 34 38 39 40 41 42 43 44 44 44 43 42 40 37 34 33 33 33 34 34 35 36 37 38 37 36 36 36 35 33 31 30 29 30
34 34 34 34 34 33 31 31 33 37 40 42 46 47 45 44 45 45 44 43 42 40 37 37 38 38 39 39 39 40 41 42 42 40 39 39 37 35 33 32 31 31
36 37 36 35 35 34 34 34 35 37 39 43 48 47 44 45 45 44 41 40 39 39 39 40 41 41 43 44 44 44 44 45 44 43 41 40 40 38 36 35 34 32
35 36 37 36 36 36 37 37 37 38 40 43 46 43 40 43 46 45 42 39 39 40 41 42 43 44 45 46 47 48 47 46 46 45 42 42 42 41 39 38 37 35
31 33 34 35 37 38 39 39 39 39 40 42 44 41 39 40 43 45 43 40 40 41 41 41 43 43 43 45 48 50 49 47 46 46 44 43 43 42 42 41 39 38
31 31 31 33 35 37 39 39 39 40 41 42 42 41 40 37 37 40 41 39 39 41 40 38 37 38 39 43 47 49 47 46 47 47 45 44 44 43 43 42 42 40
31 32 33 33 33 35 37 38 39 39 39 39 38 37 36 35 35 37 39 39 39 40 37 33 33 35 38 41 44 45 45 45 46 45 44 44 44 44 43 44 43 43
30 32 34 35 35 35 35 36 37 38 38 37 35 33 32 32 33 36 37 38 36 32 29 30 32 34 36 38 41 43 44 44 45 43 43 44 44 43 43 43 44 44
30 32 34 36 37 37 37 35 35 35 36 36 35 33 31 30 30 34 37 35 30 26 27 30 32 33 35 38 41 42 42 42 42 43 43 43 43 42 42 42 43 44
32 33 34 35 36 37 38 37 35 34 34 35 36 35 32 30 31 36 36 30 25 25 28 30 31 33 36 38 39 40 40 40 41 43 43 42 42 42 41 42 43 43
35 35 35 35 35 35 36 37 36 35 33 33 35 34 32 30 32 34 31 25 23 26 28 30 32 34 35 35 36 38 39 40 41 42 42 42 42 42 42 42 43 43
36 36 37 36 34 33 33 34 35 34 32 32 32 31 30 29 29 28 26 25 26 27 28 30 33 33 33 34 35 35 37 39 40 41 41 42 43 43 43 43 44 44

ECMWFNIL_700_spd_006.txt.gz
Wind_Speed
7 7 7 7 6 4 2 2 2 1 1 2 3 4 5 6 7 7 6 5 4 2 2 2 3 3 3 4 4 4 5 6 7 8 9 10 11 12 13 13 14 14
8 8 8 9 9 8 7 6 5 3 2 1 0 1 3 4 5 6 6 6 5 4 3 3 3 3 4 4 5 5 5 5 6 6 7 8 9 10 11 12 13 14
11 11 11 12 12 12 11 10 8 7 5 4 3 3 3 4 5 5 6 6 6 5 4 4 4 4 5 5 6 6 7 7 7 7 7 8 8 9 9 10 11 12
14 14 14 14 15 15 14 13 12 11 9 8 7 5 5 5 6 6 6 6 6 6 5 5 5 5 5 5 5 6 7 8 8 9 9 10 10 10 10 10 11 11
16 15 14 14 16 17 17 16 15 15 13 13 12 10 8 7 8 8 8 8 6 5 5 5 6 6 6 6 6 6 7 8 9 9 10 11 11 11 12 12 12 12
19 17 16 16 18 19 19 18 18 17 17 17 17 15 13 11 10 10 10 10 8 7 6 6 6 6 6 6 6 7 7 8 8 9 10 11 11 12 12 13 13 13
23 21 20 18 18 18 19 20 21 20 20 20 20 20 19 16 15 14 13 12 11 10 9 9 8 8 7 6 6 7 8 9 9 9 10 11 12 12 13 14 15 15
27 27 25 23 21 20 20 21 21 22 22 22 23 23 23 23 21 19 18 17 15 13 12 12 11 11 11 10 9 9 11 12 12 12 11 12 12 13 14 15 16 17
30 30 29 28 27 26 25 23 22 22 23 24 25 26 26 27 26 24 23 22 20 18 16 15 15 15 14 14 13 13 14 15 15 15 15 15 14 15 15 16 17 17
29 28 27 28 29 28 28 27 25 24 23 24 27 28 29 30 30 29 28 27 26 23 21 19 19 18 18 18 17 17 18 18 18 18 18 18 18 18 19 19 19 19
26 24 23 24 26 28 28 28 27 27 26 26 27 29 30 32 33 33 32 32 30 29 27 25 23 22 22 22 22 22 22 22 22 21 21 21 21 21 22 22 22 22
22 23 22 23 25 27 26 26 27 28 29 29 30 30 31 33 34 36 36 36 34 33 32 30 28 27 26 25 25 26 27 27 27 26 26 26 26 26 26 26 26 26
20 22 24 25 26 27 24 22 24 26 29 32 33 33 33 34 35 37 39 39 38 36 35 33 32 31 30 29 29 29 30 31 31 31 31 32 32 32 33 33 32 31
21 22 25 27 27 26 25 23 24 26 29 33 36 37 37 36 38 39 39 40 40 39 38 37 36 36 35 34 33 33 34 34 35 35 36 37 37 37 37 37 36 35
24 25 28 30 29 29 28 28 28 28 30 32 35 38 40 41 41 41 40 41 42 42 41 39 39 39 39 38 37 37 37 37 37 38 39 39 40 40 39 38 38 37
26 28 30 32 32 32 32 32 32 32 32 33 34 37 41 43 44 44 44 43 43 43 43 42 41 41 39 37 37 38 38 38 38 39 39 40 41 41 40 40 41 40
29 30 31 33 34 34 34 35 35 35 35 35 36 37 39 42 45 47 47 45 43 42 44 44 44 43 39 36 36 36 37 38 38 38 39 41 41 41 41 42 43 42
30 31 32 33 34 34 35 36 36 37 37 37 38 38 38 40 43 47 48 48 45 44 47 47 45 43 39 35 34 36 37 38 38 37 39 40 39 40 43 45 43 42
29 31 32 33 33 33 34 36 37 37 37 38 39 39 39 39 40 42 44 45 43 44 46 45 42 40 36 34 35 39 40 38 37 37 38 38 38 40 44 44 42 41
27 28 30 31 32 33 33 35 36 37 37 38 39 39 39 39 39 39 39 39 38 37 38 39 39 38 37 37 40 42 41 38 36 35 36 37 39 41 42 42 41 40
27 27 28 28 29 30 31 33 35 36 37 38 38 37 38 39 39 38 37 36 34 33 33 34 35 38 39 41 42 41 38 35 34 35 36 38 40 40 40 40 40 39
28 29 29 29 29 29 30 31 32 34 35 37 38 37 37 37 38 37 36 34 32 30 31 32 33 37 40 41 40 38 34 33 35 36 37 38 40 40 39 39 39 39
30 31 31 32 31 32 32 31 31 33 34 36 38 38 37 36 35 34 34 32 29 28 30 32 35 38 39 39 38 36 34 35 37 37 38 38 38 38 38 38 39 39
30 31 32 33 33 34 34 34 33 34 35 36 37 37 37 36 34 33 33 31 29 29 31 34 38 40 40 39 37 36 36 37 37 37 37 36 36 37 38 39 39 40
30 32 33 34 35 35 36 36 35 36 36 37 37 36 36 35 34 32 32 31 31 32 34 36 39 40 39 37 36 36 36 36 35 35 35 35 36 38 39 40 41 42
33 33 34 35 36 36 36 37 37 37 38 38 37 34 33 33 33 31 31 32 33 34 37 39 38 37 36 35 34 34 33 32 32 33 35 36 37 39 41 42 42 42

ECMWFNIL_700_spd_009.txt.gz
Wind_Speed
11 8 6 3 2 2 3 3 3 2 1 1 3 5 6 7 7 7 6 5 3 2 1 1 1 1 2 3 3 4 5 6 6 7 8 9 9 10 11 12 12 13
13 11 8 5 5 5 5 5 6 5 4 2 1 1 3 4 6 7 7 6 5 4 3 2 2 1 1 0 1 1 2 3 4 5 6 6 7 8 9 10 11 12
15 13 11 9 9 9 8 9 9 8 7 6 4 3 2 2 3 4 5 5 5 5 4 3 2 1 1 1 1 1 2 3 4 5 6 6 6 7 7 7 8 9
18 16 14 13 13 13 12 12 11 11 10 9 8 6 5 4 3 2 2 2 3 3 3 3 2 2 2 2 2 2 3 4 4 6 6 7 8 8 8 8 8 8
21 21 19 17 17 16 15 14 14 13 13 13 12 10 8 7 7 6 4 3 2 2 3 3 2 2 3 3 3 4 4 5 5 6 7 8 9 10 10 10 10 11
26 26 23 20 19 18 17 17 16 16 16 16 15 14 12 11 10 10 9 7 5 4 4 5 5 4 4 4 4 5 5 6 6 6 7 8 9 11 12 13 13 13
30 29 26 24 22 20 19 19 18 17 17 18 18 17 16 14 14 13 12 12 11 9 8 7 8 8 7 7 7 8 8 8 8 8 8 8 9 10 11 13 14 14
33 31 29 27 25 23 22 21 21 20 18 18 20 20 19 18 18 18 17 16 16 15 13 12 11 11 11 11 11 12 12 13 13 13 13 12 12 12 12 13 14 15
35 33 31 31 30 29 28 26 24 23 22 20 20 21 22 22 22 22 21 20 20 19 18 17 16 15 16 16 15 15 16 16 17 17 18 18 17 17 16 16 16 16
34 34 34 34 34 33 32 30 27 26 26 24 22 21 22 23 23 24 25 25 24 23 22 21 21 20 20 20 20 20 20 20 20 20 21 22 22 22 22 22 22 21
31 32 35 37 38 37 35 32 30 30 30 29 26 25 26 27 26 25 27 28 28 27 26 24 23 23 23 23 24 24 24 25 24 23 24 25 25 26 26 27 27 27
34 33 32 33 36 35 32 29 29 30 30 30 30 29 30 32 32 29 29 30 29 29 29 27 26 25 26 26 27 26 27 28 28 28 28 28 28 28 28 28 29 30
38 34 27 24 24 23 22 21 22 24 25 28 32 32 31 33 36 35 32 30 29 30 32 31 30 29 29 30 30 29 29 30 31 31 31 31 30 30 30 29 30 32
31 27 23 20 18 17 18 18 18 18 21 25 30 32 31 32 36 39 36 31 30 32 34 35 34 33 33 34 33 32 32 32 33 33 33 33 32 31 31 31 31 32
29 27 26 26 25 25 27 26 23 21 23 26 28 30 31 31 34 38 38 33 31 35 37 38 38 39 38 37 35 34 35 35 36 36 35 35 34 33 32 31 32 33
25 25 25 25 26 26 28 29 28 26 26 28 30 30 30 30 31 34 36 33 33 38 40 40 41 43 42 40 37 36 38 38 37 37 37 36 36 35 34 33 33 35
23 23 23 23 24 24 25 26 27 28 29 31 33 34 32 31 31 32 32 32 35 39 40 40 43 44 44 43 41 40 41 40 39 39 39 38 38 37 36 35 37 38
25 25 25 26 26 26 28 29 30 31 33 34 36 37 36 35 33 32 32 32 34 35 36 39 43 45 45 46 45 43 43 43 42 42 42 40 38 36 36 38 40 41
26 27 27 28 28 29 30 31 32 33 34 35 35 36 38 38 37 36 35 35 36 34 34 39 41 39 39 41 41 41 42 42 42 42 40 38 36 36 37 39 40 40
26 27 28 28 29 29 31 31 32 33 33 33 34 35 37 37 37 37 37 37 38 36 37 41 40 34 31 33 35 37 38 38 39 40 38 36 37 39 40 39 38 38
26 27 27 27 27 28 29 29 30 31 31 31 31 33 34 35 35 35 35 35 35 35 37 41 39 32 31 33 34 35 36 36 38 38 37 37 39 40 39 38 37 37
27 27 27 27 27 27 27 27 28 29 29 29 29 30 31 32 32 33 33 33 33 33 36 39 35 30 31 34 35 36 37 37 37 37 37 38 39 38 37 37 37 38
28 27 27 27 27 27 27 28 28 29 30 30 30 30 31 31 32 31 30 30 32 33 36 37 33 30 32 35 36 38 38 37 36 36 36 38 38 38 38 38 38 40
29 28 27 26 25 25 26 27 28 29 30 30 31 32 32 31 32 31 29 28 30 33 36 35 31 29 33 36 36 37 37 35 34 35 36 38 40 41 40 40 40 41
31 29 28 27 26 26 27 27 28 29 29 30 31 32 32 32 32 32 29 28 31 35 35 33 30 30 34 36 36 36 35 34 34 35 37 39 41 41 41 40 41 41
34 33 32 31 31 31 31 31 31 30 31 31 32 32 32 32 31 30 29 30 33 34 33 31 30 32 35 36 36 35 35 35 35 36 37 38 39 38 38 40 40 39

ECMWFNIL_700_spd_012.txt.gz
Wind_Speed
13 11 10 8 6 4 2 1 1 1 2 2 3 5 6 6 7 7 8 7 7 7 6 5 5 4 4 4 4 4 4 4 4 4 4 3 4 4 4 5 5 6
14 13 11 10 7 6 5 3 2 2 1 1 1 2 3 4 6 6 7 8 8 8 7 7 7 6 6 5 5 5 5 5 4 4 4 4 4 4 4 4 3 4
16 14 13 11 10 8 7 7 6 5 5 4 3 2 1 1 3 4 5 6 6 7 7 7 7 7 7 7 7 7 7 7 7 6 6 6 6 5 5 5 5 5
17 16 14 14 13 12 11 10 10 9 8 8 6 5 4 3 2 2 3 4 4 5 5 6 6 6 7 7 7 8 8 9 9 9 9 9 9 9 8 8 8 8
18 18 18 18 18 17 15 14 13 12 11 11 11 9 8 7 6 5 4 4 3 4 4 3 4 4 5 6 7 7 8 9 9 10 11 11 12 12 12 12 12 12
21 20 20 21 21 20 19 17 15 15 14 14 14 13 12 10 10 9 8 6 6 5 5 5 5 5 5 5 6 7 8 9 9 10 11 11 12 12 12 12 12 12
24 23 23 23 24 23 22 20 18 18 18 17 16 16 16 14 12 12 12 11 10 8 7 7 7 7 7 8 8 8 9 9 10 10 11 11 12 12 12 12 12 11
26 25 25 26 26 25 24 23 21 20 19 20 19 18 19 18 16 15 14 14 14 12 11 10 10 10 10 11 11 11 12 12 12 12 12 12 12 13 13 13 14 14
29 27 27 27 27 27 27 26 24 22 22 23 23 21 20 20 19 17 16 16 16 16 15 14 14 14 13 14 14 15 15 16 16 16 16 16 15 16 15 14 15 17
31 30 29 28 28 29 29 28 27 27 26 27 27 25 24 23 22 20 19 18 17 17 17 17 17 17 16 16 17 18 18 19 19 20 20 19 19 19 19 18 17 18
27 26 25 25 25 27 28 28 29 30 31 31 31 30 29 27 25 24 22 22 21 21 21 20 20 20 19 18 18 19 20 20 21 21 21 22 22 22 22 21 21 21
28 28 24 21 20 21 22 24 27 29 31 31 31 34 36 32 28 26 27 27 26 25 25 24 24 24 22 20 20 20 20 20 21 22 23 24 24 24 24 24 23 23
34 35 30 24 23 23 24 27 31 34 36 35 32 33 35 34 32 31 30 29 28 27 27 27 28 28 26 24 21 20 21 22 23 24 25 26 26 27 27 26 25 24
31 33 32 31 32 33 34 36 39 41 43 40 34 27 23 24 28 29 29 27 26 27 28 29 30 31 32 31 26 23 22 24 26 27 27 28 29 30 30 29 27 26
24 27 29 31 34 36 38 38 38 38 37 35 33 28 23 23 25 25 22 22 24 25 27 31 32 31 32 33 32 29 27 27 28 29 30 31 32 32 33 33 31 30
18 22 25 27 30 32 33 32 32 31 29 27 27 26 25 26 28 28 26 25 25 26 28 31 31 31 31 33 34 33 32 32 32 32 33 35 36 35 36 35 34 34
18 19 21 23 25 26 26 26 26 26 25 23 22 21 20 22 25 28 29 28 28 29 30 31 31 30 29 29 31 33 35 35 34 34 35 36 37 37 37 37 36 36
20 20 21 22 23 24 25 25 26 25 24 23 23 23 24 24 26 28 30 31 32 33 33 33 33 30 27 25 28 32 35 35 35 36 35 35 36 36 37 37 36 36
21 22 22 23 24 24 25 26 26 26 26 26 27 27 28 30 30 31 32 33 35 35 33 33 33 31 28 28 29 32 33 33 35 37 36 35 35 34 34 34 35 36
20 21 22 22 22 23 24 25 26 27 27 28 29 29 30 31 32 31 31 32 35 35 35 34 33 31 29 29 30 31 31 32 35 37 37 37 36 34 33 33 34 35
20 21 21 21 22 22 23 24 25 27 28 29 29 29 29 29 30 30 29 29 31 32 34 35 33 30 28 28 29 29 29 31 34 36 37 37 35 34 34 34 33 34
22 21 21 22 23 23 24 25 26 26 27 27 28 28 28 27 28 28 28 27 28 30 32 33 31 29 27 28 29 29 28 30 33 35 35 35 34 34 35 35 34 33
23 23 23 24 24 25 26 26 26 26 26 26 26 26 26 26 26 27 28 28 28 30 33 33 30 28 27 27 28 28 29 31 32 32 32 33 33 34 35 35 35 33
25 25 25 26 26 27 27 27 27 26 25 24 24 24 24 24 24 25 26 27 27 30 32 32 30 28 28 29 29 28 29 30 31 30 31 31 33 34 34 34 35 35
27 27 27 28 28 28 27 26 26 25 24 24 25 25 25 25 25 25 26 27 28 29 30 30 29 29 30 30 30 29 30 31 31 31 31 31 32 33 33 35 38 37
28 30 30 30 30 29 29 28 27 27 27 27 28 28 29 28 28 28 28 30 31 30 29 29 29 29 29 30 29 29 30 31 32 31 31 31 33 34 34 36 38 38

ECMWFNIL_700_spd_015.txt.gz
Wind_Speed
12 12 11 9 5 3 1 2 3 6 8 9 10 11 11 12 12 12 12 11 11 11 11 11 11 10 10 10 10 9 8 8 7 7 6 6 5 5 4 3 2 1
12 12 12 10 7 4 3 4 4 6 7 7 8 9 9 11 11 12 12 12 12 12 12 12 12 12 12 12 11 11 11 11 10 10 10 9 9 8 7 6 6 5
12 12 12 12 9 7 6 6 6 6 6 5 6 6 6 7 8 9 10 10 10 10 11 11 11 11 11 11 11 11 12 12 12 12 12 12 11 10 10 9 8 7
14 14 13 13 12 10 9 8 8 8 7 5 3 3 3 3 4 5 6 7 8 8 8 8 9 9 9 9 10 10 10 10 11 11 11 11 11 11 11 10 10 10
17 16 15 15 14 13 11 10 10 10 9 7 5 3 3 2 1 1 1 2 3 4 4 5 5 6 6 6 7 7 7 8 8 8 8 9 10 10 10 10 11 11
21 19 17 18 16 15 14 12 11 11 11 10 8 7 6 6 5 4 3 2 1 1 0 1 1 2 3 4 4 5 5 5 5 6 7 7 8 8 9 10 10 11
27 25 22 21 19 16 15 15 14 13 13 13 11 10 9 8 8 8 7 7 6 6 5 5 4 3 3 3 3 4 5 6 6 6 6 7 7 8 8 9 10 11
27 25 23 20 18 17 17 18 18 17 16 16 15 13 11 10 10 10 10 11 10 10 10 9 8 7 7 6 6 7 7 9 10 10 9 9 10 10 10 11 11 11
27 26 23 18 17 19 19 20 20 20 20 18 17 15 13 13 12 12 13 13 14 14 14 13 12 11 10 10 10 10 11 11 12 14 14 13 13 13 12 13 14 15
27 26 25 22 21 20 18 19 21 21 21 19 18 18 18 17 17 18 18 18 18 18 18 16 14 13 12 11 12 13 14 15 16 17 18 16 16 15 14 14 16 17
23 24 26 26 25 21 16 18 22 23 23 22 20 20 20 19 20 22 24 26 25 24 23 21 18 16 15 15 15 15 15 17 17 19 20 18 17 17 17 17 17 18
21 23 25 26 25 21 18 21 24 26 26 25 22 20 20 20 23 26 30 33 32 30 28 26 23 22 21 19 18 17 17 17 16 17 19 19 18 18 19 20 20 20
18 19 21 21 21 21 22 24 25 27 28 28 27 24 22 23 27 30 32 32 31 30 29 29 28 27 25 22 19 18 18 18 16 16 17 17 18 19 20 21 22 22
13 14 16 18 20 22 23 23 23 25 28 29 28 26 23 25 28 29 28 25 24 23 22 24 27 26 23 20 19 19 19 20 20 19 20 20 21 21 22 23 24 25
8 9 10 13 16 19 21 22 23 25 26 27 27 26 25 26 27 26 25 23 22 21 19 18 21 21 20 18 18 19 21 22 22 22 23 24 24 24 25 26 27 27
7 7 7 9 12 14 16 18 20 21 21 22 23 24 24 24 24 23 22 21 20 20 20 20 20 21 21 20 19 20 22 23 23 24 24 25 26 26 26 27 28 30
9 8 8 9 11 12 13 15 16 17 18 19 20 21 22 22 21 20 19 17 16 17 19 20 22 23 24 23 22 22 23 25 26 27 27 27 28 27 26 28 31 32
12 12 12 13 13 14 14 15 16 16 17 18 20 21 21 22 22 21 20 19 19 19 20 22 23 25 25 26 25 24 25 27 29 30 30 30 29 28 28 30 33 34
15 15 16 16 16 16 17 17 18 19 19 20 21 22 22 23 23 24 23 23 24 24 25 26 27 27 26 26 25 25 26 28 29 30 31 32 30 30 31 32 35 36
17 18 18 18 17 17 18 18 19 19 20 21 22 23 23 23 24 24 25 26 28 28 28 28 28 27 26 26 25 26 27 28 28 28 29 31 31 32 32 33 36 37
20 20 19 18 17 17 17 18 18 19 20 21 22 23 24 24 24 24 24 25 27 27 27 26 25 24 25 25 25 26 26 25 25 25 26 29 31 32 32 33 36 37
21 21 19 18 16 16 16 17 17 18 19 20 21 22 23 24 24 24 24 25 26 27 26 25 24 24 24 25 25 26 25 24 24 24 26 28 30 31 32 34 37 37
23 22 20 18 17 16 16 16 17 18 19 20 21 23 23 23 24 25 25 26 27 28 28 26 24 24 25 26 27 27 26 25 24 25 26 28 30 31 33 36 37 38
24 23 21 20 18 17 17 17 17 18 19 21 23 23 23 23 24 24 25 26 26 27 27 25 23 22 23 24 26 26 26 25 25 25 27 29 30 32 33 35 36 37
25 24 23 22 20 19 18 18 18 18 20 22 23 24 25 24 25 25 26 26 26 26 25 25 23 22 22 22 23 24 25 25 24 26 27 29 31 33 35 36 37 38
25 25 25 25 23 22 21 20 19 20 21 23 24 25 26 26 27 29 29 29 28 28 28 27 26 24 24 24 24 25 25 25 24 26 28 29 31 34 36 37 37 37

ECMWFNIL_700_spd_018.txt.gz
Wind_Speed
17 15 10 6 5 4 3 2 3 4 4 5 5 7 9 11 12 12 12 12 12 11 11 11 11 11 11 11 11 11 11 11 11 10 9 8 7 6 5 4 3 2
19 16 11 8 8 8 6 5 5 5 5 5 5 6 8 10 12 13 14 14 14 14 14 14 15 15 15 14 14 15 14 14 14 13 12 12 11 10 9 8 8 7
21 18 14 11 10 11 9 7 7 6 6 5 4 5 6 8 10 11 12 13 14 14 14 15 15 15 15 15 15 14 14 14 14 13 13 13 12 12 11 11 10 9
24 21 18 16 16 14 12 10 8 7 7 5 4 3 4 4 6 7 9 9 11 11 12 13 13 13 13 12 12 12 12 12 11 11 11 11 11 11 10 10 9 9
26 23 21 21 21 18 15 12 10 8 7 7 6 4 3 2 2 3 4 4 5 6 8 9 9 10 9 9 9 8 8 8 8 8 8 8 8 8 8 7 7 7
28 26 24 25 25 22 18 15 13 12 10 8 7 6 5 4 3 2 2 2 1 1 2 3 4 5 5 5 6 5 5 5 4 4 4 4 4 4 4 5 5 6
31 28 26 26 27 25 21 19 17 15 13 11 10 8 6 6 6 6 5 5 5 5 5 5 4 4 4 3 3 3 3 3 2 2 1 1 1 1 2 4 5 7
32 29 26 25 25 23 23 22 21 19 17 14 11 9 7 6 6 6 6 6 7 7 8 9 10 10 10 10 9 9 8 7 7 6 6 6 6 6 6 6 7 8
31 28 26 26 25 22 22 24 23 21 18 15 13 11 9 7 7 7 7 7 7 7 8 10 12 13 14 14 14 14 13 12 12 11 10 10 10 10 10 9 9 9
30 28 26 26 25 22 22 26 27 24 21 18 16 13 12 11 11 11 10 9 8 9 10 12 14 15 17 17 17 16 16 16 15 15 14 14 13 12 12 12 11 11
27 26 24 25 25 22 24 28 26 23 22 22 20 18 16 16 15 15 14 12 11 12 14 16 18 19 19 19 19 18 17 16 17 17 17 16 14 14 13 13 13 13
24 23 23 24 24 25 26 25 20 18 22 25 24 23 20 19 21 21 20 18 17 16 17 18 18 19 20 19 20 21 20 20 19 19 18 17 16 15 14 13 13 14
19 19 20 21 23 25 25 22 18 20 24 25 25 24 21 21 25 26 25 24 22 20 19 18 17 17 18 20 23 24 24 22 20 19 19 19 18 16 15 15 16 17
13 15 18 19 21 23 23 22 21 23 23 24 25 23 20 22 24 25 25 24 22 20 19 18 17 16 17 19 22 25 26 24 22 21 20 20 20 19 19 19 20 21
10 13 16 19 21 22 22 22 21 22 22 23 24 21 19 21 23 23 23 23 21 20 19 18 18 18 17 15 15 20 25 26 25 24 23 22 22 23 22 22 22 23
8 10 13 14 15 16 18 18 18 19 20 21 22 21 20 21 21 21 22 22 22 22 22 20 19 17 16 14 13 16 21 25 26 24 23 23 24 25 24 23 23 24
8 10 10 10 10 10 12 13 15 16 17 18 19 19 19 20 19 20 20 22 22 22 21 20 18 17 17 17 17 18 20 22 24 24 24 25 26 27 27 26 25 25
10 11 10 10 10 10 10 11 12 13 14 14 15 16 17 17 17 18 19 20 21 20 20 20 20 19 19 19 20 21 22 23 25 25 26 27 28 28 28 28 28 28
12 12 12 11 11 12 12 12 12 12 12 13 14 15 16 16 17 18 19 19 20 20 21 22 22 22 23 23 23 24 26 28 28 28 29 29 29 29 28 28 28 29
14 13 13 13 13 13 14 14 14 14 15 15 16 16 17 18 18 20 20 21 22 22 23 23 24 24 25 26 26 27 28 29 29 29 30 30 29 29 28 27 27 29
15 15 14 14 14 14 15 16 16 16 16 17 18 19 20 20 21 22 22 22 23 23 24 24 24 25 25 26 26 27 27 28 28 28 29 28 28 27 25 25 27 30
17 17 16 15 15 15 15 15 15 15 16 16 17 19 20 21 22 23 23 23 23 23 23 22 22 23 24 24 24 25 25 26 27 27 28 28 28 26 25 25 28 30
20 19 18 18 17 16 16 16 16 16 16 16 17 18 19 20 21 22 23 24 24 24 23 22 22 23 24 24 24 24 24 24 25 25 26 27 27 26 25 27 29 31
23 22 21 20 20 19 18 18 18 18 17 18 18 19 19 21 22 23 24 25 25 25 25 24 24 24 25 24 23 23 23 23 22 23 24 25 26 25 25 26 29 31
25 24 23 23 22 21 21 20 20 19 19 19 20 21 21 22 23 24 25 26 27 27 26 26 25 26 26 25 24 23 23 23 22 23 24 24 25 24 24 26 29 31
25 25 25 24 23 23 24 24 23 22 22 22 22 22 23 24 25 26 27 27 28 28 27 27 26 27 27 27 26 26 25 25 24 24 25 25 25 25 26 27 30 32

ECMWFNIL_700_spd_021.txt.gz
Wind_Speed
24 21 18 14 11 9 8 5 2 1 1 4 5 6 5 5 5 5 5 5 5 6 6 6 6 6 6 6 6 6 5 5 5 5 4 4 4 3 3 3 2 2
28 24 19 14 11 10 10 7 5 4 4 5 7 8 8 7 7 7 7 7 7 7 8 8 9 9 10 10 10 10 10 10 10 9 9 8 8 8 7 7 7 6
28 24 19 15 12 12 12 10 8 7 6 6 7 9 10 10 10 9 9 10 10 10 11 11 11 11 12 12 11 11 11 11 11 11 11 11 10 10 10 9 9 9
25 22 21 18 15 16 16 13 12 9 8 8 7 8 9 10 10 10 10 11 11 11 11 11 11 10 10 10 9 9 9 9 9 9 9 9 9 9 9 8 8 8
26 23 22 21 19 19 18 16 14 11 10 9 8 7 7 8 9 9 9 9 9 9 8 7 7 6 6 6 5 5 6 6 6 6 6 6 6 5 5 5 4 5
28 25 24 23 21 21 20 18 17 14 11 10 9 8 7 7 7 7 8 7 7 6 5 4 3 2 2 1 1 1 0 1 1 2 2 2 2 1 1 1 1 2
27 28 26 26 24 23 24 22 20 16 13 12 11 10 8 7 7 6 6 5 4 4 3 1 1 1 2 3 4 4 5 6 5 5 4 4 4 4 4 4 5 5
25 29 29 27 25 25 26 23 19 17 17 16 13 11 9 8 7 7 6 6 5 4 3 3 2 3 4 5 6 7 8 9 10 10 10 10 10 9 9 9 9 8
21 28 29 29 27 25 26 25 20 19 20 19 16 15 13 11 10 8 7 7 6 6 5 4 3 4 6 7 8 9 10 11 12 12 13 13 13 13 13 13 12 11
18 23 26 29 28 26 27 27 24 22 21 20 20 18 17 16 14 12 11 10 10 9 8 7 6 7 8 10 11 12 12 13 13 13 13 14 14 15 15 15 14 13
16 19 23 27 28 28 28 28 25 25 23 22 21 21 20 19 17 15 15 14 14 13 12 9 9 11 12 13 14 14 15 15 15 16 15 15 16 16 16 16 16 15
15 18 23 26 29 29 29 28 26 27 27 25 24 24 24 22 19 18 18 16 16 16 14 12 11 12 14 16 17 18 18 19 19 19 19 19 18 18 18 18 17 17
15 18 22 26 29 31 30 28 28 28 29 27 26 26 28 27 25 23 22 21 20 19 18 17 16 15 15 15 18 20 21 22 24 23 23 22 20 19 19 19 19 18
16 18 22 25 28 28 28 26 27 29 28 26 26 26 26 27 28 28 28 27 26 26 25 23 22 21 18 15 15 17 19 21 24 26 25 23 22 21 21 21 21 21
17 18 21 23 24 25 25 25 27 29 27 25 28 27 24 25 28 27 26 25 26 28 28 24 19 18 19 18 17 18 18 18 20 25 26 24 22 22 21 21 22 23
16 16 17 18 19 22 23 24 26 28 25 25 29 28 24 25 25 24 22 23 24 25 24 21 16 15 18 20 20 20 20 19 18 21 25 25 24 23 22 23 23 24
13 14 14 15 17 19 20 21 23 24 23 24 27 28 26 24 21 21 22 22 23 22 20 17 16 17 19 19 19 19 20 20 20 20 23 25 26 25 25 26 26 27
14 14 14 14 16 16 17 18 19 19 20 21 23 25 24 18 15 18 20 20 20 19 17 16 16 18 19 18 18 19 20 21 21 21 22 23 24 25 26 27 28 29
15 15 15 15 15 15 16 16 16 16 18 19 20 21 18 14 13 16 18 18 18 17 16 17 17 18 19 20 21 22 23 23 24 23 24 24 25 26 27 28 30 31
16 16 15 15 15 15 16 16 16 16 17 18 18 17 16 15 15 16 17 17 18 18 18 18 18 19 20 21 23 24 25 26 26 26 27 27 27 28 28 29 30 30
19 18 17 17 16 16 16 17 17 17 18 18 17 17 17 16 16 16 17 18 18 19 18 18 18 19 20 21 22 24 25 25 26 26 27 27 27 28 29 29 29 29
22 21 20 19 19 19 19 19 19 19 19 19 18 18 18 18 18 18 18 18 19 19 18 17 18 19 20 21 22 23 24 25 25 26 27 27 27 28 28 29 29 29
24 23 22 21 21 21 21 21 21 21 21 21 21 21 21 21 20 20 20 20 20 19 19 18 19 19 20 20 21 22 23 24 24 25 25 26 26 26 26 27 27 28
24 24 24 23 23 23 23 22 22 22 22 23 24 24 24 24 24 24 23 23 22 22 21 21 20 21 21 21 22 22 23 24 24 24 25 25 24 24 24 25 25 26
24 25 25 25 24 25 24 23 23 23 23 24 24 24 24 25 25 25 26 26 26 25 25 25 25 25 25 25 25 25 25 26 26 26 27 27 26 26 26 26 26 26
27 27 27 26 26 26 26 25 25 25 24 24 24 25 25 26 26 27 27 27 27 27 27 27 27 28 28 29 29 29 29 29 29 29 29 29 29 29 29 29 29 29

ECMWFNIL_700_spd_024.txt.gz
Wind_Speed
28 27 26 30 30 23 15 10 9 9 7 6 4 2 2 2 2 3 4 4 3 3 3 3 3 3 3 4 4 4 4 4 4 4 3 3 2 1 1 1 1 1
23 25 28 33 30 21 14 10 8 8 6 4 3 1 1 2 3 4 5 6 6 6 5 4 4 3 2 2 1 0 0 0 1 1 1 2 2 3 4 4 4 4
19 20 22 26 24 18 14 11 9 8 6 5 4 3 3 4 5 6 7 9 10 10 10 10 9 9 8 8 7 6 5 5 5 5 5 5 6 6 7 7 7 7
18 17 15 16 18 18 16 14 13 11 9 7 6 5 6 7 8 9 10 11 12 13 13 13 12 12 11 10 9 8 8 7 7 6 6 6 6 6 6 6 6 6
16 17 14 14 17 18 17 16 16 14 12 10 8 8 8 9 10 11 11 12 13 13 13 12 12 11 10 9 8 8 7 7 6 6 5 5 4 4 4 3 3 3
16 16 14 17 20 20 17 16 17 16 14 12 11 10 10 10 10 11 11 11 11 11 11 10 10 10 9 8 6 6 6 5 4 3 3 3 3 4 4 4 4 4
14 15 15 19 22 21 19 18 17 17 16 15 14 12 12 12 11 11 11 10 10 9 8 8 7 7 6 5 4 4 4 4 3 2 1 1 2 3 5 6 7 7
12 11 14 19 22 22 20 19 17 18 19 18 16 15 14 14 13 13 12 11 10 9 8 7 7 7 6 4 3 3 4 4 4 4 4 4 4 5 6 6 7 8
11 9 11 16 20 22 21 19 17 20 23 21 18 16 16 15 15 14 13 12 12 11 11 10 9 8 7 6 5 5 5 6 7 8 8 8 8 8 8 8 8 9
9 9 11 15 18 20 22 19 17 21 24 23 19 17 18 18 16 16 16 15 14 14 14 13 13 12 11 9 9 8 8 9 10 10 11 12 12 12 11 11 10 11
8 9 11 15 18 20 21 21 19 21 25 26 22 19 20 19 17 17 19 18 17 17 17 17 16 16 15 13 12 11 11 11 12 13 14 14 15 15 15 14 14 14
11 11 11 15 18 21 22 23 22 22 25 27 26 22 21 21 20 20 21 19 19 19 19 19 19 17 16 14 13 13 13 14 14 15 16 17 18 18 18 18 17 18
14 14 14 15 18 21 24 25 24 25 27 29 29 26 23 24 24 24 23 22 22 22 22 21 20 19 17 15 14 14 15 17 18 19 19 20 21 22 22 22 21 21
16 17 17 17 17 20 25 27 28 28 29 30 31 28 26 27 28 27 27 26 26 25 24 24 23 22 21 19 18 19 20 20 20 20 20 19 21 23 25 25 25 24
16 17 18 19 18 19 24 27 29 30 30 31 31 29 29 30 31 31 31 31 31 29 29 29 28 27 26 25 24 25 26 25 21 19 18 19 20 23 25 27 28 27
16 17 18 20 20 20 22 26 29 31 32 32 33 33 32 32 33 34 33 33 34 33 35 36 33 30 29 26 25 25 23 22 21 19 19 20 20 21 23 25 26 27
16 16 17 19 21 21 22 25 28 30 33 34 35 35 35 33 34 35 33 33 34 34 36 34 28 24 23 20 20 21 20 20 21 20 19 20 20 19 20 22 23 24
18 17 17 18 20 21 23 24 26 28 31 32 33 35 36 33 32 32 29 30 32 30 28 25 19 17 18 16 17 20 21 21 20 18 18 18 19 20 20 21 22 22
20 19 18 19 21 22 23 24 25 25 27 27 29 32 30 22 20 23 22 23 25 24 22 20 18 17 18 17 19 21 21 19 18 17 18 19 19 21 21 22 23 23
21 20 20 21 22 23 24 25 25 25 26 25 26 28 24 16 15 19 19 18 20 20 19 19 18 18 19 19 20 20 19 19 19 19 20 21 22 22 22 23 24 25
22 22 23 24 24 24 25 25 25 25 26 26 25 25 22 17 16 18 18 18 18 18 18 18 18 19 20 21 21 20 20 20 21 21 22 23 23 24 24 25 26 27
24 25 26 26 26 26 25 25 24 25 25 25 25 23 20 18 17 17 19 19 18 18 18 18 19 20 21 21 21 21 22 22 23 23 24 24 25 25 26 27 28 29
27 28 28 28 27 26 25 25 24 24 24 24 23 22 21 20 19 18 19 20 20 20 19 19 20 20 20 21 22 22 23 24 25 25 26 26 27 27 28 28 28 29
29 30 29 27 26 26 25 24 23 23 23 23 23 22 22 21 20 20 20 21 21 21 21 20 20 20 20 21 22 22 23 24 24 25 26 27 27 28 28 28 28 28
29 29 28 26 25 25 25 24 24 23 23 23 23 23 23 23 22 22 22 22 22 22 22 21 21 21 21 21 21 22 23 23 24 25 26 26 27 27 28 28 28 29
27 28 30 29 27 27 27 27 26 26 26 26 26 26 26 25 26 26 25 25 24 23 22 22 22 22 22 21 22 22 23 23 24 25 27 27 28 28 28 29 29 29

ECMWFNIL_700_spd_030.txt.gz
Wind_Speed
15 15 16 18 20 20 20 21 22 24 26 24 15 10 8 9 7 3 2 2 3 4 4 5 5 5 5 6 7 8 8 9 10 10 11 11 11 11 11 11 10 9
15 16 17 19 20 19 18 19 21 23 22 14 6 4 6 6 4 2 3 3 4 4 5 5 6 6 7 8 9 9 10 11 11 11 11 11 11 11 10 10 9 9
16 17 19 20 20 19 18 18 18 16 11 4 2 4 5 4 2 3 4 5 5 6 6 7 8 9 10 11 11 12 12 13 13 13 13 13 12 12 11 11 10 10
18 19 19 19 19 18 16 16 14 10 5 1 1 3 3 3 2 3 4 6 7 8 9 10 11 12 12 13 13 13 14 14 14 14 14 14 14 13 13 12 11 10
20 19 19 18 16 16 14 13 11 8 5 2 1 1 2 2 2 3 4 6 8 9 11 12 13 13 13 13 13 13 14 14 14 14 14 14 13 12 12 11 10 9
18 18 16 15 14 14 14 11 10 9 7 5 5 3 2 3 3 4 6 7 8 9 11 12 13 13 13 13 13 13 13 14 13 13 13 13 12 11 10 9 7 7
15 14 13 13 14 15 14 10 10 11 9 7 7 5 5 5 5 6 7 7 8 9 9 10 11 12 12 12 12 12 12 12 12 12 11 11 10 9 8 6 6 5
11 11 11 13 15 15 13 10 12 13 10 8 8 7 7 6 7 7 8 8 8 8 9 9 10 10 10 10 10 10 10 9 9 8 8 7 7 6 5 5 5 5
7 8 9 11 13 12 11 10 13 14 12 11 11 11 10 9 9 9 9 10 10 10 10 10 11 11 11 10 10 9 9 9 8 7 6 6 6 6 6 7 7 7
5 7 7 8 9 9 9 11 14 15 15 14 14 14 14 13 11 11 11 11 11 11 12 12 13 13 12 12 11 11 11 11 10 10 9 9 9 9 10 10 10 11
6 7 7 7 7 7 8 11 15 16 16 17 16 16 17 16 15 14 13 13 12 13 13 13 14 14 14 14 13 13 13 13 13 13 13 12 12 12 12 13 13 13
8 8 9 9 9 9 9 11 15 17 18 19 18 18 18 19 18 17 16 15 15 15 15 15 15 15 16 16 16 16 16 16 16 15 15 15 15 15 15 14 14 14
11 11 11 12 12 11 11 11 14 17 19 20 20 20 20 20 21 21 19 18 17 17 18 17 18 18 18 19 19 19 19 19 19 18 18 18 18 17 16 14 14 14
13 13 13 13 13 13 13 13 14 17 20 21 21 21 21 22 23 23 23 21 20 19 20 20 20 20 20 21 22 22 22 22 22 21 21 21 20 19 17 16 16 16
15 14 14 14 14 14 14 14 15 18 21 22 23 23 23 23 24 25 26 25 24 23 22 23 23 23 24 24 24 24 24 24 25 25 24 23 22 21 21 20 20 20
15 15 15 15 15 16 16 15 16 18 21 23 25 26 26 26 26 26 27 28 28 27 27 27 27 27 27 27 26 27 27 27 27 28 28 26 25 25 26 26 26 24
15 16 16 16 17 18 18 18 17 18 21 24 26 28 29 29 29 29 29 30 30 30 30 30 31 30 30 29 29 30 31 31 31 32 32 31 29 28 29 29 29 28
16 16 17 18 19 20 21 21 20 19 20 23 26 29 31 31 31 32 32 32 33 32 32 32 32 32 31 31 31 33 34 34 35 35 34 34 34 34 34 34 33 30
16 17 17 18 19 21 22 23 22 21 21 22 25 28 31 33 34 35 34 33 34 34 33 32 33 33 32 32 33 35 36 37 39 39 38 36 34 32 30 30 29 27
18 18 18 19 19 21 22 24 25 24 23 24 25 27 30 33 35 36 36 35 35 35 35 34 34 34 34 35 36 38 38 38 38 40 40 36 28 23 20 21 21 22
21 21 21 21 20 21 22 24 26 27 27 26 25 26 29 31 32 31 32 32 32 33 34 34 33 33 32 32 32 32 32 31 29 28 29 26 21 18 18 18 19 19
22 22 23 23 22 22 23 24 26 28 29 29 28 29 30 31 28 26 26 27 28 28 28 27 27 27 26 25 23 22 22 22 20 18 19 18 18 18 18 18 18 18
23 24 24 24 25 25 25 25 26 29 31 31 31 30 31 31 28 26 26 26 27 26 25 24 24 24 23 21 19 18 18 19 18 17 17 17 17 18 18 18 19 19
27 28 28 28 28 28 28 28 28 29 31 33 32 31 30 30 28 27 27 27 27 27 26 24 23 23 22 21 19 18 18 17 17 17 17 17 17 18 19 19 19 19
29 29 29 30 31 31 31 31 30 30 31 34 35 33 30 28 27 26 25 25 26 26 24 24 23 22 21 20 19 19 18 18 17 17 18 18 18 19 19 19 19 20
31 31 31 31 31 32 33 33 33 32 31 32 34 34 32 29 27 25 23 23 24 24 24 24 23 23 21 20 20 19 18 18 18 18 19 19 19 20 20 20 20 20

ECMWFNIL_700_spd_033.txt.gz
Wind_Speed
12 12 12 12 13 15 16 17 18 18 18 19 17 11 6 3 3 4 5 6 5 4 4 4 5 6 6 6 6 7 7 8 7 7 7 8 9 9 9 10 9 8
14 14 14 14 15 16 17 18 18 17 17 16 10 4 1 1 0 2 3 4 4 3 4 4 5 6 7 7 7 7 8 9 9 9 9 9 9 9 10 10 9 8
15 15 15 15 17 17 18 19 18 16 15 12 6 2 1 1 0 2 3 3 3 4 4 5 6 7 7 8 9 9 9 10 10 10 10 10 10 10 10 10 9 9
16 16 16 16 18 18 18 19 17 15 13 10 6 3 1 0 0 2 3 4 5 5 6 7 7 8 9 10 10 11 11 12 12 12 12 12 12 11 11 11 10 9
17 17 17 17 18 19 19 18 15 13 11 8 7 4 1 1 1 2 4 5 6 7 7 8 9 9 10 11 11 12 12 12 13 13 13 13 13 12 12 11 10 9
18 17 17 18 18 19 19 17 14 12 10 9 8 4 2 2 2 4 5 6 7 7 8 8 9 9 9 10 10 11 11 11 12 12 12 12 12 11 11 10 9 8
19 19 19 19 18 17 16 15 14 12 10 10 9 5 4 3 4 5 6 7 8 8 9 8 8 7 7 8 8 8 8 9 9 10 10 10 10 9 9 8 7 6
20 20 19 17 15 15 15 14 14 13 10 11 10 7 6 5 6 7 8 9 9 10 9 8 7 7 6 6 6 7 6 6 6 7 6 7 6 6 6 5 4 3
19 18 15 13 13 14 14 13 13 12 11 12 10 8 8 7 7 8 9 10 11 11 10 9 8 7 6 6 6 6 6 5 5 4 4 4 4 4 4 4 3 3
15 12 10 10 11 12 11 10 10 10 11 13 12 10 10 9 8 9 10 11 12 12 11 10 9 9 8 8 7 7 6 6 5 5 5 5 6 6 6 6 6 6
9 7 6 7 7 8 8 9 9 10 11 14 14 12 12 12 11 10 11 12 12 12 12 12 11 11 11 10 10 9 9 9 8 8 8 8 9 9 9 9 9 9
6 5 6 6 6 7 8 8 9 10 12 14 15 15 14 14 14 13 12 12 12 13 13 13 13 12 12 12 12 12 12 11 11 11 11 12 12 13 13 13 13 13
6 7 9 9 9 9 9 9 10 11 13 15 16 17 16 16 16 16 16 15 14 14 14 14 14 14 14 14 14 15 15 15 15 15 15 16 16 16 17 17 17 17
8 10 11 12 12 11 10 9 9 11 13 15 17 18 18 18 18 18 18 18 18 18 17 18 18 17 17 17 17 17 17 18 18 18 19 19 19 20 21 21 21 21
12 11 13 13 12 11 11 9 8 10 12 15 18 19 20 20 20 20 20 21 21 21 21 21 20 20 20 19 19 19 19 19 21 21 21 22 22 23 24 25 25 25
12 12 14 13 12 12 10 9 9 11 12 15 18 20 22 23 23 22 22 22 23 23 24 24 23 23 23 21 20 21 20 21 22 23 23 25 25 26 27 27 28 29
13 13 14 14 14 14 13 12 12 13 13 15 17 20 23 24 24 24 24 25 24 24 26 27 27 28 27 24 24 24 23 24 25 25 27 27 28 29 30 31 31 31
15 15 15 16 16 16 15 15 16 16 16 16 17 19 21 23 25 26 27 27 26 26 27 29 30 30 29 28 28 28 28 28 28 29 30 30 30 32 32 34 35 33
17 16 16 16 17 17 17 18 18 19 20 20 20 20 19 21 24 26 28 29 28 28 30 32 33 31 29 29 31 30 30 30 30 31 33 32 33 35 35 37 38 34
18 18 18 18 18 19 19 19 20 22 22 23 23 22 20 19 22 25 28 31 32 32 34 35 36 34 30 30 30 29 29 30 30 33 35 36 37 38 37 37 37 34
20 20 20 20 21 21 21 22 23 24 24 25 25 24 23 22 23 25 27 31 33 35 36 37 38 37 35 33 33 31 31 31 32 34 37 38 38 37 34 32 31 30
21 21 21 21 22 22 23 24 25 26 26 26 26 26 26 26 26 25 27 30 31 32 33 35 36 36 34 34 34 33 31 30 31 33 34 34 31 28 24 20 19 19
20 20 20 21 21 21 23 23 24 25 27 27 26 26 27 27 27 27 28 29 30 30 30 30 31 31 29 29 29 28 27 27 28 29 28 25 23 21 18 15 14 14
21 22 23 23 23 24 25 25 25 26 27 28 29 29 30 30 30 30 29 28 30 31 29 30 31 29 27 26 26 25 24 25 25 24 22 20 19 18 17 15 14 14
26 26 27 28 28 29 30 30 29 29 30 31 31 32 32 33 33 32 30 30 31 31 30 31 32 30 27 27 26 25 25 25 23 21 20 19 18 18 18 16 15 15
31 32 32 32 32 32 33 33 33 32 33 33 33 33 33 34 35 35 34 33 33 32 31 31 30 28 28 27 27 26 26 25 24 22 21 19 18 19 19 18 18 17

ECMWFNIL_700_spd_036.txt.gz
Wind_Speed
17 16 15 13 13 13 13 14 14 14 16 15 15 12 8 4 1 3 4 3 2 2 3 3 4 5 5 4 4 5 6 7 7 6 6 7 8 10 11 11 10 9
18 17 17 15 14 14 14 14 14 15 16 15 13 10 5 2 0 3 3 2 3 3 3 4 4 5 5 6 6 7 7 7 7 7 7 8 8 9 11 10 10 9
20 18 18 17 16 15 14 14 14 15 15 14 12 8 4 2 0 2 3 2 3 3 4 4 5 5 5 6 7 7 7 7 7 7 7 8 8 9 10 9 9 9
21 20 19 18 16 14 13 13 14 14 14 12 10 7 5 3 1 2 3 3 3 3 4 4 5 5 5 6 6 7 7 7 7 7 7 8 8 9 9 8 8 8
21 21 19 17 15 13 13 13 14 13 12 11 10 7 6 5 3 3 3 3 4 4 4 5 5 6 6 6 6 6 6 7 7 7 8 8 9 9 9 9 9 9
20 20 18 16 14 13 14 14 14 12 11 10 10 8 7 6 4 4 4 4 5 5 5 5 5 6 6 6 6 6 7 7 8 8 8 9 9 10 10 10 10 10
19 18 17 15 14 15 15 15 13 11 10 10 10 9 8 7 5 5 5 5 6 6 6 6 6 6 6 6 7 7 7 7 7 7 8 8 9 10 10 10 10 10
18 17 16 16 15 15 15 14 12 11 11 11 10 9 9 7 6 6 6 6 6 7 7 6 6 6 6 7 7 8 7 7 7 7 8 8 8 8 8 8 8 7
18 17 17 16 14 14 15 12 11 11 12 12 10 9 8 7 7 7 7 8 7 7 7 6 6 6 6 6 7 7 7 6 6 6 5 5 5 5 5 4 4 3
18 17 16 15 13 13 12 10 9 10 10 10 9 8 7 6 7 8 8 8 7 7 6 6 6 6 5 5 5 5 4 4 4 3 2 2 1 1 1 1 1 2
18 16 14 13 11 10 8 6 6 6 6 6 6 7 7 6 6 7 8 8 8 8 7 7 6 6 5 5 5 4 4 4 4 4 4 4 5 4 5 5 5 6
19 18 16 13 10 8 5 4 4 5 5 4 5 6 8 7 7 7 8 8 9 9 9 9 8 8 8 8 7 7 7 7 6 7 8 8 9 9 10 10 10 10
17 16 14 10 7 6 5 6 6 6 6 5 5 6 8 9 9 9 9 9 10 10 10 10 10 11 11 10 10 10 10 10 10 10 11 12 13 13 14 14 14 15
11 10 7 6 6 6 7 8 7 8 8 8 7 6 8 10 11 11 11 11 11 11 11 12 12 12 12 13 13 13 13 13 13 13 14 15 16 17 18 18 18 19
8 7 5 5 6 7 8 8 8 9 10 10 9 8 8 10 12 12 12 13 13 14 14 14 14 14 14 15 15 16 16 16 16 16 17 18 18 19 21 21 21 22
8 7 7 7 8 8 8 8 8 7 7 8 9 10 9 10 12 14 14 14 15 15 16 17 17 18 17 17 18 18 18 18 18 19 20 20 21 22 22 23 24 25
8 8 8 9 9 9 9 9 9 8 7 7 9 10 10 10 12 13 15 15 16 17 17 18 20 21 20 19 20 21 22 22 22 23 23 24 25 25 26 27 27 26
9 9 10 10 10 10 11 11 11 10 10 10 9 9 10 11 12 14 16 17 17 18 19 21 23 23 21 21 22 24 26 26 27 27 27 27 28 29 30 30 26 24
11 10 10 10 10 11 12 13 12 13 13 14 12 11 12 13 14 15 17 19 19 20 21 24 26 25 23 23 23 24 26 28 28 29 29 30 31 33 33 30 27 26
13 12 11 10 11 13 14 15 15 15 16 16 14 12 12 14 14 14 16 18 19 20 21 25 27 26 24 23 24 26 27 28 29 29 30 31 32 33 33 32 30 30
14 14 13 12 13 14 15 17 17 17 18 18 17 16 16 17 17 17 17 18 19 20 21 25 28 27 25 25 26 28 30 30 31 31 33 34 36 36 34 33 32 32
15 15 15 15 15 15 16 19 20 20 20 21 21 20 19 20 20 20 20 20 21 21 23 25 28 28 27 25 25 27 29 30 31 32 34 36 39 39 36 33 31 29
15 16 17 18 17 17 19 22 22 21 21 21 21 21 21 22 22 23 23 23 24 24 25 26 28 29 29 26 23 23 24 26 28 30 32 34 36 37 36 32 28 24
17 18 19 20 19 20 22 23 22 22 22 23 24 25 25 26 26 27 28 28 29 29 29 30 31 31 29 25 23 23 24 25 27 28 29 31 33 33 32 29 24 21
21 21 21 22 22 22 24 25 25 25 26 27 29 30 30 29 29 30 31 32 32 33 32 33 33 32 29 26 26 27 27 27 28 29 29 31 30 29 28 27 24 23
23 23 24 25 25 26 28 30 31 32 32 32 33 33 33 33 33 33 34 34 34 34 34 33 34 33 32 32 32 31 30 29 29 30 30 31 30 28 27 26 25 24

ECMWFNIL_700_spd_039.txt.gz
Wind_Speed
18 18 17 15 13 10 8 7 6 6 7 9 9 9 8 7 5 2 3 5 5 5 5 5 5 6 6 5 4 5 6 6 5 5 4 5 5 5 6 8 8 7
20 19 18 17 15 12 10 8 7 6 7 8 8 7 5 4 3 1 3 5 5 5 5 4 4 5 5 6 6 6 6 5 4 4 3 3 3 4 5 6 6 6
21 20 20 19 17 14 11 8 7 6 7 7 6 6 4 2 2 0 3 4 4 4 5 5 5 4 5 6 6 5 5 5 5 5 5 4 4 4 4 4 5 7
21 22 22 21 19 16 11 8 8 7 6 5 4 4 2 1 1 2 3 3 4 5 5 5 5 4 4 5 5 5 5 5 5 6 5 5 4 4 4 4 5 7
23 24 24 23 20 16 11 8 8 7 6 4 4 3 2 2 2 3 3 4 4 5 6 6 5 5 4 5 5 5 6 6 6 6 6 6 6 7 7 7 7 8
27 26 26 24 20 15 10 8 7 7 5 5 4 2 1 2 3 4 4 4 5 6 7 7 7 6 5 5 6 6 7 7 7 7 7 8 8 9 9 9 9 10
31 29 26 22 17 13 10 8 7 6 5 5 5 3 1 3 4 4 4 5 6 7 9 9 8 8 7 7 7 7 7 7 7 8 8 9 9 11 12 12 12 12
33 30 25 19 15 12 9 7 6 5 4 5 5 3 2 4 5 5 5 6 7 9 9 10 10 9 9 9 8 8 8 9 9 9 10 11 11 13 13 14 13 12
32 27 22 17 14 10 7 6 5 4 4 4 4 2 3 4 5 6 6 7 9 9 10 10 10 10 9 9 9 9 9 9 10 11 11 11 11 12 11 11 11 10
27 24 22 17 12 8 6 6 6 5 4 3 3 3 5 5 6 7 8 9 10 10 10 10 10 9 9 9 10 10 9 9 9 10 9 9 9 8 7 7 6 6
25 22 19 15 10 8 7 6 6 5 3 3 4 5 7 7 7 8 9 9 10 10 10 10 9 9 8 8 9 9 9 8 8 8 7 6 6 5 4 3 2 2
23 18 14 13 11 9 8 7 7 5 5 4 5 7 8 8 8 10 10 11 11 11 11 10 10 9 9 9 9 9 9 8 7 7 6 5 4 4 4 4 3 4
18 14 12 12 12 10 9 10 8 6 5 5 6 7 9 9 9 10 11 12 12 12 12 11 11 11 11 10 10 10 10 9 8 7 7 6 6 6 7 8 8 8
14 14 12 14 14 13 12 11 9 6 5 5 5 6 8 9 9 10 10 11 11 12 13 13 13 13 12 12 12 12 12 11 10 10 9 9 10 11 12 13 13 11
10 13 14 16 17 15 13 11 9 8 6 6 6 6 6 7 8 9 10 10 11 11 12 13 14 14 14 14 14 14 14 13 13 13 13 13 14 16 17 16 14 13
8 11 14 16 17 16 14 11 10 9 7 6 5 6 6 6 7 8 9 9 10 11 11 12 14 15 15 16 16 16 16 16 16 16 16 17 19 20 19 17 16 16
9 11 14 15 14 15 16 15 14 12 8 5 4 4 5 5 6 6 7 9 11 12 13 14 14 14 15 16 17 17 17 18 18 18 19 21 22 22 20 19 19 19
8 8 10 13 13 14 16 16 14 11 7 5 4 3 3 4 5 6 6 8 10 13 15 16 16 15 15 16 17 18 18 19 20 21 21 23 24 23 21 21 21 21
9 6 6 7 8 8 8 7 6 6 6 5 5 4 5 5 6 7 8 9 10 12 15 17 18 17 15 15 16 17 18 20 21 22 23 24 25 24 23 22 22 22
11 9 8 7 7 6 6 6 6 7 8 7 6 7 7 8 9 9 10 11 11 12 14 16 18 18 16 16 17 18 18 20 22 23 25 26 26 26 25 24 24 24
14 14 14 12 12 11 11 12 11 10 10 9 9 9 9 11 12 12 13 13 13 14 15 16 17 17 16 17 18 19 20 21 23 25 27 28 28 28 28 28 28 28
14 14 13 13 13 13 13 13 12 11 11 10 10 11 12 13 13 14 15 15 15 16 17 17 17 17 16 16 16 18 20 21 23 25 27 29 29 29 30 30 30 29
14 14 14 13 13 14 13 13 12 12 12 11 11 13 14 14 15 16 17 17 17 17 19 20 21 20 20 20 19 20 21 22 23 24 26 29 30 31 32 32 31 30
15 16 16 15 16 16 16 16 15 16 16 16 15 16 17 19 20 20 21 21 22 22 23 25 25 25 24 23 23 24 24 25 25 26 27 28 30 32 33 33 32 31
18 18 19 19 19 20 20 20 20 19 19 20 21 21 22 23 25 25 25 25 26 26 27 28 28 27 27 27 26 26 27 27 27 28 29 29 30 33 35 34 33 33
22 23 24 23 23 23 24 25 25 25 25 25 25 27 28 29 30 31 31 30 30 30 31 31 31 31 31 30 29 27 27 28 28 29 30 32 34 36 36 35 35 35

ECMWFNIL_700_spd_042.txt.gz
Wind_Speed
19 17 16 15 13 11 8 6 4 4 5 7 8 7 6 4 2 1 3 5 7 8 7 6 6 5 6 6 6 6 6 6 6 6 6 7 8 8 7 8 8 7
21 19 18 17 15 13 11 8 5 4 5 6 7 5 4 3 2 1 3 4 5 6 6 6 6 6 6 6 5 5 5 5 6 6 5 6 6 7 7 7 8 8
21 19 18 17 16 14 12 9 6 5 5 6 6 4 2 1 1 0 2 3 4 5 5 6 6 7 6 5 5 5 5 5 5 6 7 7 7 7 7 7 8 8
23 20 19 17 16 15 13 10 7 5 6 6 6 3 1 2 1 1 2 3 4 5 6 7 7 7 7 6 5 5 5 4 5 6 8 9 9 9 8 8 8 8
24 22 20 18 17 16 14 10 7 6 6 7 6 3 2 3 2 1 2 3 3 4 5 7 7 8 7 7 6 5 5 4 5 6 7 9 9 9 9 8 8 8
27 24 21 19 18 18 16 11 8 7 8 8 6 4 2 3 3 2 2 3 4 4 6 7 7 8 8 7 7 6 5 5 5 5 5 7 8 8 8 7 7 7
27 23 21 20 19 19 16 11 9 8 9 8 6 4 3 3 3 3 3 4 5 6 7 7 8 8 8 9 8 7 7 7 7 6 6 6 7 7 8 7 7 6
22 21 23 23 22 20 15 10 9 9 8 7 5 4 4 5 5 5 5 5 7 8 8 9 9 9 10 10 10 10 10 10 10 9 8 8 8 8 9 9 9 8
23 24 25 24 24 22 15 10 9 9 8 7 6 5 6 7 7 6 6 7 9 11 11 11 11 11 11 12 12 12 12 12 12 12 11 10 10 9 9 10 11 10
25 27 26 25 27 25 16 11 10 9 8 8 7 7 8 8 8 7 7 9 11 12 12 12 12 12 12 13 13 14 14 14 13 14 14 12 11 11 10 10 11 10
27 28 28 29 30 25 18 13 11 8 8 9 8 9 9 8 8 7 8 11 13 13 13 13 13 13 13 13 14 15 14 14 14 14 14 13 12 12 11 10 10 10
27 26 28 30 28 23 19 14 10 9 9 9 9 10 10 9 8 8 10 11 13 14 13 13 13 14 14 13 14 15 14 14 13 14 13 13 13 12 11 11 10 9
21 19 22 24 24 22 18 13 10 11 11 9 9 10 11 10 9 9 10 11 13 13 13 13 13 13 14 13 13 14 14 13 13 13 13 12 12 12 12 11 10 9
15 14 17 20 22 21 17 15 14 14 11 9 10 11 12 12 11 10 10 11 12 13 13 13 13 13 13 13 12 12 12 13 13 13 13 13 13 12 11 11 10 10
12 13 14 17 20 20 20 19 17 15 13 12 11 12 13 13 13 12 11 12 12 13 13 13 13 13 13 13 12 12 12 12 13 13 13 13 13 12 12 12 11 11
11 12 15 18 20 21 22 21 19 17 15 13 13 12 13 13 13 13 13 13 14 14 14 14 14 14 14 14 14 14 14 14 14 15 15 15 15 15 15 15 14 14
12 14 17 20 22 23 22 20 20 18 15 13 13 13 14 13 13 13 14 14 15 15 15 15 16 16 16 16 16 16 17 17 17 18 19 18 18 18 18 18 18 18
12 14 15 17 21 22 20 18 17 16 15 13 12 13 14 14 13 14 14 15 15 16 16 16 17 17 17 17 18 18 18 19 19 20 21 21 21 21 21 22 22 21
11 13 14 15 17 18 17 16 16 15 14 13 12 13 14 15 14 14 15 15 16 17 17 17 17 18 18 18 18 19 20 21 21 23 24 24 24 25 25 25 25 25
10 11 13 14 15 16 17 17 16 16 16 16 15 15 15 15 15 15 15 16 17 17 17 17 17 18 19 19 19 20 21 22 24 25 26 27 27 27 28 27 27 27
12 11 12 13 14 15 15 15 15 16 18 19 19 19 18 17 16 16 16 16 16 16 16 16 16 17 18 19 20 21 23 24 26 27 28 28 29 29 30 29 28 28
14 14 14 14 14 14 15 15 15 16 18 19 19 18 17 18 18 17 17 17 17 17 17 16 16 17 17 18 19 21 23 24 25 26 27 27 27 29 30 28 27 28
16 16 16 16 16 16 17 17 18 18 19 19 19 17 17 18 18 18 18 19 19 19 18 18 18 17 17 18 19 20 21 22 23 25 25 26 26 28 30 30 28 28
15 15 14 15 15 16 16 17 18 18 18 19 20 20 21 21 21 21 20 20 21 21 21 21 20 19 19 20 20 21 22 23 24 26 27 28 30 31 31 32 32 31
15 14 14 15 15 16 17 18 19 19 20 21 22 23 23 24 24 24 24 24 24 24 24 24 25 24 24 24 24 24 25 26 28 30 30 31 32 33 32 33 34 33
16 17 17 18 19 19 20 21 22 23 23 24 25 26 26 26 27 27 27 27 27 27 27 28 29 29 28 28 28 29 30 31 32 33 34 34 35 35 35 35 36 35

ECMWFNIL_700_spd_045.txt.gz
Wind_Speed
21 18 16 13 11 10 8 5 5 5 5 6 8 10 10 8 8 7 5 3 3 6 9 8 8 8 8 9 9 8 8 7 7 8 10 12 13 13 12 12 12 11
21 19 17 15 13 11 8 6 6 7 8 8 9 11 10 8 7 6 3 1 1 4 6 7 7 8 8 8 8 7 7 6 6 6 8 10 11 11 12 12 11 11
21 19 18 16 14 12 9 7 7 8 8 8 9 10 10 8 7 6 4 2 2 3 5 7 7 7 7 6 6 6 6 6 6 6 7 8 9 10 10 10 10 11
22 21 19 17 15 13 10 9 9 8 8 8 8 10 10 8 7 6 4 3 3 4 5 6 7 7 6 6 6 6 6 7 7 6 6 6 8 8 8 8 9 10
24 22 20 18 15 13 11 10 10 9 9 9 9 10 9 8 7 6 4 3 3 4 4 6 7 7 7 7 7 7 7 7 8 7 7 7 8 9 9 9 10 9
24 22 21 19 15 13 13 12 12 11 10 9 10 10 10 9 8 7 5 4 3 4 6 7 7 7 7 8 8 8 9 9 9 8 8 8 9 9 10 11 11 10
25 24 22 20 17 16 15 14 13 13 11 10 11 11 10 9 9 8 6 5 5 6 7 8 8 8 8 9 9 9 10 10 10 9 9 9 10 10 10 11 11 11
28 28 26 24 22 20 18 17 15 13 12 11 11 11 10 10 9 8 7 6 6 7 8 9 10 10 10 10 10 10 11 11 11 11 10 10 10 10 10 10 10 11
29 30 30 29 27 24 21 19 17 15 14 13 12 11 10 10 9 8 7 7 8 8 9 10 10 11 10 10 11 11 11 12 12 12 12 11 11 10 10 10 10 10
30 31 31 30 28 27 25 22 19 18 16 14 12 12 11 11 10 8 7 8 9 10 10 11 10 11 11 11 11 11 12 12 13 13 13 12 11 10 10 10 10 10
31 31 30 29 28 28 27 25 23 21 17 14 13 13 13 11 9 8 8 9 10 11 12 11 11 11 11 11 11 12 12 12 13 13 14 13 12 11 10 9 9 9
31 31 31 30 29 30 31 30 27 23 19 16 14 14 14 11 9 8 9 10 12 13 12 12 12 12 12 12 12 12 12 12 13 13 13 13 12 11 10 9 8 7
31 31 31 30 30 32 33 31 28 24 20 17 15 15 14 12 9 9 10 11 12 13 13 12 13 12 12 13 13 13 13 12 12 12 12 12 12 11 10 9 8 6
23 24 25 26 29 32 31 29 26 22 19 17 15 15 15 13 11 11 12 13 13 13 13 13 13 12 12 13 13 13 13 13 12 12 11 11 11 11 10 9 8 7
16 16 16 16 19 23 25 23 21 20 18 17 15 16 17 15 13 13 13 14 14 14 14 14 14 14 14 14 14 13 13 13 13 12 12 11 11 11 10 9 9 8
14 11 10 10 11 15 18 17 19 20 19 18 16 17 18 17 15 15 14 15 16 15 15 15 15 15 15 15 15 14 14 14 14 13 13 13 13 12 12 11 11 12
12 11 11 12 13 16 19 20 21 23 21 19 17 18 18 17 16 16 15 15 16 16 17 17 17 17 17 17 17 16 16 15 15 15 15 15 15 14 14 15 15 16
12 14 14 15 16 18 20 23 24 23 20 19 18 18 18 18 18 18 18 18 17 17 17 18 18 18 18 18 18 18 18 18 18 18 18 18 18 17 18 18 19 19
9 11 13 15 17 18 21 25 24 21 19 19 19 19 19 18 19 19 20 21 20 20 19 19 19 19 19 20 20 20 20 21 21 21 21 21 21 21 22 22 22 22
6 8 9 12 15 18 21 23 22 20 20 20 19 20 20 19 19 20 20 21 22 22 22 22 21 21 21 21 21 21 22 23 24 24 24 24 25 25 26 26 26 26
6 7 8 9 13 17 20 20 20 20 21 21 19 19 20 19 18 19 19 20 21 22 22 23 23 23 23 23 24 24 25 25 26 27 27 27 27 28 28 28 28 29
7 8 9 10 12 15 17 19 19 20 21 22 21 19 20 20 19 19 19 19 20 21 21 22 22 23 23 24 25 26 28 29 29 30 30 30 30 30 31 30 30 31
9 9 10 11 13 14 16 17 17 17 18 20 20 19 20 21 21 21 21 21 21 22 23 23 23 23 23 24 25 26 28 29 31 32 32 32 32 32 32 32 32 31
12 12 12 13 14 16 17 17 17 17 18 18 19 19 20 22 22 23 24 25 26 26 26 25 24 25 25 26 26 27 27 28 30 31 31 32 32 32 32 33 33 31
16 16 17 17 17 18 19 19 19 19 20 20 21 22 23 24 25 27 28 29 29 29 29 28 27 27 28 29 28 29 29 30 30 30 31 31 31 31 33 35 34 31
18 18 19 20 20 21 21 21 21 21 22 23 24 25 26 27 28 29 30 31 31 31 31 31 31 31 31 32 32 32 32 33 33 33 33 33 33 34 36 38 38 35

ECMWFNIL_700_spd_048.txt.gz
Wind_Speed
24 22 20 18 16 14 11 8 6 4 2 3 4 7 9 10 9 8 6 5 5 7 7 8 8 8 7 7 8 9 9 9 9 10 10 12 13 12 13 13 13 12
24 22 21 19 17 14 11 8 6 4 3 4 5 7 9 10 10 8 6 4 3 4 5 6 7 8 8 8 9 9 9 8 8 9 9 11 12 12 13 13 13 13
24 23 21 20 17 13 10 8 6 5 5 5 6 7 9 11 11 9 7 5 4 5 6 7 8 8 9 9 9 9 8 8 8 8 9 10 11 12 13 13 13 13
24 22 21 19 16 13 10 9 9 8 7 6 7 8 9 11 12 10 8 6 5 5 6 8 8 8 8 8 8 8 8 8 8 8 8 9 10 12 13 14 13 13
24 22 20 18 16 14 12 12 12 10 9 8 8 9 9 11 13 11 9 7 5 5 5 7 7 7 7 8 8 8 8 9 8 8 8 8 9 11 13 14 13 13
24 23 21 19 17 15 14 14 14 12 10 10 10 10 10 12 12 11 9 8 6 5 5 6 7 7 7 8 8 8 9 9 9 8 8 8 11 12 12 13 13 13
25 24 22 20 18 17 16 17 16 14 13 12 11 12 12 12 12 11 10 8 6 5 5 6 7 7 7 8 8 9 9 9 9 9 8 9 12 13 13 13 13 13
27 25 23 21 20 18 18 19 18 17 15 14 13 13 14 13 12 12 11 9 7 5 5 7 8 8 8 9 9 9 9 9 9 9 9 11 12 14 14 13 13 13
27 25 23 23 21 20 20 20 20 19 17 16 15 15 15 14 13 13 12 10 8 6 6 8 9 10 9 10 10 11 11 10 10 11 11 12 13 14 14 13 12 12
27 26 25 25 24 22 22 23 23 23 22 20 18 18 17 15 14 14 13 12 10 8 7 9 11 11 10 10 11 12 12 12 12 12 12 13 14 14 14 14 13 12
29 27 26 27 26 26 26 27 28 27 26 24 22 21 19 16 15 15 15 14 11 9 8 9 11 11 11 11 12 12 12 12 12 12 12 13 13 14 15 15 15 14
29 27 27 27 28 29 30 31 30 30 29 27 25 24 20 17 16 16 15 15 12 9 8 9 10 11 10 10 11 11 11 11 11 11 11 12 13 14 15 17 17 17
26 27 27 27 28 30 32 33 33 31 30 28 28 26 21 18 17 16 15 14 11 9 9 10 11 11 10 11 11 11 10 10 10 10 11 11 13 13 14 15 16 16
27 27 27 28 30 32 33 33 34 34 32 31 30 27 22 19 18 16 15 13 11 10 11 11 12 11 11 11 11 11 11 11 11 11 11 11 12 13 13 13 13 13
26 29 29 30 31 31 30 32 35 35 34 33 32 27 21 19 18 16 14 13 11 11 12 13 13 12 12 12 11 11 12 12 12 12 12 11 11 12 12 12 12 11
18 23 24 24 23 22 22 26 29 28 27 28 27 23 18 17 17 15 14 12 12 13 14 14 14 13 13 13 13 13 13 13 13 13 12 12 11 11 10 10 10 9
11 15 15 16 16 14 14 18 20 20 21 23 22 19 16 16 17 16 14 14 14 15 16 16 16 15 15 15 15 15 15 15 14 14 14 13 13 12 11 11 11 10
8 11 13 13 14 12 11 13 16 17 17 18 19 17 16 16 17 16 15 14 15 16 17 17 17 17 17 16 16 16 17 16 16 16 16 16 15 14 14 14 14 14
6 8 10 11 11 12 11 12 15 16 16 17 17 15 16 16 17 18 18 16 16 16 17 18 19 19 18 18 18 19 19 19 19 19 19 19 18 18 18 18 18 18
4 7 8 8 9 11 11 13 15 16 17 17 15 14 15 16 16 18 19 19 18 18 18 19 20 20 20 20 21 21 21 22 22 22 22 22 22 22 22 22 22 22
4 6 7 8 9 11 13 15 16 17 17 16 14 13 15 16 16 17 18 19 20 20 21 21 21 21 21 21 22 22 23 23 24 24 25 25 25 25 25 26 26 26
5 5 7 7 9 11 14 15 16 16 17 16 15 15 17 18 18 18 18 19 20 21 21 22 22 23 23 23 23 24 25 26 26 27 28 28 28 28 28 29 29 30
5 5 6 7 8 10 12 13 14 15 16 17 17 19 21 20 19 20 20 20 20 20 20 21 22 22 23 24 25 26 27 28 29 30 30 30 30 30 31 32 32 33
7 7 7 7 8 9 11 13 14 16 17 18 18 21 21 19 19 22 23 23 22 21 20 21 22 22 23 24 25 26 28 29 30 31 31 32 32 33 33 35 36 37
9 9 9 9 9 10 12 13 15 16 18 19 19 20 21 19 20 23 24 25 25 23 23 23 24 25 26 26 27 28 29 30 31 32 32 33 33 34 34 36 39 39
9 10 11 12 13 13 14 15 16 16 17 18 19 20 21 20 21 22 24 25 26 26 26 26 27 28 29 30 31 31 32 33 34 35 35 35 35 35 35 36 39 38

ECMWFNIL_700_spd_051.txt.gz
Wind_Speed
23 23 22 20 19 19 17 15 12 9 7 5 3 0 2 5 8 7 6 7 7 7 5 2 3 6 7 8 9 9 10 10 11 11 12 12 13 13 13 13 13 13
25 24 22 20 19 19 17 15 12 10 8 5 3 1 2 5 7 8 7 7 7 6 5 2 1 4 6 7 8 9 10 11 11 12 12 13 14 14 14 14 14 14
25 25 22 20 19 18 16 14 12 10 8 5 4 2 2 3 6 8 8 7 7 6 5 3 2 3 5 6 7 8 9 10 11 11 12 13 14 14 15 15 15 15
25 25 22 20 19 17 15 14 12 10 8 6 5 4 3 4 5 7 8 8 8 7 6 4 3 3 4 5 6 7 9 9 10 10 11 12 13 14 14 15 15 14
25 24 22 20 19 18 15 14 13 11 8 7 6 6 5 5 6 7 8 8 8 7 6 5 4 3 4 5 6 7 8 9 9 9 10 11 12 14 15 15 15 14
24 23 21 20 19 18 16 15 14 12 9 8 8 8 7 7 7 8 8 8 7 8 7 5 4 4 4 5 6 7 8 8 8 9 9 10 12 13 15 15 15 15
22 22 22 21 21 19 17 17 16 13 11 10 10 9 9 8 9 9 9 8 7 8 8 6 5 4 5 6 7 8 8 8 8 8 8 9 10 12 14 14 14 14
22 23 23 22 22 20 19 18 17 15 12 11 11 11 10 10 11 12 11 9 8 8 8 7 6 5 5 6 7 8 8 8 8 8 8 9 10 11 12 12 12 12
25 24 23 22 22 21 20 19 18 17 15 13 12 12 12 12 13 13 13 11 10 9 9 8 7 7 6 7 8 9 9 9 9 8 9 9 10 11 12 11 11 12
28 26 24 23 23 23 23 21 20 19 17 16 14 14 14 14 15 15 14 13 11 11 10 9 9 8 7 7 8 9 9 10 9 9 10 11 11 12 12 12 12 12
29 28 26 25 25 25 25 24 23 22 20 18 17 17 17 17 17 17 16 14 13 12 12 11 10 9 8 8 9 10 10 10 9 9 10 12 13 13 12 12 13 13
28 28 27 26 26 27 27 26 26 25 23 22 21 21 21 20 20 19 18 16 14 12 12 12 11 10 9 8 10 11 10 10 10 10 10 12 13 14 14 13 14 14
27 27 27 27 28 28 28 28 28 26 25 25 25 24 23 22 22 21 20 17 15 13 12 12 11 10 10 9 10 11 10 10 10 10 11 12 13 14 14 14 15 15
27 28 28 29 30 30 30 30 29 27 26 27 27 27 25 24 23 22 20 18 16 13 13 12 11 11 11 10 11 11 10 10 10 11 12 13 14 15 15 15 16 16
29 28 28 29 31 31 30 31 31 29 28 29 29 28 27 25 24 23 21 18 16 14 13 12 12 11 12 11 11 11 11 11 11 12 13 14 15 15 15 16 17 17
26 26 27 29 31 30 30 30 29 27 28 30 30 30 30 29 28 26 22 18 15 14 13 13 12 12 12 12 12 12 12 12 13 13 14 14 15 15 15 16 16 16
20 22 24 25 25 27 29 28 24 22 22 24 24 26 28 28 27 25 21 16 15 14 13 13 13 12 12 12 12 12 12 13 13 14 14 14 15 15 16 16 17 17
16 18 18 18 17 18 20 20 19 18 18 18 17 17 17 17 17 17 16 15 15 15 13 13 13 13 13 13 13 13 13 13 14 15 15 16 17 17 17 17 18 18
14 15 14 14 13 13 14 15 15 15 15 14 13 12 11 11 12 13 13 13 15 15 13 13 14 14 14 14 14 14 14 14 15 15 16 17 17 18 19 19 19 19
12 13 13 12 11 11 12 12 12 11 11 9 9 10 10 11 11 11 12 14 15 15 14 14 15 15 16 16 16 16 16 16 16 16 17 17 18 18 19 20 20 21
11 12 12 11 10 9 10 10 8 8 8 9 10 9 9 10 11 11 13 15 16 16 15 15 15 16 17 18 18 18 18 18 18 18 19 19 19 20 21 22 22 23
10 9 9 9 9 8 8 9 9 8 9 10 10 9 8 9 11 12 13 15 16 17 17 17 17 18 18 19 20 20 20 21 21 21 22 22 23 23 24 25 25 26
10 9 8 8 8 8 9 10 10 10 11 11 12 12 11 12 13 15 15 15 16 17 18 19 20 20 20 21 21 22 22 23 23 24 25 25 26 27 28 28 28 29
9 9 8 8 8 8 10 10 10 11 12 13 14 14 15 15 15 15 16 17 17 18 18 19 20 21 21 22 23 24 24 25 25 26 27 28 29 29 30 31 31 31
8 8 7 7 7 7 8 9 10 11 12 14 15 15 16 17 14 12 15 18 19 19 19 20 20 21 22 23 24 24 25 25 26 27 27 28 29 30 31 32 33 33
7 7 7 8 8 8 8 9 10 11 11 12 14 14 15 16 15 13 14 17 19 20 21 22 22 23 23 24 24 25 25 26 27 27 28 28 29 30 31 32 33 34

ECMWFNIL_700_spd_057.txt.gz
Wind_Speed
23 23 22 23 23 23 23 21 19 19 19 17 15 14 12 9 8 7 6 6 6 6 7 8 10 11 12 12 13 13 12 11 11 11 11 11 12 12 13 13 12 11
23 24 25 26 26 24 23 21 21 21 20 18 16 14 11 9 7 5 5 4 4 4 5 6 7 9 10 11 12 13 12 11 11 12 13 12 12 12 13 12 12 12
25 27 29 29 29 28 26 24 23 22 20 18 16 13 11 9 6 4 3 2 3 3 4 4 5 7 9 10 10 11 11 11 12 12 12 12 12 12 12 11 12 13
28 32 34 35 34 31 27 25 24 22 20 17 14 12 10 8 5 3 1 1 1 2 3 4 4 6 8 9 9 9 10 10 11 11 11 11 11 11 11 11 11 12
29 33 34 34 33 30 27 25 24 22 19 16 14 12 9 7 5 3 1 1 0 1 2 3 4 5 7 9 9 9 9 9 9 9 9 11 11 11 11 11 11 11
27 33 33 32 29 28 26 25 24 22 19 16 14 12 10 8 5 3 2 1 1 1 1 2 2 3 6 8 9 9 8 8 8 8 9 10 9 9 11 12 12 11
25 32 33 31 29 27 25 25 24 21 19 17 14 12 10 8 6 3 1 1 1 1 1 1 2 2 3 5 7 9 9 10 9 9 10 10 9 9 9 10 11 11
26 33 34 32 31 29 27 26 24 21 19 17 15 13 11 9 6 4 3 1 1 1 1 1 2 2 3 4 6 8 9 11 11 11 10 10 10 9 9 9 9 10
28 35 36 34 32 30 29 28 25 21 19 18 17 14 12 10 7 6 4 2 2 2 2 2 2 2 3 4 6 7 8 9 11 12 11 11 12 11 10 9 8 9
33 36 35 33 32 31 29 28 25 21 20 19 17 14 12 10 8 7 6 3 2 2 2 3 3 3 4 5 5 7 8 8 9 10 11 12 12 12 12 11 8 9
38 38 35 33 32 31 30 27 24 22 21 19 17 15 13 11 9 9 8 6 5 4 4 4 4 4 5 5 6 7 9 8 8 9 9 10 9 9 11 10 8 9
39 38 38 36 33 31 30 26 24 22 20 19 17 15 12 11 11 10 10 10 8 7 7 6 6 6 6 6 7 8 10 10 9 9 9 9 8 8 10 10 9 9
38 37 36 35 31 30 28 26 24 22 19 19 17 14 13 13 12 12 12 13 12 10 9 9 8 8 8 8 9 10 10 11 10 10 10 10 9 9 10 10 9 8
37 37 36 33 31 30 28 26 24 22 20 19 17 15 15 15 14 14 14 15 14 14 13 12 11 10 9 10 11 11 12 12 11 11 11 10 11 10 10 12 11 9
35 35 35 33 31 30 28 26 24 22 21 20 18 17 18 17 17 17 17 17 16 16 16 15 14 13 11 11 12 12 13 13 13 12 11 10 11 12 11 13 13 12
28 28 30 30 29 28 26 25 24 22 21 20 19 19 20 20 20 20 19 19 19 18 18 17 15 14 13 13 13 12 13 14 14 14 12 11 12 14 13 13 14 14
24 25 26 27 26 25 24 24 23 21 20 20 20 20 21 21 22 22 21 21 20 20 20 18 17 16 15 14 14 14 14 14 13 14 13 12 13 15 14 14 14 14
24 25 25 24 24 24 23 22 21 21 21 20 20 20 21 22 23 24 23 24 24 24 23 22 20 20 18 16 15 15 14 13 13 13 13 13 14 14 14 14 15 14
24 24 23 24 23 23 23 22 22 24 23 21 20 20 22 25 28 28 26 26 26 25 25 24 24 23 20 17 16 15 13 12 12 12 12 13 14 15 15 15 15 15
23 23 23 24 23 25 26 25 25 24 21 18 17 17 18 20 22 22 21 20 20 20 21 22 22 22 20 16 15 15 13 12 12 11 11 12 13 14 15 14 15 15
22 23 24 25 25 25 24 21 21 21 18 14 12 12 13 13 14 14 14 13 12 12 13 13 14 16 17 17 17 16 14 13 12 12 12 12 13 14 14 14 14 15
23 23 24 25 24 22 20 18 16 16 14 12 11 11 10 10 10 10 9 9 8 8 7 7 10 13 15 17 18 17 15 14 12 12 13 13 14 15 16 17 18 17
23 24 23 23 21 19 17 17 16 15 14 13 11 9 7 7 7 7 7 7 8 8 8 7 8 11 14 15 16 15 15 13 12 13 13 14 15 15 17 19 20 21
19 20 20 20 19 17 16 15 13 14 14 13 11 10 9 7 6 6 6 7 7 8 8 8 8 9 11 13 14 14 14 14 15 15 15 15 16 17 18 20 21 23
16 16 17 17 16 14 14 13 11 10 11 12 12 12 10 8 7 7 7 7 8 8 9 10 10 11 11 12 13 14 15 15 17 18 17 17 19 19 20 22 23 24
18 18 17 16 14 12 12 12 11 11 10 10 12 12 11 10 9 8 8 7 7 7 9 11 12 12 13 14 14 15 16 17 18 18 18 19 21 22 22 23 26 28

ECMWFNIL_700_spd_060.txt.gz
Wind_Speed
21 17 15 16 19 21 21 21 21 22 22 21 19 18 16 14 14 14 13 12 12 12 12 12 12 12 12 12 12 11 10 10 10 10 11 10 9 8 8 8 8 9
16 17 16 16 20 23 22 22 24 24 23 21 19 18 16 14 14 13 12 11 11 10 10 11 12 13 13 12 12 12 12 11 10 11 11 10 10 9 9 8 8 9
13 16 16 17 21 24 24 24 26 26 24 22 20 17 15 14 13 11 10 9 8 8 8 9 10 12 12 12 12 12 12 12 11 11 11 10 10 10 9 9 9 9
13 15 17 19 23 25 26 27 29 27 24 22 20 17 15 14 12 10 8 7 7 7 7 7 8 8 10 11 12 11 10 12 11 10 10 10 10 10 10 10 10 10
13 14 17 21 25 28 30 30 29 27 24 22 20 17 15 13 11 9 7 5 5 6 6 6 7 7 8 9 10 9 9 10 10 9 9 9 10 10 10 10 11 11
12 16 20 23 27 31 32 31 28 27 25 23 20 18 16 13 10 8 7 6 5 5 4 5 5 6 7 8 9 9 9 9 9 9 8 8 8 8 8 9 10 10
16 20 24 27 29 32 33 32 29 28 27 24 20 19 16 13 11 9 7 6 5 5 4 4 4 4 5 7 8 9 10 10 10 10 9 9 9 8 7 8 9 9
19 23 26 29 32 35 35 34 32 29 26 22 20 18 16 14 11 8 6 5 4 4 4 4 4 3 4 4 6 8 10 10 11 11 10 9 9 9 7 7 7 8
21 22 26 31 34 36 36 36 33 29 25 22 20 18 16 14 11 8 6 4 3 3 3 4 4 3 4 3 4 6 8 8 10 12 10 9 9 10 9 7 7 7
20 21 27 32 34 35 36 37 34 28 25 23 21 19 16 14 12 10 8 5 3 2 2 3 3 3 4 4 3 4 6 6 8 10 10 10 11 11 10 9 8 7
21 24 28 32 33 35 37 38 32 28 27 25 22 19 17 16 14 11 9 6 4 2 1 1 1 2 3 2 3 4 5 5 7 8 9 10 10 10 10 10 10 9
24 28 31 33 34 35 35 34 31 29 28 25 22 21 19 17 14 12 9 8 7 5 4 4 2 2 3 3 4 5 5 6 6 7 7 7 8 8 8 10 12 11
27 31 34 34 35 35 33 32 31 29 26 24 23 22 18 16 14 12 10 9 8 8 8 7 5 5 4 4 5 5 5 6 6 7 8 7 8 8 7 10 12 11
28 34 35 34 35 35 32 32 30 27 27 27 25 21 18 16 14 12 12 11 11 11 11 9 8 7 6 6 7 6 6 7 7 8 9 9 9 8 8 11 13 10
29 33 33 31 32 32 29 29 28 27 27 27 24 21 19 17 15 14 14 13 13 14 12 11 11 10 9 9 8 7 8 9 9 9 10 10 9 8 9 12 13 11
27 30 31 30 30 31 30 30 28 25 23 23 23 22 20 18 17 17 16 15 15 15 14 14 14 13 12 11 10 9 9 10 10 9 10 12 10 8 8 10 11 11
26 29 30 29 30 33 34 32 29 26 24 24 23 20 19 19 18 18 17 16 16 16 16 16 16 15 14 14 13 12 12 11 10 10 11 12 11 10 8 8 8 10
27 27 27 28 32 35 36 34 32 29 27 24 21 19 19 19 18 17 17 17 17 18 18 18 18 18 18 18 17 16 14 12 11 11 11 11 12 11 9 8 8 10
27 27 26 27 30 33 34 33 31 28 25 22 21 20 20 19 18 18 18 18 19 20 20 21 22 23 23 22 20 17 15 13 11 11 11 11 12 13 11 10 8 9
28 27 26 26 27 29 30 28 25 23 22 22 22 22 20 20 19 18 18 19 22 23 25 26 26 25 25 23 21 19 15 13 12 11 10 10 12 13 12 10 8 8
27 27 27 27 28 29 28 25 22 22 23 23 23 22 21 21 20 17 17 18 19 21 22 23 23 22 21 20 20 19 16 13 12 11 10 10 9 9 9 9 9 9
26 26 26 27 28 28 28 27 25 24 22 22 22 21 19 18 16 14 14 14 13 14 15 15 14 14 14 14 15 15 13 12 11 10 9 10 9 9 10 11 12 12
26 26 26 28 28 26 27 29 25 20 18 18 18 16 15 13 11 10 10 9 9 10 8 6 4 4 6 9 11 12 12 12 12 11 12 12 11 11 12 13 13 14
25 26 26 29 28 25 26 27 23 18 17 17 16 15 13 11 9 9 9 9 8 8 6 5 4 3 4 6 7 9 11 13 14 14 13 12 11 11 13 13 14 15
21 21 22 24 25 24 24 24 21 18 18 17 17 15 13 12 11 11 11 10 9 9 8 7 7 6 6 6 7 8 10 13 15 14 13 12 12 13 15 15 16 16
19 19 19 19 20 20 20 20 19 18 17 16 16 15 14 13 12 10 10 8 8 8 8 8 7 7 7 7 8 8 9 11 13 13 13 13 14 16 19 20 20 20

ECMWFNIL_700_spd_063.txt.gz
Wind_Speed
13 10 7 8 10 12 12 15 18 19 19 21 22 22 22 20 19 18 18 18 17 16 15 14 14 14 13 13 13 12 12 11 10 10 10 10 11 11 11 10 10 9
15 13 11 10 9 12 15 17 20 20 20 22 24 24 22 21 20 19 18 18 16 15 15 15 15 14 14 15 14 13 12 12 12 11 11 11 11 11 11 11 11 10
15 15 15 13 12 15 18 20 22 22 23 23 24 24 23 22 20 18 18 17 15 15 15 14 14 14 15 15 14 13 13 12 12 12 12 12 11 11 12 12 11 11
15 17 19 17 16 19 21 23 24 24 25 25 25 23 22 21 19 19 18 15 15 14 13 13 13 14 15 14 13 13 13 13 13 13 12 12 12 12 11 11 11 10
18 20 21 20 20 22 24 25 25 25 27 27 26 24 22 20 19 18 17 15 14 13 12 12 13 13 13 14 14 13 12 12 13 12 12 12 12 12 11 11 11 10
21 21 21 21 22 25 26 27 26 26 27 28 27 24 21 21 20 18 16 15 14 13 12 12 12 12 12 12 13 13 12 12 12 12 12 11 12 12 12 11 11 11
24 22 21 22 24 27 28 28 28 27 28 28 27 23 21 21 19 17 16 15 14 13 12 12 11 10 10 11 13 13 12 12 12 12 11 11 12 12 11 11 12 11
25 23 22 23 25 28 29 30 29 28 29 29 25 23 22 20 18 17 16 15 13 13 12 11 11 10 10 11 12 12 12 12 12 11 11 11 12 12 11 10 11 10
22 20 20 24 27 28 30 32 30 29 29 28 25 24 23 20 18 17 15 14 13 12 11 11 11 10 10 10 11 12 12 12 12 11 11 12 12 13 11 11 9 8
19 19 21 26 29 29 30 32 31 31 31 28 26 26 24 21 19 17 15 14 13 12 11 10 10 10 9 10 10 11 11 12 12 11 12 14 14 13 12 12 10 8
19 20 23 27 29 30 31 32 33 34 33 30 28 27 23 21 19 16 15 13 12 12 10 9 9 8 8 9 9 9 9 10 10 10 12 14 14 13 13 13 13 11
19 20 22 25 28 31 32 34 35 35 34 32 29 26 22 20 19 16 15 14 12 11 9 7 6 6 6 6 6 6 7 8 8 9 11 12 13 15 14 14 15 14
20 21 23 25 28 31 34 36 36 36 38 35 30 26 23 21 19 17 16 14 12 9 8 6 5 5 4 3 3 4 5 6 6 7 9 9 12 12 11 13 15 15
21 22 23 27 30 32 34 37 37 38 40 36 29 26 24 22 21 19 16 13 11 9 7 6 4 3 3 3 2 3 4 5 5 7 8 9 10 9 8 11 14 15
20 21 24 29 31 33 35 36 38 39 37 33 28 26 25 23 22 19 15 13 11 10 7 6 6 5 4 4 3 3 4 5 6 7 8 9 10 8 9 12 14 14
19 21 26 30 31 32 34 36 38 39 36 32 29 28 25 23 21 18 15 13 11 9 8 8 8 7 7 7 6 5 5 5 6 8 9 10 10 10 11 12 13 14
19 20 26 31 32 31 34 37 37 35 35 33 29 26 23 20 19 17 15 13 11 10 11 11 10 10 10 10 10 9 8 7 8 9 10 10 11 12 11 11 13 15
19 20 25 31 32 30 32 36 33 29 31 31 27 23 21 18 18 17 15 14 14 14 14 13 12 13 13 13 13 12 12 11 11 11 12 11 12 13 12 11 13 15
17 20 24 28 31 30 32 34 33 31 31 29 26 24 22 20 19 18 16 16 16 15 15 14 14 15 15 15 15 15 15 15 13 13 13 12 14 15 13 12 13 14
18 23 24 25 28 31 31 31 32 32 31 28 24 23 23 22 21 19 18 18 17 16 16 16 16 17 17 18 18 18 18 17 15 14 13 14 14 14 14 13 12 13
19 23 23 23 25 27 28 29 30 31 31 28 24 22 23 22 21 19 19 18 17 16 17 17 18 18 20 21 22 21 19 17 16 15 15 15 14 13 13 13 12 11
17 20 21 21 23 26 27 28 29 29 30 30 26 23 22 22 20 19 19 18 18 18 18 17 16 17 18 19 18 16 14 15 16 16 15 15 14 12 12 12 11 11
18 20 20 18 20 24 26 26 27 29 30 30 27 24 22 21 21 20 21 21 20 18 16 14 13 12 12 12 11 10 11 14 15 14 13 13 11 11 11 11 11 11
21 22 21 20 20 23 25 26 27 28 29 29 28 26 24 23 23 23 22 20 18 15 12 11 9 8 8 9 10 12 12 13 14 13 12 11 10 11 12 12 11 11
22 23 24 25 25 25 25 27 28 29 29 29 28 27 26 24 23 21 18 16 14 12 11 10 9 8 8 9 11 12 13 14 13 12 12 11 12 12 12 12 12 11
24 24 24 25 27 27 27 27 28 29 30 30 28 25 24 22 20 19 16 14 13 13 12 12 11 9 8 9 10 11 12 13 13 14 14 14 14 14 13 13 12 12

ECMWFNIL_700_spd_066.txt.gz
Wind_Speed
21 19 18 17 15 15 16 14 14 15 16 17 17 19 21 22 22 21 20 20 19 18 17 18 18 18 18 17 16 15 15 15 15 15 15 15 14 13 13 13 14 14
23 23 20 16 15 15 16 16 15 16 17 18 19 20 23 23 23 22 21 19 18 17 18 18 18 18 18 17 16 15 15 15 15 15 15 15 14 13 13 13 14 14
23 25 22 17 15 15 17 17 17 19 20 21 21 22 24 25 26 24 21 18 17 18 19 19 18 18 18 18 18 17 17 16 15 16 16 15 15 14 14 14 14 14
25 27 23 19 17 17 18 19 20 21 22 22 23 23 24 25 25 23 20 18 18 19 20 20 20 20 20 19 19 19 18 17 17 16 16 16 15 15 15 16 15 14
28 27 23 22 21 19 19 20 21 22 22 23 24 24 24 25 21 18 18 19 20 20 21 21 21 20 20 19 19 18 18 17 17 17 17 16 15 15 16 16 15 14
27 25 23 25 24 21 21 21 23 24 23 24 25 25 26 25 21 18 18 18 19 20 20 20 19 19 18 19 19 18 18 18 17 17 17 16 16 16 16 16 15 15
28 27 26 27 25 23 23 23 25 26 24 25 27 28 29 26 22 20 19 19 19 19 19 19 18 18 18 18 18 18 18 18 18 18 18 17 17 16 16 16 15 15
29 31 30 28 26 23 24 27 29 28 26 28 30 31 29 25 21 20 20 20 20 20 20 19 18 17 17 17 17 18 18 18 17 17 18 18 17 17 17 16 15 15
30 32 31 29 27 25 26 30 30 28 29 32 32 30 26 22 21 22 21 21 22 21 20 19 18 17 16 16 17 17 17 17 16 16 16 17 17 17 17 16 15 15
29 31 31 30 29 27 28 30 30 30 32 33 31 26 22 21 22 23 22 21 21 21 20 19 18 17 16 17 17 17 17 17 15 15 15 16 17 16 16 16 15 15
27 28 28 29 30 29 30 31 32 33 34 31 27 24 23 24 24 23 22 21 20 20 19 19 18 17 16 17 17 18 17 16 15 15 16 16 16 15 15 15 15 14
23 24 26 28 30 30 31 33 33 33 32 29 26 25 25 26 25 24 22 21 20 19 18 17 17 16 15 15 15 15 15 15 15 16 16 15 15 16 15 15 16 16
20 23 26 29 30 30 31 32 32 31 30 28 26 26 27 28 27 25 23 22 20 18 17 16 15 15 14 13 12 12 12 12 13 14 14 14 15 16 16 17 18 17
19 22 26 29 28 29 30 30 29 29 28 28 27 27 29 30 27 24 23 22 20 18 17 16 15 14 13 12 11 11 11 10 11 12 12 13 13 13 14 17 18 18
18 21 26 26 26 28 30 30 29 29 30 30 30 30 32 31 27 24 23 21 19 18 17 16 15 13 12 11 10 10 10 10 10 11 11 12 12 12 13 15 17 18
15 19 21 22 25 25 27 29 30 31 33 33 32 34 35 32 28 25 23 21 19 17 16 15 14 13 11 10 9 9 8 8 9 9 10 10 11 12 13 15 16 16
14 15 16 20 24 24 24 29 32 33 35 35 37 40 37 30 27 26 23 21 19 17 16 15 14 12 11 10 9 8 8 8 9 9 9 9 10 12 13 14 15 16
14 14 14 18 24 25 25 29 33 35 36 36 40 42 36 29 27 26 23 20 19 18 17 15 14 12 11 10 10 10 10 10 11 11 10 10 11 12 14 14 15 16
14 14 15 17 21 25 27 31 34 35 36 36 38 39 34 28 27 25 22 20 19 19 18 16 14 13 12 12 12 13 14 14 14 13 12 12 13 15 15 14 15 16
12 15 17 18 23 26 29 32 34 33 33 34 36 37 33 28 26 22 21 20 19 19 18 17 16 15 15 15 15 16 17 17 17 16 14 13 14 16 15 15 15 15
11 15 16 20 26 29 30 33 32 32 34 34 35 36 32 28 25 21 20 20 19 19 19 18 18 17 17 18 18 19 20 20 19 19 17 15 15 16 15 15 15 15
10 12 13 17 25 28 31 34 32 30 32 34 36 37 33 28 24 21 20 20 20 20 20 19 19 19 19 20 21 22 23 23 23 22 20 18 16 16 15 15 16 16
11 11 12 15 20 23 27 31 30 27 29 33 36 36 32 29 26 23 21 21 21 21 21 20 21 21 21 22 22 24 25 24 23 21 19 17 16 15 14 14 15 16
13 12 15 18 19 19 22 26 29 28 28 31 34 34 32 30 27 25 24 23 22 22 22 23 23 23 22 21 20 21 21 19 18 17 17 16 15 14 14 14 15 16
13 14 18 19 18 18 20 23 27 29 29 30 31 31 31 30 27 25 25 24 24 24 24 23 22 20 18 17 16 15 16 16 16 16 16 16 15 15 15 14 13 13
15 18 21 21 19 19 22 23 25 29 30 30 31 30 30 30 29 27 27 27 26 25 24 21 18 16 14 13 13 14 15 15 15 15 16 17 17 15 14 13 13 12

ECMWFNIL_700_spd_069.txt.gz
Wind_Speed
29 28 27 26 25 24 22 18 18 20 21 22 24 25 25 25 25 25 26 27 29 27 23 21 21 21 21 21 20 19 20 19 19 19 18 18 17 17 16 16 16 16
30 28 26 28 29 26 22 17 18 19 19 20 22 23 26 27 26 25 26 29 29 25 21 21 20 20 21 21 20 20 20 19 19 18 18 17 17 16 16 15 15 16
31 28 28 31 30 24 19 17 18 19 19 19 21 22 24 26 25 25 26 28 27 23 22 23 21 21 21 21 20 20 19 18 18 18 17 17 17 16 16 15 15 16
31 29 29 31 28 22 19 19 19 20 20 20 22 23 23 24 24 24 26 27 26 25 25 25 22 20 20 20 21 20 19 18 18 18 18 17 17 16 16 16 15 16
28 26 26 27 28 26 23 20 20 20 21 20 21 23 24 23 22 24 26 26 25 26 26 24 21 20 20 20 21 21 20 19 19 18 18 17 17 16 16 16 16 16
23 24 25 26 29 29 26 22 21 22 21 20 22 24 24 23 23 24 26 25 23 25 25 22 19 20 21 21 21 21 20 20 19 19 18 18 17 17 16 16 16 16
21 25 26 27 28 29 28 26 24 24 23 23 24 24 23 24 24 26 27 25 23 23 23 21 19 20 21 20 20 20 20 20 20 20 19 19 18 17 16 16 16 17
23 24 24 26 28 30 31 29 27 27 27 26 25 24 23 24 27 30 28 24 23 24 23 21 20 20 20 20 20 20 20 21 21 20 20 19 18 17 17 16 16 17
23 25 26 27 28 30 32 31 29 30 30 27 25 24 23 24 28 31 28 25 25 25 23 21 20 20 20 20 20 20 21 21 21 20 19 19 18 19 18 17 17 18
23 26 28 29 29 31 32 32 32 32 30 27 26 26 26 25 28 29 27 27 28 25 21 21 21 20 19 19 19 19 20 20 19 19 18 18 18 19 18 18 18 18
24 25 27 28 28 29 30 33 35 34 31 29 28 27 28 28 28 28 28 28 26 22 21 21 20 19 19 18 18 18 18 18 18 18 18 17 17 17 18 18 17 17
27 28 28 29 28 28 29 33 36 36 33 31 29 28 30 30 28 27 29 27 23 21 22 21 19 19 19 18 18 18 17 17 18 18 17 17 16 16 17 17 16 16
29 29 30 30 29 30 31 33 36 37 35 33 31 29 30 29 26 27 28 26 22 22 21 20 19 19 18 18 17 17 17 16 17 17 17 16 16 16 16 16 16 17
28 29 29 29 28 30 32 33 34 34 34 34 33 32 30 26 26 29 28 25 22 22 22 21 20 18 17 16 15 15 15 15 16 16 15 15 15 15 16 17 18 18
28 28 28 29 28 28 30 31 32 31 31 32 33 31 29 28 30 31 28 25 24 23 23 22 20 19 17 16 15 15 14 14 14 13 13 13 14 15 15 16 18 19
27 27 28 28 28 28 29 29 30 29 28 30 31 29 28 30 32 31 27 26 26 24 23 22 20 20 18 17 16 15 14 14 13 12 12 12 12 13 14 15 16 17
24 24 25 26 27 27 27 28 29 28 28 31 31 30 31 33 32 30 29 28 26 24 23 23 22 20 19 18 17 15 14 13 13 12 12 12 12 13 13 14 15 16
20 21 22 24 25 25 24 25 27 29 29 29 29 30 34 36 33 30 30 29 26 26 26 24 22 20 18 17 16 14 13 12 12 12 12 12 12 12 12 13 15 16
17 19 20 22 23 22 21 22 25 27 28 27 29 33 36 37 36 32 31 31 29 28 26 24 22 19 18 17 15 13 13 12 11 12 12 12 12 11 12 13 14 16
16 18 18 20 19 17 20 24 23 24 27 27 30 35 36 35 36 35 34 33 32 29 25 22 20 19 17 16 14 13 12 12 12 12 13 13 13 13 14 14 15 16
14 15 14 16 16 15 19 24 22 22 26 27 30 36 36 34 36 36 35 33 31 28 24 21 19 19 18 16 14 13 13 13 13 14 15 16 16 17 16 16 16 17
10 11 13 15 15 15 22 26 22 21 24 28 35 37 34 32 34 36 34 31 28 25 23 22 21 20 18 17 16 15 15 15 16 16 17 18 19 19 18 17 17 17
10 11 11 14 13 14 25 28 23 24 30 36 37 34 30 29 33 34 32 27 25 24 23 23 22 20 19 18 17 17 17 18 18 19 20 20 21 21 20 19 18 18
11 12 13 15 13 12 25 28 25 29 33 34 32 29 28 30 33 34 31 26 24 24 24 23 22 21 20 19 19 20 20 20 20 21 22 23 23 24 23 21 19 18
7 10 12 14 12 15 21 20 24 30 30 29 30 31 33 35 35 35 31 27 25 24 23 23 22 21 21 21 21 22 22 22 23 23 24 24 24 24 22 19 18 18
4 6 7 9 11 16 16 14 19 25 28 29 31 33 35 37 36 35 32 28 25 22 21 21 21 21 22 22 23 23 23 24 24 22 22 22 21 20 18 16 16 17

ECMWFNIL_700_spd_072.txt.gz
Wind_Speed
29 32 33 31 28 25 24 27 29 28 26 24 22 21 22 22 22 23 25 26 27 27 26 26 26 26 27 27 25 24 24 21 20 20 20 20 19 19 19 18 17 17
29 31 32 32 28 24 23 26 28 28 27 26 24 22 22 22 24 25 25 25 26 27 28 28 27 28 28 26 25 25 24 22 21 20 20 19 18 18 19 18 18 18
30 32 33 31 28 25 25 26 26 26 26 25 25 23 21 21 23 24 23 24 25 26 28 27 27 27 26 24 25 26 25 23 21 19 19 19 18 18 19 19 18 18
35 35 34 31 29 28 26 25 26 28 27 26 25 24 21 20 21 22 23 22 23 26 26 26 26 25 24 24 25 26 25 22 20 20 20 19 19 19 19 19 18 18
37 37 36 32 29 28 26 22 25 29 28 27 26 24 22 21 20 22 22 21 22 25 25 25 25 25 24 25 25 25 25 22 21 20 20 20 20 20 19 18 18 17
30 34 36 32 29 28 25 21 22 26 28 28 27 25 23 22 21 21 22 22 22 24 24 25 26 24 23 23 24 25 25 23 21 21 21 20 19 19 18 17 17 17
19 23 27 27 26 26 24 21 22 26 28 30 29 27 25 23 22 21 22 23 23 23 24 26 26 24 22 23 24 26 26 23 22 21 20 19 18 18 17 17 17 17
16 18 21 23 23 23 24 23 25 27 28 31 32 30 28 25 23 21 22 24 24 24 26 27 26 24 24 24 23 24 25 23 21 20 19 18 18 17 17 18 17 17
17 19 21 23 23 25 26 27 27 28 29 31 33 32 30 26 23 22 23 24 24 25 27 27 26 25 23 23 22 23 24 22 20 19 18 18 18 18 18 18 18 18
18 19 21 22 24 27 28 29 30 29 29 30 31 32 30 27 24 23 23 25 25 26 27 26 25 24 23 22 21 23 24 22 20 19 19 19 19 19 19 19 18 18
21 20 21 22 24 27 28 29 30 30 30 30 30 31 31 28 26 25 24 26 26 26 27 26 26 25 22 21 22 23 23 21 19 20 20 19 19 19 20 19 19 18
25 24 24 25 25 27 28 29 29 29 30 29 29 31 32 31 29 26 26 26 26 26 28 27 27 25 23 22 23 23 23 21 20 20 20 20 20 19 19 19 19 19
26 27 28 28 28 27 29 30 30 29 29 28 28 29 32 33 31 28 27 27 26 26 27 29 29 27 24 23 24 24 22 20 19 19 19 19 19 18 18 18 19 19
25 27 30 31 30 29 29 29 29 28 28 28 29 29 31 33 33 30 27 27 26 26 28 31 32 28 25 25 24 22 20 18 17 17 17 18 18 18 18 19 19 19
24 26 28 30 31 30 29 28 28 28 28 29 29 30 31 32 32 31 29 27 27 28 30 33 33 29 25 24 23 20 17 17 16 16 17 17 17 18 18 19 18 19
23 26 27 28 29 29 29 28 28 28 29 29 29 29 31 31 29 30 30 27 28 30 31 33 32 27 23 22 20 17 16 15 16 16 16 17 17 18 18 18 18 18
25 26 27 27 27 27 28 27 27 28 28 28 28 28 30 29 26 27 28 28 28 29 30 32 30 25 22 21 18 17 16 15 15 15 16 16 16 16 17 17 17 17
26 26 27 27 26 25 25 25 24 25 26 27 27 27 27 27 26 27 27 28 30 30 31 30 27 24 22 20 18 17 16 15 16 16 16 15 15 14 14 14 14 14
25 25 24 24 24 24 24 23 22 22 23 24 25 26 27 26 27 28 29 31 33 33 32 29 26 24 22 20 18 17 17 16 17 16 15 14 13 13 12 12 12 12
22 22 20 20 21 22 22 21 20 21 21 21 22 25 26 27 29 30 32 34 35 33 31 29 26 24 21 20 19 18 18 17 16 15 14 13 13 12 12 12 12 12
21 19 17 17 18 19 20 19 19 19 19 19 19 22 26 28 30 32 33 35 36 34 31 29 27 23 21 20 19 18 18 17 15 14 14 13 13 13 13 13 13 13
19 16 14 14 15 15 16 16 17 18 17 15 17 22 25 25 29 34 34 34 35 33 30 28 27 24 21 21 20 19 18 17 16 15 14 14 14 14 14 14 14 14
16 13 13 14 15 15 16 16 16 16 13 13 19 22 22 23 31 36 35 34 34 32 29 28 26 25 23 22 21 20 19 18 17 16 15 15 16 16 16 16 16 16
16 16 15 13 13 16 21 21 18 15 14 17 19 20 19 24 32 35 34 33 33 31 29 27 27 25 24 23 22 21 20 19 18 17 16 17 17 17 17 17 17 17
14 16 17 13 11 15 18 14 8 9 17 18 15 15 21 26 30 34 35 31 30 29 27 26 27 26 24 23 22 22 21 20 18 18 18 18 18 19 19 20 19 19
10 13 16 15 14 15 15 11 5 5 16 19 15 17 24 28 31 35 35 30 27 26 25 26 27 26 25 24 23 23 22 21 19 19 19 19 20 21 22 22 21 19

ECMWFNIL_700_spd_075.txt.gz
Wind_Speed
31 32 32 29 27 28 27 25 24 22 21 21 21 20 20 20 17 18 20 21 23 23 24 25 23 23 23 23 24 25 25 23 23 23 21 20 21 20 20 20 19 18
31 32 32 31 30 30 30 30 27 24 22 22 21 19 19 19 18 18 19 20 22 24 26 26 24 24 24 21 22 24 24 23 24 23 22 22 22 21 21 21 20 19
30 31 31 32 32 32 32 33 31 28 25 23 19 17 17 18 18 18 19 20 21 23 25 26 26 27 24 21 21 22 23 24 24 24 23 24 24 22 22 22 21 20
26 28 29 31 33 34 34 35 34 30 27 24 20 18 18 18 18 18 19 20 20 20 23 25 27 27 24 21 21 22 23 25 25 25 24 25 24 23 23 23 22 21
21 23 24 26 31 34 37 37 35 31 28 24 21 22 22 21 20 18 18 20 21 20 21 23 25 26 25 22 21 22 23 24 25 24 24 24 23 23 25 24 22 22
17 19 20 23 26 30 36 38 35 31 27 23 22 23 24 24 22 19 19 21 21 20 21 21 21 22 23 22 20 20 22 23 24 24 24 25 24 24 26 24 21 21
16 18 19 21 23 23 28 34 33 29 25 23 23 24 23 23 23 22 21 22 22 21 20 20 19 18 19 21 21 20 22 24 25 25 25 25 25 26 26 24 22 22
17 18 19 19 19 17 17 24 26 24 23 24 25 24 22 22 23 24 25 26 26 24 21 20 19 18 19 21 21 22 23 25 26 26 25 25 26 26 25 23 22 21
19 19 20 19 17 14 13 19 23 23 24 26 26 24 22 23 24 26 26 27 28 27 23 21 20 19 20 21 21 22 24 26 26 26 26 26 25 25 24 23 21 20
20 20 20 20 18 16 15 19 23 25 25 26 26 25 24 24 26 27 27 28 28 28 25 22 21 21 21 21 22 23 25 26 27 26 26 26 25 24 24 23 22 22
22 22 21 21 21 20 19 20 23 25 26 27 27 27 27 27 28 28 28 28 27 27 25 23 22 21 21 21 22 24 26 27 27 26 25 26 25 26 26 23 22 23
23 23 23 22 22 22 22 23 24 25 27 28 28 28 27 28 29 29 29 28 27 27 26 24 23 22 22 22 23 24 26 27 26 24 23 24 25 26 26 24 22 23
23 24 25 24 24 23 23 24 25 27 28 29 29 28 27 27 28 29 29 28 27 28 27 25 24 23 23 23 24 24 25 26 26 24 22 23 24 26 26 24 23 23
24 25 27 26 25 25 25 24 25 26 28 30 30 30 29 28 28 28 28 27 27 28 28 27 25 25 24 25 25 25 25 27 27 24 22 23 24 25 26 24 23 22
25 27 28 28 26 24 25 26 26 25 26 28 29 30 30 29 28 28 27 27 27 28 29 29 28 26 26 26 27 27 28 27 26 24 23 24 25 26 25 23 21 21
26 28 28 27 26 24 24 25 26 26 25 25 26 28 28 28 28 27 27 27 27 28 29 30 29 28 27 27 27 29 29 27 25 24 24 24 25 26 25 22 20 19
27 27 26 26 26 24 24 23 24 25 25 24 25 27 28 28 27 27 26 26 28 29 29 30 30 29 28 28 29 30 30 28 25 24 24 24 24 24 21 19 18 18
26 26 25 26 27 26 24 22 21 22 24 24 24 25 26 26 26 27 27 26 28 29 29 30 30 29 29 30 30 30 29 27 25 24 23 23 22 21 19 18 18 18
25 26 25 26 26 25 24 21 19 18 20 23 24 24 25 25 25 26 25 25 27 28 28 28 29 29 30 31 32 32 30 27 26 25 24 22 21 20 18 18 17 17
24 25 25 25 23 22 22 20 18 17 19 21 23 24 25 26 26 26 26 26 27 27 28 28 29 30 31 33 34 33 30 27 27 25 24 22 21 19 17 16 16 16
23 24 23 23 21 19 17 17 16 16 17 19 21 23 24 25 26 26 26 27 28 30 31 30 30 32 33 34 35 32 29 27 27 25 23 22 20 18 17 16 16 15
23 24 23 21 20 16 14 13 14 15 18 20 21 21 21 22 23 25 27 28 29 31 32 32 33 34 33 32 32 31 29 27 26 24 23 21 19 17 17 16 15 14
23 23 23 21 20 18 15 14 16 15 15 18 18 17 18 18 16 17 22 27 30 31 32 33 34 33 32 33 33 31 29 27 25 23 22 20 18 17 17 16 15 14
20 20 22 22 20 19 17 16 17 18 13 10 10 10 12 12 10 9 13 20 26 29 31 33 34 32 33 35 34 32 29 27 24 22 21 19 19 18 18 17 16 15
19 17 19 21 21 20 19 16 14 15 14 6 1 3 6 10 10 13 16 20 24 27 29 30 31 31 31 32 32 31 28 26 23 21 20 19 19 19 18 18 17 16
19 17 16 18 19 19 19 17 13 12 12 7 2 4 6 9 12 15 16 20 25 27 26 26 27 28 28 29 29 27 26 24 23 22 21 20 20 20 19 18 17 17

ECMWFNIL_700_spd_078.txt.gz
Wind_Speed
31 31 30 29 29 30 29 27 28 28 28 28 26 22 19 17 16 15 15 17 18 19 19 20 22 23 23 24 25 23 23 25 26 26 25 23 22 22 22 22 21 21
30 29 29 29 29 30 29 28 28 29 29 29 28 26 22 18 17 17 16 16 18 19 19 19 20 22 24 26 26 24 24 25 25 25 25 22 21 22 23 24 23 23
21 21 22 23 24 26 27 27 28 30 30 30 30 28 25 22 19 16 16 17 17 17 17 18 17 18 21 24 25 24 25 25 24 25 25 24 23 23 24 25 25 25
16 17 18 18 19 21 22 24 27 29 31 32 32 29 26 24 20 17 18 18 18 17 16 15 13 13 16 19 22 24 25 26 25 26 26 26 26 25 25 26 26 25
15 16 17 17 17 18 19 21 24 27 30 32 33 31 28 25 21 19 19 20 19 18 16 14 12 12 15 17 19 22 24 26 27 28 28 28 27 25 25 26 26 25
15 16 17 18 18 18 19 21 24 26 27 29 31 30 27 24 21 20 20 21 21 20 18 15 13 13 15 17 18 20 23 25 27 28 29 29 27 25 26 27 25 26
15 16 17 18 19 20 20 21 24 25 24 24 28 27 22 20 20 21 21 21 21 21 20 18 16 16 16 17 18 19 21 24 27 28 28 28 26 25 26 26 26 26
14 15 16 18 19 20 20 20 21 22 21 18 21 21 17 16 20 22 22 22 21 21 21 21 21 19 18 18 18 19 19 22 24 25 27 27 26 26 26 26 27 27
14 15 17 18 19 20 20 19 19 18 17 14 15 16 15 16 20 23 23 23 22 22 22 23 23 22 20 19 19 19 19 19 22 23 25 27 26 26 25 26 27 28
14 16 17 18 19 20 20 20 19 18 17 16 17 18 18 19 22 23 24 25 24 23 23 24 24 23 21 20 20 21 20 19 21 23 26 28 27 26 26 26 28 28
15 17 18 19 20 21 22 22 20 19 19 20 21 22 22 24 25 25 26 27 26 25 24 25 25 24 22 21 21 22 22 21 22 24 28 29 26 26 28 28 29 28
17 18 20 20 21 23 24 24 22 20 20 21 23 25 26 27 27 28 29 29 29 28 27 27 27 25 23 22 22 23 23 23 23 25 28 28 24 25 28 29 29 29
18 20 21 22 23 24 24 24 22 21 21 21 22 24 27 29 30 30 30 30 29 29 28 28 29 27 25 24 24 24 25 25 25 26 27 25 23 25 29 30 30 30
19 20 21 23 24 24 24 24 23 22 22 22 22 23 26 29 30 31 31 31 30 29 29 29 30 29 27 26 26 25 26 26 26 26 26 25 25 26 29 31 31 31
20 20 21 22 24 25 25 24 24 24 23 23 23 24 24 26 29 31 33 32 31 30 31 31 32 30 28 28 27 27 27 27 27 26 25 26 26 26 27 29 31 32
20 20 21 22 24 25 25 24 24 25 24 23 23 24 24 25 27 30 32 32 32 31 31 32 32 30 28 28 29 29 29 27 26 26 26 26 27 26 26 27 29 31
20 20 21 22 24 26 26 25 25 25 24 22 21 22 24 25 26 28 30 31 30 30 31 31 31 30 29 29 30 32 30 27 26 26 27 28 28 27 26 26 26 27
20 20 20 22 23 26 27 26 26 26 25 23 21 21 23 24 25 27 29 29 29 30 30 31 31 32 31 30 32 34 32 29 28 28 29 29 29 29 28 26 25 26
20 20 20 21 23 25 26 27 27 27 27 26 24 23 23 23 24 26 28 29 29 30 31 31 32 32 31 32 34 34 32 30 30 30 31 31 31 30 29 27 26 26
21 21 21 21 22 24 24 25 26 27 27 26 26 26 26 24 23 24 26 28 29 30 32 33 34 33 32 32 33 32 31 31 31 32 33 32 31 30 27 25 25 24
22 22 22 21 22 23 23 23 23 25 27 27 26 28 28 26 24 24 25 28 29 30 32 33 34 33 33 34 34 32 33 32 31 32 33 32 30 27 25 24 24 23
23 22 23 22 22 22 22 22 22 23 26 28 27 26 26 24 24 24 25 27 28 29 31 32 33 33 34 35 34 33 33 33 31 31 31 30 27 25 25 25 25 24
22 22 22 22 22 22 22 22 21 22 24 25 25 23 21 19 19 21 23 24 26 27 28 29 31 32 33 35 35 35 35 34 32 31 31 29 27 27 27 27 26 25
20 20 20 21 21 22 22 21 20 20 19 20 20 19 16 13 13 15 18 19 20 22 25 27 30 31 32 34 35 35 35 33 29 30 31 29 27 28 28 26 26 26
19 19 20 20 20 21 22 21 21 19 17 15 15 14 13 11 11 13 15 14 14 16 16 17 21 24 28 32 32 32 32 30 28 29 31 28 26 27 28 27 27 26
19 20 20 20 19 19 21 21 21 19 17 14 12 12 12 11 11 13 15 15 16 15 13 14 16 18 24 30 31 28 27 25 24 26 28 28 28 28 28 28 27 24

ECMWFNIL_700_spd_081.txt.gz
Wind_Speed
29 29 29 30 31 30 28 29 29 27 26 25 24 25 23 24 28 26 20 18 18 18 17 17 16 16 16 17 18 20 23 25 25 24 24 24 25 25 24 24 24 24
25 25 24 24 24 23 22 23 23 23 23 23 24 24 23 23 27 27 23 20 18 18 18 18 17 16 16 16 17 19 21 23 25 24 25 25 25 25 25 25 25 24
19 19 18 18 18 19 20 20 21 21 22 22 23 24 25 26 28 28 27 22 17 17 18 18 17 16 16 15 16 18 19 22 24 25 25 26 26 25 25 26 25 25
14 14 15 16 17 18 18 19 21 22 22 23 23 24 26 29 30 29 28 23 18 18 19 17 17 16 15 14 15 17 18 20 22 25 26 27 28 27 26 26 26 26
14 14 15 15 15 16 17 18 20 22 24 24 23 23 25 28 28 25 24 22 19 19 20 19 17 17 16 14 14 15 16 16 17 21 24 26 29 29 28 27 27 27
14 13 13 13 13 14 15 16 18 20 23 23 23 24 25 26 24 21 21 23 23 23 23 21 18 18 18 16 14 13 14 15 15 17 19 22 27 29 30 29 28 28
12 12 11 12 13 15 16 17 18 19 21 22 22 23 25 24 21 19 21 23 24 24 24 22 20 20 21 19 17 15 15 15 16 17 18 20 24 28 31 31 30 30
11 11 12 13 15 16 17 18 19 20 21 22 21 22 23 22 18 16 17 20 21 22 23 23 22 21 22 23 21 20 18 18 18 19 19 19 21 26 30 31 31 31
12 12 13 15 16 17 19 19 21 21 21 22 21 20 22 22 18 15 15 17 19 20 23 25 23 20 21 24 24 23 22 21 20 21 21 19 19 22 27 31 32 31
12 13 14 16 17 18 20 21 22 23 22 21 21 21 21 22 21 19 18 19 20 22 24 26 25 22 22 24 25 25 24 23 22 22 23 21 20 21 25 29 31 31
14 15 16 17 18 19 21 22 23 24 23 21 21 21 21 21 22 22 23 24 24 25 26 27 27 25 24 24 25 25 25 25 25 25 24 24 23 22 23 26 29 30
17 18 18 19 20 21 21 23 23 24 24 23 21 20 20 21 23 24 25 27 27 27 29 30 30 28 26 26 25 25 26 27 27 27 27 27 26 24 23 25 27 29
18 19 20 21 22 22 23 23 24 24 24 24 23 22 20 20 22 24 26 27 27 29 31 33 33 30 26 26 26 26 28 29 29 29 29 28 28 27 25 25 27 28
18 19 21 22 22 23 23 23 24 25 25 24 24 23 23 22 22 23 25 27 28 30 32 33 35 32 27 27 27 28 29 30 30 31 31 29 28 28 27 27 28 28
18 19 20 21 21 22 23 23 24 25 25 25 24 24 25 25 24 23 24 26 29 31 33 34 35 34 31 30 30 30 29 30 31 32 33 31 28 28 29 29 28 27
18 19 20 20 21 21 23 23 24 25 25 25 25 24 25 25 25 25 25 25 26 29 32 33 33 33 32 31 32 32 31 31 31 32 33 32 29 29 31 29 26 27
18 18 19 20 21 22 23 24 24 25 26 27 27 26 26 25 24 25 25 26 27 28 30 32 32 33 32 31 32 34 33 31 31 31 31 30 29 30 31 28 26 28
18 18 19 20 21 22 23 24 26 26 27 28 28 28 28 27 27 26 27 28 29 29 29 31 32 32 33 33 34 33 33 32 31 31 31 31 31 32 31 28 28 30
20 20 20 20 21 23 24 25 26 27 28 29 30 30 30 30 30 30 30 30 30 30 30 31 32 31 32 33 33 33 33 32 31 31 31 31 32 32 31 29 30 29
21 21 22 22 23 24 24 25 26 27 28 30 31 31 31 31 31 31 32 32 32 30 30 31 31 31 32 33 33 33 34 33 31 31 31 32 33 32 31 31 30 28
21 21 22 23 24 24 24 24 25 26 28 29 30 31 31 31 31 31 32 32 32 30 30 31 31 30 32 33 33 33 34 34 31 29 29 31 31 30 31 32 29 29
20 21 21 22 23 24 25 25 25 25 26 28 29 30 30 30 30 30 31 31 29 27 27 29 31 31 31 32 33 32 33 34 32 30 30 31 31 31 33 32 31 32
18 19 20 21 22 24 25 26 26 25 24 25 27 28 28 28 27 27 27 27 25 23 23 24 27 29 28 30 32 33 33 34 33 32 32 32 31 32 34 34 34 34
17 18 18 19 20 21 23 24 25 25 24 23 24 26 26 26 25 24 23 22 22 21 21 20 22 24 25 26 29 32 33 33 32 32 32 33 33 33 35 35 34 32
17 17 18 19 19 20 21 22 23 24 24 22 22 23 23 24 23 22 21 21 21 21 20 18 18 19 21 22 24 29 31 30 30 31 33 34 35 34 33 33 31 29
16 17 17 18 19 20 21 21 21 22 23 22 21 21 22 22 21 19 19 19 19 19 18 17 16 16 18 18 18 22 26 28 30 32 33 35 35 33 31 30 28 27

ECMWFNIL_700_spd_084.txt.gz
Wind_Speed
23 22 22 22 22 21 21 21 22 22 21 21 21 20 18 17 17 17 17 19 20 20 19 19 19 19 18 18 19 18 15 15 18 21 23 24 23 22 23 23 24 24
18 18 17 17 17 18 19 20 21 21 20 20 20 20 19 18 18 19 20 21 22 22 21 20 20 20 20 19 20 20 17 15 17 20 23 24 23 23 23 23 23 25
14 13 13 14 15 16 17 18 19 20 20 19 20 21 20 19 19 20 22 23 24 22 21 21 22 21 20 20 20 19 19 17 17 19 23 24 23 24 24 24 24 25
12 13 13 14 14 14 14 15 17 18 19 20 21 22 22 21 19 19 22 24 25 23 20 19 21 21 20 21 21 19 18 18 18 19 21 23 24 25 25 25 24 24
13 14 14 14 14 13 13 13 15 17 18 20 21 23 24 23 21 19 21 23 23 20 17 15 17 20 21 22 23 21 19 20 20 18 19 22 23 25 26 27 26 26
14 14 14 14 13 12 13 14 15 16 17 20 22 23 24 24 23 20 20 21 21 17 14 13 15 19 21 23 24 23 22 22 21 20 19 20 21 23 25 27 28 28
15 14 14 14 14 14 14 14 15 16 17 20 22 23 23 24 23 21 19 20 20 16 14 14 16 19 22 23 23 24 25 25 24 24 22 21 22 23 23 25 27 28
15 15 15 15 15 16 16 15 16 17 18 19 21 22 23 24 24 22 20 19 19 18 15 14 15 17 20 21 22 24 27 27 27 27 26 24 24 23 23 24 26 27
15 15 16 16 16 17 17 17 17 18 19 20 21 22 22 23 24 24 22 20 20 19 18 17 16 17 19 20 21 23 26 27 28 29 28 26 25 24 24 25 25 26
15 16 16 17 17 17 18 18 19 20 20 21 22 23 23 23 23 25 25 24 21 21 21 21 20 20 21 21 22 23 25 26 27 30 32 30 28 27 26 26 25 25
16 17 17 18 18 19 19 20 21 21 22 22 22 23 22 22 23 24 26 26 24 23 23 23 23 23 22 22 24 26 28 27 27 31 35 35 32 28 26 26 26 26
17 17 18 18 19 20 21 21 22 22 22 22 22 22 22 21 22 24 25 25 25 25 25 24 25 24 23 23 25 28 30 29 29 31 35 36 33 28 25 25 26 28
16 16 17 18 18 19 20 21 22 22 22 22 23 23 22 22 22 23 25 26 26 25 25 25 24 24 24 26 26 27 29 30 30 32 34 34 33 28 25 25 26 29
16 17 18 19 19 20 20 21 21 21 22 23 23 23 23 23 23 23 24 25 26 26 25 25 24 22 25 27 28 28 29 30 31 31 31 31 30 27 27 27 25 26
19 19 20 21 21 21 21 22 22 22 22 23 24 25 25 25 25 24 24 24 25 26 26 26 25 25 26 28 30 30 30 32 32 31 29 29 29 28 28 27 26 26
21 21 22 23 23 23 23 23 24 24 24 25 25 27 28 28 27 26 26 25 25 25 25 26 27 28 29 30 32 32 32 32 32 31 30 29 29 30 29 27 28 29
22 22 23 24 24 24 24 25 25 26 27 27 28 29 29 30 30 29 28 27 27 26 26 26 27 28 30 31 33 33 34 33 32 30 31 30 29 29 29 28 29 30
22 23 24 24 24 24 25 25 26 27 28 29 29 30 31 31 32 32 31 29 28 28 28 28 27 27 28 31 33 34 34 34 33 30 31 32 30 29 29 28 29 30
22 22 23 24 24 25 26 26 27 28 28 29 29 30 31 32 32 33 33 32 31 30 30 29 28 27 28 30 32 33 34 33 33 31 31 31 30 29 29 29 29 30
21 22 23 23 24 25 26 27 28 28 29 29 30 30 31 32 32 33 33 33 33 32 32 31 30 28 28 28 29 30 33 33 32 31 30 30 29 28 29 30 30 31
19 20 21 22 23 24 25 26 27 28 28 29 29 29 30 31 32 32 32 32 33 32 32 31 30 29 28 28 27 27 29 31 32 31 30 29 29 28 28 29 31 33
17 19 20 20 21 22 23 24 25 26 26 27 28 28 28 28 30 31 31 31 31 31 30 29 29 29 28 28 29 28 27 27 29 31 31 30 28 27 28 29 31 32
17 18 19 20 21 22 22 23 24 25 25 26 26 26 26 26 27 28 29 29 29 30 29 26 26 27 28 28 30 31 29 27 26 28 30 30 28 27 28 28 28 28
17 18 18 19 20 21 22 23 24 24 25 25 26 26 25 25 25 26 27 27 27 28 28 26 24 24 25 26 28 28 29 28 25 25 27 28 28 28 28 28 28 27
16 17 17 18 19 20 21 22 23 24 24 25 25 25 25 25 24 25 25 25 25 25 25 25 24 22 22 24 26 25 25 24 23 22 22 23 24 25 26 28 29 29
15 16 17 18 19 20 21 22 23 23 24 24 24 24 25 25 24 24 24 24 24 23 23 22 22 21 20 20 22 22 20 19 18 18 18 19 20 21 24 28 31 29

ECMWFNIL_700_spd_087.txt.gz
Wind_Speed
17 16 14 13 13 12 12 12 11 11 11 10 10 11 12 13 14 15 14 14 14 15 17 18 20 22 25 22 20 20 20 20 20 21 22 23 23 25 27 28 28 28
14 13 12 11 10 10 11 12 12 11 10 10 10 11 12 13 14 15 15 15 16 17 19 21 21 23 26 23 19 20 21 21 21 22 23 23 22 23 26 27 28 28
12 11 11 10 11 11 11 12 11 10 10 11 11 12 13 14 15 14 15 16 17 17 19 22 23 22 24 23 21 23 22 21 20 21 22 23 23 24 25 26 27 27
12 11 11 12 12 12 11 11 10 10 11 12 12 13 15 15 16 16 16 16 17 17 17 20 23 21 20 21 22 23 22 20 20 21 22 22 22 23 24 25 26 26
12 12 13 14 13 12 11 11 11 11 12 13 14 15 16 16 17 17 17 17 17 17 17 19 20 19 18 18 19 21 22 21 20 22 23 22 23 23 23 25 26 26
13 14 15 15 13 12 12 12 13 13 13 14 15 16 17 18 18 19 19 19 17 17 18 19 19 18 17 17 18 21 23 22 22 23 24 24 25 25 23 24 25 26
15 16 16 15 14 13 13 14 14 15 15 16 17 18 19 19 19 20 20 20 19 18 18 18 18 18 18 18 19 21 23 24 24 25 25 25 27 27 25 25 25 26
17 17 16 16 16 15 15 16 17 17 17 18 19 19 20 20 21 20 20 20 20 20 19 19 18 17 18 20 21 21 23 25 25 25 26 26 27 28 27 27 27 26
18 18 18 18 17 17 17 18 18 19 19 20 20 21 21 21 22 21 21 21 21 20 19 19 18 18 18 19 21 23 23 24 25 25 26 26 26 26 27 29 30 28
18 18 18 18 19 19 19 19 20 20 20 21 21 22 21 21 22 22 23 22 22 21 19 19 19 19 19 19 20 23 25 26 26 26 26 26 26 26 26 29 30 30
18 18 18 19 20 20 20 20 20 20 20 21 21 22 21 21 22 22 23 23 23 22 21 21 21 20 20 20 20 22 24 27 28 28 28 29 29 27 27 28 29 29
18 17 18 19 19 19 19 19 19 20 20 21 21 21 22 22 22 22 23 23 24 24 24 23 24 23 21 21 22 22 22 24 27 28 28 30 30 28 28 29 29 27
19 18 18 19 19 19 19 19 20 20 21 21 21 22 22 22 23 23 23 24 25 25 25 26 26 26 24 23 23 23 22 23 24 26 27 28 29 29 30 31 30 28
20 20 20 20 21 21 21 21 21 22 23 23 23 23 24 24 24 25 25 25 26 26 26 27 27 27 27 27 26 25 25 24 24 25 27 28 29 29 30 31 31 30
22 23 23 23 24 24 24 24 24 25 25 26 25 25 26 26 27 28 28 28 28 27 27 28 28 28 29 29 29 28 27 26 25 26 27 27 28 29 31 31 30 31
23 24 24 25 25 25 26 26 27 27 27 27 28 28 28 29 30 30 31 31 31 30 29 28 28 29 29 30 30 30 29 28 26 26 27 28 27 28 30 32 31 30
23 23 24 24 25 26 27 27 28 28 28 29 29 30 31 31 32 33 33 34 34 33 32 30 29 29 29 30 30 30 30 29 27 26 27 27 27 28 29 31 31 31
23 23 24 25 25 26 26 27 28 28 29 30 30 31 32 32 33 34 34 34 35 35 34 33 31 30 30 30 31 31 30 28 27 26 26 26 26 26 28 29 30 31
22 23 24 24 24 25 25 26 27 27 28 29 30 31 31 32 32 32 32 33 33 33 33 33 31 30 29 30 32 32 30 28 25 24 25 25 25 24 26 28 29 30
21 21 22 22 23 23 24 24 25 25 26 28 28 29 30 29 29 29 29 30 31 31 31 31 31 29 28 29 31 32 32 30 27 25 24 25 25 25 25 27 29 29
19 19 20 21 21 22 23 23 24 24 25 26 27 28 29 29 29 28 28 28 28 29 30 31 31 29 28 28 30 31 32 32 30 28 26 25 26 26 26 26 28 29
18 19 19 20 21 22 22 23 24 24 25 25 26 27 28 28 29 28 28 27 27 27 28 29 30 29 27 26 27 29 31 31 31 30 29 27 26 26 27 27 27 29
17 18 19 19 20 21 22 23 24 24 25 25 26 26 27 27 28 28 28 27 27 27 27 27 27 27 26 25 25 27 28 29 29 29 28 27 26 25 26 27 27 29
17 18 19 20 20 22 22 23 24 24 25 26 26 26 27 27 28 28 29 28 28 27 26 26 26 26 25 24 23 24 25 25 26 27 25 23 22 21 22 24 26 27
18 18 19 20 21 22 22 23 24 24 25 25 26 26 26 27 28 28 28 28 28 27 26 25 24 23 23 22 20 20 21 22 24 23 21 19 19 19 18 18 20 23
17 18 19 20 21 21 22 22 23 23 23 24 24 25 25 26 26 27 27 27 27 27 26 24 22 21 21 20 19 18 18 20 21 20 17 16 17 18 17 16 16 18

ECMWFNIL_700_spd_090.txt.gz
Wind_Speed
14 13 13 13 12 11 11 10 9 10 10 10 10 10 11 11 12 14 15 15 16 16 17 17 18 17 16 17 21 25 26 26 26 27 27 26 25 24 25 26 27 29
13 12 12 12 12 11 11 11 11 12 11 11 10 11 11 12 13 14 15 16 16 17 18 17 17 17 16 17 20 23 24 24 24 24 24 24 24 23 23 24 25 26
12 12 12 12 13 13 13 13 13 13 12 11 11 11 12 12 14 15 16 16 16 17 18 18 18 18 18 18 19 21 21 21 23 24 24 24 23 22 22 23 24 25
13 12 13 14 14 15 15 14 14 13 12 12 12 12 12 13 14 15 16 17 17 17 18 18 19 19 19 19 19 20 20 19 21 23 25 24 23 22 22 23 23 24
14 14 14 15 16 16 17 16 15 13 13 14 14 14 14 15 16 16 17 18 18 18 19 19 19 19 20 20 20 20 20 19 19 21 24 25 24 24 23 24 24 23
14 14 15 15 16 16 17 16 15 15 15 15 16 17 17 17 18 18 19 20 20 20 20 20 20 20 21 21 21 21 21 21 20 21 23 25 26 27 26 26 25 24
14 15 15 16 16 16 16 16 16 16 16 17 18 19 20 20 21 21 21 22 22 22 21 21 21 21 22 22 22 21 21 21 21 22 23 24 26 28 28 28 28 27
15 15 16 16 17 17 17 17 17 17 18 19 20 21 22 23 23 23 23 24 23 23 23 22 22 22 23 23 23 22 21 21 22 22 23 23 25 26 28 28 29 29
16 17 18 18 19 19 19 19 19 19 20 21 22 23 24 24 25 25 25 25 25 25 25 24 23 23 24 24 24 23 21 21 22 23 23 24 25 26 26 27 28 28
16 17 18 19 20 21 21 21 21 21 22 22 23 24 24 24 25 26 26 26 26 26 26 25 24 24 25 26 26 25 24 22 22 22 23 24 25 27 27 28 29 29
17 18 19 19 20 21 21 22 22 22 22 23 23 23 24 24 25 26 27 27 27 28 28 27 26 27 27 27 28 28 27 26 25 24 24 24 25 26 27 28 30 31
17 19 20 20 20 21 22 22 22 23 23 23 23 23 24 25 25 26 27 28 28 28 29 29 29 30 30 29 29 29 29 29 28 27 27 26 26 26 26 28 30 31
18 19 20 21 22 22 23 24 24 25 25 25 25 25 25 26 26 27 28 29 29 30 30 31 32 32 32 32 32 31 31 31 30 30 29 29 28 28 27 28 29 31
20 20 21 22 23 23 24 25 26 27 27 27 28 28 28 28 29 29 29 30 30 31 32 33 33 34 34 35 34 32 32 32 33 33 32 31 31 30 30 30 30 32
21 22 23 23 24 24 25 26 26 27 28 28 29 30 30 30 31 31 31 31 31 32 33 34 35 35 36 37 37 35 33 32 33 34 34 33 32 32 31 31 31 32
22 23 24 24 25 25 26 27 28 28 29 29 30 30 31 31 32 32 32 32 33 33 34 35 36 37 37 37 38 38 36 34 32 33 34 34 34 34 33 32 32 33
23 23 24 24 25 26 27 28 29 29 29 30 30 30 30 31 31 32 32 32 33 33 34 35 36 36 36 36 36 37 37 36 33 31 32 34 34 34 34 33 32 32
22 23 23 24 24 25 26 27 28 29 29 29 30 30 30 30 30 31 31 32 32 33 33 34 34 35 35 35 35 35 36 36 36 33 31 32 33 33 33 34 33 31
22 22 23 24 24 25 26 27 28 28 28 28 29 29 29 30 30 30 31 31 32 32 33 33 33 34 34 34 34 35 35 35 35 34 32 31 32 32 32 32 33 32
21 22 23 24 25 25 26 26 27 28 28 28 28 28 29 29 30 30 30 30 31 31 32 32 32 33 33 33 33 33 34 34 33 34 34 32 31 32 32 32 32 32
21 22 23 23 24 25 25 26 27 28 28 29 29 29 30 30 30 30 30 31 31 31 31 31 31 32 32 33 33 33 33 33 33 33 34 33 31 31 32 33 32 31
21 22 23 23 24 24 25 25 26 27 27 28 29 29 30 30 30 30 30 30 30 30 30 30 30 31 31 32 33 33 33 32 32 32 32 32 31 30 30 32 33 32
20 21 22 22 23 24 24 25 25 26 26 27 27 28 28 29 29 30 30 30 30 30 30 30 29 29 30 30 31 32 32 31 30 30 30 30 30 29 29 29 30 31
18 20 20 21 22 23 24 25 26 26 27 27 28 29 29 30 30 30 31 31 31 31 30 30 30 29 29 29 29 29 30 30 29 28 28 27 27 28 28 27 25 26
18 19 20 21 22 23 24 25 26 27 28 28 29 29 30 30 31 31 32 32 32 32 31 31 31 30 29 28 27 27 28 29 29 27 26 25 24 24 25 24 24 24
17 18 19 20 21 23 24 25 26 26 27 27 28 28 29 29 30 30 31 31 32 32 32 32 31 30 30 29 27 27 27 28 28 27 25 22 22 22 21 20 22 24

ECMWFNIL_700_spd_096.txt.gz
Wind_Speed
11 11 12 13 13 14 14 14 14 14 13 14 14 15 17 18 19 20 19 19 19 19 20 20 20 21 21 22 23 23 24 24 24 25 25 25 24 24 25 25 25 24
12 12 12 13 13 13 13 13 14 14 14 15 16 17 19 20 21 21 21 21 20 20 21 21 22 22 23 24 25 25 25 26 26 26 26 27 26 26 26 25 25 24
12 12 12 12 12 12 12 12 13 14 15 16 18 19 21 22 23 22 22 22 22 22 23 23 24 25 26 27 27 27 27 27 27 27 28 28 28 28 28 27 26 25
12 11 11 11 11 11 11 12 13 14 16 17 19 20 21 22 23 24 24 24 24 25 25 26 26 27 28 29 29 30 29 29 29 29 28 28 29 30 30 30 28 26
12 11 11 11 11 11 11 12 13 15 16 18 19 20 21 22 23 24 25 25 26 27 27 28 28 29 29 30 31 31 31 31 31 31 30 29 30 31 31 31 31 29
13 12 12 11 12 12 12 12 14 15 17 18 20 21 22 23 24 25 26 27 28 28 29 30 31 31 31 31 32 32 32 32 32 32 32 32 31 31 32 32 32 32
13 13 12 12 13 13 13 13 15 16 18 19 20 22 23 24 25 26 27 28 29 30 31 32 33 33 33 33 33 33 33 33 33 33 33 33 33 33 33 34 33 33
14 14 13 13 14 14 14 15 16 17 18 19 20 21 23 24 25 26 28 29 30 31 32 33 34 34 35 35 35 35 35 35 35 35 35 35 35 35 36 35 35 34
16 15 14 14 15 15 16 17 17 18 19 20 21 22 23 24 26 27 28 30 31 32 33 34 36 36 37 38 38 38 38 38 39 39 39 38 38 38 38 37 37 36
16 15 15 15 16 17 17 18 19 20 21 22 22 23 25 26 27 28 30 31 32 34 35 36 37 38 40 41 41 41 42 42 42 42 42 42 41 41 40 39 39 38
16 16 16 17 17 17 18 19 21 22 22 23 24 25 26 27 29 30 31 33 34 35 36 37 38 39 40 41 42 43 44 44 44 44 44 43 43 42 42 41 41 40
16 17 17 18 18 19 19 21 22 22 23 24 25 26 28 29 30 32 33 34 35 36 36 37 38 39 39 40 41 42 43 44 45 45 45 45 44 44 43 43 42 41
17 17 18 19 19 20 20 21 22 23 23 24 26 27 28 30 31 32 33 34 35 36 37 37 38 39 40 40 41 41 42 43 44 44 45 45 45 45 44 44 43 42
17 18 19 20 20 20 20 21 21 22 23 25 26 27 28 29 30 31 32 33 34 35 36 37 38 39 40 40 40 40 41 42 42 43 43 44 44 44 44 44 43 43
18 19 19 19 19 19 19 20 21 22 24 25 26 27 28 29 29 30 31 32 33 34 35 36 37 38 39 40 40 40 41 42 42 43 43 44 44 44 44 44 44 43
17 18 17 17 17 18 19 20 21 22 23 24 25 26 26 27 28 28 29 29 30 31 32 34 35 36 37 38 39 40 40 41 42 43 44 44 45 45 44 44 45 44
15 15 15 15 16 18 19 20 21 21 22 22 23 24 24 25 25 25 26 27 27 28 29 30 31 32 33 35 36 37 38 39 40 41 42 43 44 45 45 45 45 45
13 13 14 15 16 17 18 18 19 19 19 20 20 21 21 21 22 22 23 24 24 25 26 27 27 28 29 31 32 34 35 36 38 39 40 41 42 43 44 45 46 46
12 13 14 15 15 16 16 16 16 16 17 17 17 17 18 18 19 20 20 21 22 23 23 24 25 26 27 29 30 31 33 34 35 36 37 39 40 41 42 43 45 45
11 12 12 12 13 13 13 13 13 13 13 14 14 15 16 17 18 19 20 21 22 23 24 24 25 26 26 27 28 29 31 32 33 34 35 36 38 39 40 41 42 43
9 9 9 9 9 10 10 10 11 11 12 13 14 15 17 19 20 21 22 24 25 26 27 27 28 28 28 28 29 30 31 32 32 32 33 34 35 36 37 39 40 41
6 6 6 7 7 8 9 10 11 12 14 15 17 19 20 22 23 24 26 27 28 29 30 31 31 31 32 32 32 32 32 32 33 33 32 32 32 33 34 36 38 39
4 5 5 6 8 9 10 12 14 15 16 18 19 21 22 24 26 27 29 30 31 31 32 33 33 34 34 34 34 34 34 34 34 34 34 32 31 31 32 33 36 38
4 5 7 8 9 10 12 14 15 16 17 19 21 22 24 26 27 29 30 31 32 33 33 34 34 34 34 35 35 35 36 36 36 36 36 35 33 31 31 32 33 35
6 8 9 10 10 11 13 15 16 17 18 20 21 23 25 26 28 29 30 31 32 33 33 34 34 34 35 36 36 37 38 38 39 39 38 37 35 33 31 31 32 33
8 9 9 10 11 12 14 15 16 17 18 20 21 23 25 26 27 28 30 31 32 33 33 34 34 35 36 36 37 38 38 39 39 40 39 39 38 36 34 33 32 32

ECMWFNIL_700_spd_099.txt.gz
Wind_Speed
13 12 11 12 12 12 12 12 12 12 12 12 12 12 13 14 16 17 18 19 20 20 20 20 21 21 22 22 23 23 24 25 25 26 26 27 27 27 27 26 26 26
14 13 13 13 13 13 12 11 11 11 11 11 12 13 14 15 16 18 19 20 21 22 22 22 22 23 24 24 25 25 26 26 27 27 28 28 28 28 28 28 28 28
14 14 14 14 14 13 13 11 10 11 11 12 13 14 15 16 17 19 20 21 22 22 23 23 24 25 25 26 27 27 27 28 28 29 29 29 28 28 28 28 28 29
15 15 15 15 15 14 13 12 12 12 12 13 13 14 15 17 18 19 20 21 22 23 24 25 25 26 27 27 28 29 29 29 29 29 30 30 30 29 29 29 29 29
16 16 16 16 15 15 14 14 13 13 13 14 14 15 16 17 18 19 20 21 22 23 24 25 26 27 28 29 30 30 30 31 30 30 30 31 31 31 30 30 31 31
17 17 17 17 16 16 15 15 15 14 14 15 16 17 17 17 18 19 20 21 22 23 25 26 27 29 30 31 32 33 33 33 33 33 33 33 33 33 33 33 33 34
18 18 17 17 17 17 16 16 16 16 16 17 17 18 18 19 20 20 22 23 24 25 26 28 29 30 31 33 34 36 36 37 37 37 37 37 37 37 36 36 36 36
18 18 18 18 17 17 17 17 17 17 18 19 19 20 20 21 22 23 24 25 26 28 29 30 31 33 34 35 36 38 39 39 40 40 40 40 39 39 39 39 38 37
18 18 18 18 18 18 18 18 19 19 20 21 21 22 22 23 24 25 26 27 29 30 31 33 34 35 36 37 38 39 40 41 41 42 42 42 42 42 41 41 40 39
18 18 18 18 18 19 19 19 20 21 22 22 23 24 24 25 25 26 28 29 31 32 33 34 35 36 37 38 38 39 40 41 42 42 43 43 44 44 44 43 42 41
18 18 18 18 18 19 20 20 21 22 23 24 24 25 25 26 26 28 29 31 32 33 34 34 35 35 36 37 38 38 39 40 41 41 42 43 43 44 44 45 44 44
18 18 18 18 18 19 20 21 22 23 24 24 25 25 25 26 28 29 30 31 32 33 33 33 33 34 34 35 36 36 37 38 38 39 40 41 42 42 43 44 44 44
17 17 17 17 18 19 20 21 22 23 24 24 24 25 26 27 28 29 30 30 31 31 31 31 31 31 31 32 32 33 33 34 35 36 37 38 39 40 40 41 42 43
16 16 17 17 18 19 20 21 22 22 23 23 24 25 26 27 27 27 28 28 28 28 28 28 28 28 28 28 28 29 30 30 31 32 33 33 35 36 37 38 39 40
15 16 16 17 17 18 19 20 20 21 22 22 23 24 24 24 24 24 24 24 24 24 24 25 25 26 27 27 27 28 29 30 31 31 32 32 33 34 35 36 37 38
14 14 15 16 16 17 17 18 19 20 20 20 21 21 21 21 21 21 21 21 21 21 22 22 23 24 26 27 28 28 29 30 31 32 32 33 34 34 35 35 36 37
12 13 13 14 14 15 16 16 17 17 17 17 17 17 17 17 17 17 17 18 18 19 20 21 22 23 24 26 27 27 28 29 29 30 32 33 34 35 35 36 36 37
11 11 12 12 13 13 13 14 14 14 14 14 13 13 13 13 14 15 15 17 18 19 21 21 23 24 25 25 26 27 28 29 30 31 31 32 33 35 36 37 38 38
10 10 10 10 10 10 10 10 10 10 10 10 10 10 11 12 13 15 16 18 19 20 22 23 24 25 26 26 27 28 29 29 30 31 32 33 34 35 36 37 38 39
8 8 7 7 7 7 7 7 6 6 7 8 9 10 11 13 14 16 18 19 21 22 23 24 25 26 27 27 28 29 30 30 31 32 33 34 35 36 37 38 38 38
5 5 4 4 4 4 3 4 5 6 7 8 9 10 12 14 16 17 19 20 22 23 24 25 26 27 28 29 29 30 31 32 32 33 34 35 36 37 38 39 40 39
3 2 1 1 1 3 4 5 6 6 8 9 10 12 14 15 17 18 20 22 23 25 26 27 28 28 29 30 31 32 32 33 34 35 35 36 37 38 39 40 41 41
0 1 3 4 4 5 5 5 6 7 9 10 12 13 15 16 18 20 21 23 24 26 27 28 29 30 31 32 33 33 34 35 35 36 37 37 37 38 38 39 40 41
4 5 6 6 6 5 5 5 7 8 9 11 13 14 16 17 19 21 22 24 25 27 28 30 31 32 33 33 34 34 35 36 36 37 37 37 37 38 38 38 38 38
8 9 8 7 5 4 5 6 7 9 10 12 14 15 17 18 20 21 23 24 26 27 28 30 31 32 33 34 35 35 36 36 37 37 38 38 39 39 38 38 36 35
9 9 7 6 5 4 6 7 9 10 12 13 14 16 17 19 20 22 23 24 25 26 28 29 31 32 34 35 36 36 37 37 37 38 39 40 40 40 40 39 37 35

ECMWFNIL_700_spd_102.txt.gz
Wind_Speed
18 17 17 18 18 17 17 17 17 17 17 17 15 14 14 14 14 15 15 16 17 17 18 19 19 19 20 20 21 22 23 23 24 25 25 26 26 26 26 26 27 26
19 18 18 19 19 19 19 18 18 18 18 17 16 15 15 15 15 16 16 17 18 18 19 19 20 20 21 21 22 23 24 25 26 26 27 27 27 27 27 27 27 27
20 19 19 20 21 21 20 19 18 18 19 18 17 16 16 16 17 17 17 18 18 18 19 19 20 21 22 23 24 25 26 27 27 28 28 28 29 29 29 29 29 29
20 20 21 21 22 22 21 20 19 19 19 18 18 18 17 17 18 18 19 19 19 19 19 20 21 22 24 25 26 27 28 30 31 31 32 32 32 31 31 31 31 31
21 21 21 22 22 22 21 20 20 20 19 19 19 19 19 19 19 20 20 20 20 20 21 22 23 24 26 27 29 30 31 33 34 35 36 37 37 36 35 35 34 33
21 21 21 22 22 21 21 21 20 20 20 20 20 20 20 21 21 21 21 21 22 23 24 25 26 27 29 30 32 33 35 36 37 38 39 39 39 39 39 39 38 37
22 21 21 21 21 21 20 20 20 20 20 21 21 21 22 22 23 23 23 24 25 26 27 28 29 30 32 34 35 36 37 38 38 39 39 39 40 40 40 40 39 39
21 21 21 21 20 20 20 20 20 20 20 21 21 22 23 23 24 24 25 26 28 29 29 30 32 33 34 36 37 38 38 38 39 39 38 38 39 39 39 40 40 39
20 20 20 20 19 19 19 19 20 20 21 21 22 23 23 24 24 25 26 28 29 30 30 32 33 34 35 36 36 37 37 37 37 37 37 37 37 37 37 37 38 38
19 19 19 18 18 18 19 19 20 20 20 21 22 22 23 24 25 26 28 29 29 30 31 32 33 33 34 34 33 33 33 33 33 33 33 33 33 33 33 33 34 35
17 17 17 17 17 18 18 19 19 20 20 21 21 22 23 24 26 27 28 28 29 29 30 30 31 30 29 29 28 27 27 27 27 28 28 29 29 29 30 30 31 32
16 16 16 16 17 17 17 18 18 18 19 20 21 22 23 24 25 26 26 27 27 27 27 26 24 24 23 23 23 24 24 25 25 26 27 27 28 29 29 30 31 31
15 15 15 15 15 16 16 16 17 17 18 19 20 21 22 22 23 24 24 24 23 22 21 19 19 20 21 21 22 23 24 24 25 26 26 27 28 29 29 30 31 32
14 14 14 14 14 14 14 15 15 16 17 17 18 19 20 20 20 20 19 18 17 17 17 18 18 19 19 20 21 22 23 24 25 25 26 26 27 28 29 30 31 32
13 13 13 13 13 13 13 13 13 14 14 15 16 16 17 17 16 14 14 14 15 16 17 18 18 19 19 20 21 22 23 24 25 26 26 27 27 28 29 30 31 31
12 12 11 11 11 11 11 11 11 12 13 13 14 13 12 11 11 11 12 13 14 15 16 18 18 20 21 22 22 23 24 25 26 27 27 28 28 29 30 30 31 32
11 10 10 9 9 9 9 9 10 11 11 11 10 8 8 8 9 10 11 13 14 15 16 18 19 21 22 23 23 24 25 26 26 27 28 28 29 30 30 31 32 33
9 8 8 8 9 9 9 9 10 9 7 6 5 6 6 8 9 10 11 13 14 15 17 18 20 21 22 23 24 25 26 26 27 28 28 29 30 31 31 32 33 33
12 10 8 9 9 9 8 7 6 4 3 4 4 5 6 8 9 10 11 13 14 16 17 19 20 21 22 23 25 25 26 27 27 28 29 30 31 32 33 33 34 35
13 10 7 6 6 5 4 2 2 2 2 3 4 5 6 8 9 10 12 13 15 16 18 19 20 22 23 24 25 26 27 28 29 30 30 31 32 33 34 35 36 37
8 5 3 2 2 1 1 3 3 2 2 3 4 6 7 8 9 11 12 14 15 17 18 19 20 22 23 24 25 27 28 29 30 31 32 33 34 35 36 36 37 38
4 3 2 2 2 4 5 4 3 1 2 3 4 6 8 9 10 11 13 14 16 17 18 19 21 22 23 24 26 27 29 30 30 31 32 33 34 35 35 36 37 38
4 4 4 5 6 6 5 3 1 1 2 3 5 6 8 9 11 12 14 15 16 17 19 20 21 22 23 24 26 27 29 30 31 32 32 33 33 34 35 35 36 36
6 6 7 8 7 5 3 2 1 2 3 4 5 7 9 10 12 13 14 16 17 18 19 21 22 23 24 25 26 28 29 30 31 32 32 33 33 34 34 35 36 36
8 9 9 8 6 4 2 1 1 2 3 5 6 8 10 11 12 14 15 16 17 19 20 21 22 23 25 26 27 28 29 30 31 32 33 34 35 35 36 36 37 38
10 10 9 7 5 3 2 1 1 2 4 5 7 9 11 12 13 14 15 16 18 19 20 22 23 24 25 26 27 28 30 31 32 33 34 35 36 37 37 38 39 40

ECMWFNIL_700_spd_105.txt.gz
Wind_Speed
18 19 20 20 20 20 20 20 21 20 20 20 20 19 19 19 18 17 17 17 17 18 18 19 19 19 19 20 20 21 21 22 23 24 25 26 26 27 28 28 29 29
20 21 22 22 22 22 22 22 22 22 22 21 21 21 20 19 19 18 18 18 19 19 20 20 20 21 21 22 23 24 24 25 26 27 28 29 30 31 32 32 32 32
21 21 22 23 23 23 23 24 23 23 23 22 22 21 21 20 20 20 20 20 20 21 21 22 22 22 23 24 25 26 27 28 30 31 32 33 34 35 36 36 36 35
21 22 22 23 24 24 25 25 24 24 23 23 22 22 21 21 21 21 21 21 21 22 23 24 24 25 26 27 28 30 30 32 33 34 35 36 37 37 37 37 36 36
22 23 23 24 25 25 25 25 25 24 23 23 22 22 22 21 21 21 21 22 23 24 25 26 26 27 28 30 31 32 33 34 35 37 37 38 37 37 36 35 35 35
22 23 24 24 25 25 24 24 24 23 23 23 22 22 22 22 22 22 22 23 24 25 26 27 28 29 30 32 33 34 35 36 37 37 37 36 35 34 33 32 32 31
23 23 23 24 24 24 23 23 23 23 22 22 22 21 22 22 22 23 23 24 25 26 27 28 30 31 32 33 34 35 36 36 35 34 32 31 30 30 29 29 28 29
23 24 23 23 23 23 22 22 22 22 21 21 21 21 21 22 22 23 24 25 26 27 28 29 30 31 32 33 33 33 32 30 28 27 26 26 26 27 27 27 27 27
22 22 21 21 22 21 21 21 20 20 20 20 21 21 21 22 22 22 23 24 26 27 28 29 30 31 31 30 29 27 26 24 24 24 25 25 26 27 27 28 28 28
20 20 19 19 20 20 19 19 19 19 19 19 19 20 20 20 21 22 23 24 25 26 27 28 28 27 26 24 23 23 23 23 24 25 26 26 26 27 27 28 29 29
18 18 18 18 18 18 18 18 18 18 18 18 18 18 18 19 20 20 21 23 24 24 25 24 23 22 21 21 21 22 23 24 25 25 25 26 26 27 27 28 29 30
17 16 16 16 16 16 17 17 17 17 17 17 17 17 17 17 18 18 19 20 20 20 20 19 19 19 20 21 21 22 23 23 24 24 24 24 25 26 27 27 28 29
16 15 15 15 15 16 16 16 16 16 15 15 15 15 15 15 15 16 16 16 16 15 15 16 17 19 20 20 21 21 22 22 23 23 24 24 25 25 26 27 28 29
15 14 14 14 15 15 15 15 15 14 14 13 13 13 12 12 12 12 12 12 12 13 14 15 16 17 18 19 20 20 21 22 22 23 24 24 25 26 27 28 28 29
13 13 14 14 14 14 13 13 12 12 11 10 10 10 9 9 9 9 9 10 11 12 13 14 15 16 17 18 19 20 21 21 22 23 24 24 25 26 27 28 30 30
13 13 13 13 14 13 12 10 9 8 7 7 7 7 7 7 7 8 9 10 11 12 13 14 14 15 16 17 18 19 20 21 22 23 24 25 26 27 28 29 30 31
12 12 13 13 13 11 9 6 5 4 5 6 7 6 6 6 7 8 9 10 11 11 12 13 14 15 16 17 18 19 21 22 22 23 24 26 27 27 28 29 30 31
12 12 12 11 9 8 7 7 5 5 4 4 3 3 4 5 6 7 8 9 10 11 12 13 14 16 17 18 19 20 21 22 23 24 25 26 27 27 28 29 29 30
13 12 12 10 9 10 10 8 5 2 2 2 1 1 2 4 5 6 7 9 10 11 12 13 15 16 17 18 19 20 21 22 23 24 25 26 27 28 29 30 30 30
12 12 13 12 11 9 7 5 4 5 5 3 1 1 2 3 5 6 7 9 10 11 13 14 15 16 18 19 20 20 21 22 23 24 26 27 28 29 30 30 31 32
10 10 10 9 6 6 7 8 7 6 3 2 1 1 2 4 5 6 7 9 10 11 13 14 15 17 18 19 20 21 22 23 24 25 26 27 28 29 30 31 32 33
8 7 7 7 8 9 9 8 6 4 3 2 1 2 3 4 6 7 8 9 10 12 13 14 16 17 18 19 20 21 22 23 24 25 26 27 28 30 31 32 32 33
7 8 8 9 9 10 9 7 5 3 2 2 1 2 3 5 7 8 9 10 11 12 13 14 15 17 18 19 20 21 22 23 24 25 26 28 29 30 32 32 33 34
9 9 10 10 10 9 7 5 4 4 3 2 2 3 4 6 7 8 9 10 11 12 13 14 15 16 18 19 20 21 21 23 24 25 26 28 29 30 31 32 33 35
10 11 11 12 10 8 7 5 5 4 3 2 3 4 5 7 8 9 10 10 11 12 13 14 15 16 17 18 19 20 21 23 24 25 26 27 29 30 31 32 34 35
12 12 13 12 10 8 7 5 4 3 2 2 4 5 6 8 9 9 10 11 11 12 13 14 15 16 17 18 19 20 21 23 24 25 26 27 29 30 31 32 34 36

ECMWFNIL_700_spd_108.txt.gz
Wind_Speed
16 17 17 18 18 19 20 20 20 20 19 19 20 20 20 20 19 19 19 18 18 17 17 17 18 18 19 20 21 21 22 24 25 27 28 29 31 32 33 35 36 36
18 18 19 19 19 20 21 21 21 21 21 20 21 21 21 21 20 20 20 19 19 19 18 19 19 20 21 22 22 23 24 26 28 29 31 32 33 34 36 37 37 36
17 17 18 18 19 20 20 20 21 21 21 21 21 21 21 21 21 21 21 20 20 20 20 20 20 21 22 23 24 25 26 28 30 31 33 33 34 35 36 35 34 32
17 17 18 18 19 19 19 20 21 21 21 21 21 21 21 21 21 21 21 21 21 21 21 21 22 22 23 24 25 26 28 30 31 32 33 33 33 33 31 30 29 28
16 16 17 18 18 19 20 20 21 21 21 21 21 21 21 21 21 21 21 21 21 21 22 22 22 23 24 25 26 27 29 30 31 31 31 30 30 28 27 27 27 27
15 16 16 17 18 19 19 20 20 20 20 21 20 20 20 21 21 21 21 21 21 21 21 22 22 23 24 25 27 28 29 29 29 28 28 27 26 26 26 27 27 28
16 16 17 18 18 19 19 19 19 19 19 20 20 20 20 20 20 20 20 20 20 21 21 21 22 23 24 25 26 27 26 26 26 25 26 26 26 27 27 27 28 28
17 17 18 18 19 19 18 18 18 18 18 18 18 19 19 19 19 19 20 20 20 20 21 21 21 22 23 24 24 23 23 23 24 24 25 26 26 27 27 28 28 28
17 17 18 18 18 18 17 17 17 17 17 18 18 18 18 19 19 19 19 19 19 19 19 20 20 20 21 21 21 21 22 23 23 24 25 26 27 27 28 28 28 28
17 17 18 18 17 17 16 16 16 16 17 17 17 17 17 17 18 17 17 18 18 18 17 17 17 18 18 19 20 21 22 23 24 25 25 26 26 27 27 27 27 28
17 17 17 17 16 16 15 15 15 15 15 15 16 16 16 16 16 16 16 16 16 15 15 15 16 17 18 19 20 21 22 23 23 24 24 24 25 25 26 26 27 27
17 17 16 16 15 14 14 14 14 14 14 14 15 14 14 14 14 14 13 13 13 13 13 14 16 17 18 19 20 21 22 22 22 23 23 24 24 25 26 26 27 27
17 16 16 15 14 13 13 13 13 13 14 14 14 13 12 12 11 10 10 11 12 13 14 15 16 17 18 19 20 21 21 21 22 22 23 23 24 24 25 26 27 28
16 16 15 14 13 13 13 13 13 14 14 13 12 10 9 8 8 8 9 10 12 13 14 16 17 18 18 19 19 20 20 21 21 22 22 23 23 24 25 26 28 29
15 14 14 13 13 12 12 12 12 12 11 10 8 7 6 6 7 9 10 11 11 12 13 14 15 16 17 17 18 19 19 20 20 21 22 22 23 25 26 27 28 29
14 14 13 12 12 11 11 10 10 9 7 6 5 5 6 8 9 9 9 9 9 10 11 12 13 14 15 16 17 18 19 20 20 21 22 23 23 25 26 27 28 29
13 13 12 11 10 10 9 8 7 6 5 5 7 9 9 8 7 6 6 7 8 10 11 12 13 14 15 16 17 18 19 20 21 22 22 23 24 25 26 27 28 29
12 11 10 10 9 8 7 6 6 6 7 10 11 9 7 5 4 5 6 7 9 10 11 12 13 14 15 16 17 18 19 20 21 22 23 24 24 25 26 27 27 28
11 10 9 8 7 7 7 7 8 10 10 9 6 4 3 3 4 5 6 8 9 10 11 12 13 13 14 15 17 18 19 20 21 22 23 24 25 25 26 27 28 28
10 9 9 7 7 8 8 9 9 7 4 2 1 2 3 3 4 6 7 8 9 10 11 12 12 13 14 16 17 18 19 20 21 22 23 24 25 26 26 27 28 28
10 9 9 8 8 8 7 6 5 4 3 3 2 3 3 4 5 6 8 9 10 10 11 12 12 14 15 16 17 18 19 20 21 22 23 24 25 26 26 27 28 28
9 9 8 7 7 6 6 6 5 5 4 4 4 3 3 4 5 7 8 9 10 10 11 12 13 14 15 16 17 19 19 20 21 22 23 24 25 25 26 27 28 29
9 8 7 7 7 7 7 7 7 6 5 4 4 4 4 5 6 7 8 9 10 11 11 12 13 14 15 16 17 18 19 19 21 22 23 24 24 25 26 27 28 29
9 8 8 8 9 9 9 9 8 7 5 5 4 4 4 5 6 7 8 9 10 11 11 12 13 14 15 16 17 17 18 19 20 22 23 23 24 25 27 28 28 30
9 9 10 10 10 11 11 10 8 7 6 5 4 4 4 5 6 7 8 9 10 11 11 12 13 14 15 16 16 17 18 19 20 21 22 23 24 25 26 28 29 30
10 11 11 12 12 12 11 9 8 7 6 5 4 4 5 6 7 7 8 9 9 10 11 12 12 13 14 15 16 16 17 18 20 21 22 23 24 25 26 27 28 30

ECMWFNIL_700_spd_111.txt.gz
Wind_Speed
9 9 10 10 11 12 13 14 15 15 17 18 19 19 19 19 20 21 21 21 20 19 19 18 17 17 17 17 18 18 19 20 21 22 24 26 27 29 30 30 31 31
10 10 11 11 12 13 14 15 15 16 17 18 19 19 19 19 20 20 20 20 20 19 19 18 18 18 18 18 19 19 20 21 22 23 25 27 28 29 29 29 29 27
11 11 11 12 12 13 14 15 16 17 17 18 18 18 19 19 19 19 19 19 19 19 18 18 18 18 18 19 19 20 20 21 22 24 25 26 27 27 27 28 27 25
12 12 12 12 13 13 14 15 17 17 18 18 18 18 18 18 18 18 18 18 18 18 18 17 18 18 18 19 19 20 20 21 22 23 24 25 25 26 26 26 25 25
13 13 13 13 13 14 14 15 16 16 17 17 17 17 17 16 16 17 16 17 17 17 17 17 17 17 18 18 18 19 19 20 21 22 23 23 24 24 24 25 25 26
11 12 12 12 12 13 13 13 14 15 15 15 15 15 15 15 15 15 15 15 16 16 16 16 16 16 17 17 17 17 18 19 19 21 22 22 23 24 24 24 25 26
10 11 11 11 12 12 12 13 13 14 14 13 14 14 14 13 13 14 14 14 14 15 15 15 15 15 15 15 15 16 17 18 19 20 21 22 22 23 24 25 25 26
9 11 11 12 12 12 12 13 13 13 12 12 12 12 12 12 12 13 13 13 13 13 13 13 13 13 13 13 14 15 16 17 18 19 20 21 22 23 23 24 25 26
10 11 12 12 12 12 12 12 12 12 12 12 11 11 11 11 11 12 12 12 12 11 11 11 11 11 11 12 13 14 16 17 18 19 20 21 22 22 23 24 25 26
13 13 13 13 12 12 12 12 12 11 11 11 11 10 10 10 11 11 11 10 10 9 9 8 9 10 11 12 13 14 16 17 18 19 20 21 22 23 23 24 25 26
16 15 14 13 12 11 11 11 10 10 10 10 10 10 10 10 10 9 9 9 8 7 7 8 9 10 11 12 13 14 15 17 18 19 20 22 23 24 24 25 25 26
18 17 14 12 11 11 10 10 10 10 10 10 9 9 9 9 9 8 7 6 6 6 8 9 10 10 11 12 13 15 16 17 18 19 21 22 23 24 25 26 26 26
18 16 14 12 11 10 10 10 10 9 9 9 9 9 8 8 7 6 5 5 7 8 9 10 10 10 11 12 13 15 16 17 19 20 22 23 24 25 26 26 27 27
18 15 12 11 10 10 10 10 10 9 9 9 8 7 7 6 5 4 5 7 9 9 9 9 10 11 12 13 14 15 16 18 19 21 22 24 25 25 26 26 27 27
16 13 11 10 10 10 10 9 9 9 9 9 7 6 5 4 5 6 8 8 7 7 8 9 10 11 12 13 14 16 17 18 19 21 22 24 24 25 26 26 27 27
14 11 10 10 9 9 9 9 9 9 8 7 6 5 5 6 7 8 6 6 6 7 9 10 10 12 12 14 15 16 17 19 20 21 22 23 24 25 25 26 27 27
12 10 10 9 8 9 9 9 9 8 7 6 6 7 8 8 6 4 3 4 6 7 9 10 11 12 13 14 15 16 18 19 20 21 21 22 23 24 25 26 27 28
11 10 9 9 9 9 9 8 7 6 6 7 8 8 6 4 2 2 3 5 6 8 9 10 12 13 14 15 16 17 18 19 20 21 21 22 23 24 25 26 26 27
10 10 10 9 9 9 8 7 6 6 7 8 7 4 2 2 1 2 4 6 7 9 10 11 12 13 14 15 16 16 18 19 20 21 21 22 23 24 25 25 26 26
10 10 10 10 9 9 7 7 7 7 7 6 4 4 3 1 1 3 5 7 8 10 11 12 13 13 14 14 15 16 17 19 20 21 21 22 23 24 24 25 25 25
11 11 10 10 9 9 8 8 7 7 7 6 5 4 2 1 2 4 6 7 9 10 11 12 12 13 13 14 15 16 18 19 20 20 21 22 22 23 23 24 24 24
11 11 10 10 10 9 9 8 8 8 7 6 5 3 2 1 3 5 6 8 9 10 11 12 12 12 13 14 15 16 18 19 19 20 21 21 22 22 22 23 24 24
11 10 9 10 10 10 9 9 9 8 7 6 5 3 1 2 4 6 7 8 9 10 10 11 12 12 13 14 15 16 17 18 18 19 20 21 22 22 22 23 24 24
10 9 9 10 10 10 10 9 9 8 7 6 4 2 2 3 5 6 8 9 9 10 10 11 11 12 13 14 15 16 16 17 17 18 20 21 22 22 23 23 24 25
9 9 9 10 10 10 9 9 9 8 7 5 4 2 2 4 5 7 7 8 9 9 10 11 11 12 13 14 14 15 15 16 17 17 19 20 21 22 23 23 24 25
9 9 10 10 9 9 9 9 9 8 7 5 4 3 3 4 6 7 8 8 8 9 9 10 11 12 12 13 13 14 14 15 16 17 18 19 20 21 22 22 23 24

ECMWFNIL_700_spd_114.txt.gz
Wind_Speed
13 12 12 11 10 10 10 11 12 14 16 16 16 15 15 15 15 15 15 15 15 16 16 16 16 16 16 17 17 17 18 19 19 20 20 21 21 21 21 22 24 25
13 12 11 10 11 12 13 13 14 15 16 16 15 15 15 15 15 15 15 15 15 15 16 16 16 16 17 17 17 18 19 19 20 20 20 20 20 21 21 22 23 24
13 11 11 11 12 14 15 15 16 16 16 16 15 15 15 15 14 14 14 14 15 15 16 16 16 16 17 17 18 18 19 19 19 20 20 19 19 20 20 21 22 23
12 12 12 13 14 15 16 16 17 16 16 16 16 15 15 14 13 13 14 14 14 15 15 15 16 16 17 18 18 19 19 19 18 18 18 18 18 19 20 21 21 21
13 13 13 15 16 17 17 17 17 16 16 16 15 14 14 13 12 13 13 13 14 14 15 15 16 16 17 18 18 18 18 17 17 16 16 16 17 18 19 20 20 21
13 14 14 15 16 16 17 16 16 15 15 14 14 13 12 11 11 12 12 13 13 14 14 15 16 16 17 18 17 17 16 15 15 15 15 15 16 17 19 20 21 22
13 13 13 14 14 15 15 15 15 14 13 13 12 12 11 11 11 11 12 12 13 14 15 15 16 16 16 16 15 15 14 14 14 13 14 15 16 18 19 21 22 23
11 10 10 10 12 13 14 14 14 13 13 12 11 10 10 10 11 11 11 12 13 14 14 15 15 15 14 13 13 13 13 13 12 13 14 16 17 18 20 21 22 23
11 9 8 9 10 12 13 14 14 13 12 11 9 9 10 10 10 10 11 12 13 13 14 14 13 12 11 11 11 12 12 12 12 13 15 16 17 18 20 21 22 23
13 11 10 11 12 13 13 14 14 13 11 9 8 9 9 9 9 10 11 12 12 12 12 11 10 9 10 10 11 11 11 12 12 13 15 16 17 18 19 21 22 23
14 13 12 13 14 14 14 14 14 11 9 8 8 8 8 9 9 10 10 11 11 10 9 8 8 9 10 10 10 11 11 12 13 14 15 16 17 18 19 21 22 23
15 14 13 14 14 14 14 14 11 8 7 7 8 7 8 9 9 9 9 9 8 7 7 8 9 9 9 9 10 10 11 12 13 15 16 17 18 19 20 21 23 24
15 14 13 14 14 14 14 11 9 6 5 7 8 8 8 8 8 8 8 7 6 6 8 8 9 8 9 9 10 11 12 13 14 16 17 18 19 20 21 22 23 24
13 13 13 14 14 13 12 9 7 5 5 8 9 8 7 7 7 6 6 6 7 8 8 8 7 8 8 9 10 11 12 13 15 16 18 19 20 21 21 22 22 24
12 12 12 13 13 12 10 8 6 5 6 8 8 7 6 6 6 6 6 8 8 7 7 6 7 7 8 9 10 12 12 13 15 17 19 20 20 21 21 22 22 24
12 11 11 12 12 11 9 7 6 6 7 8 6 6 6 6 6 8 8 8 6 6 6 6 7 8 9 10 11 12 13 14 15 17 19 19 19 20 21 22 23 24
11 11 11 12 12 10 8 7 6 6 7 7 6 6 7 7 8 9 7 6 5 5 5 6 7 8 9 10 11 12 13 14 15 16 17 18 19 20 21 22 23 24
11 11 12 12 11 9 7 6 6 6 7 6 6 8 9 9 8 6 5 5 4 5 6 7 8 8 9 10 11 12 13 14 15 16 16 17 19 20 21 22 23 24
11 12 12 12 10 8 7 6 6 6 7 8 8 9 9 8 6 6 5 4 4 5 6 7 8 9 9 11 11 13 13 14 14 15 16 17 19 20 21 22 23 24
12 12 12 10 9 8 7 7 7 8 9 9 9 9 8 7 7 5 4 4 4 5 6 7 8 9 10 11 12 12 13 13 14 15 16 17 18 20 21 22 23 23
12 12 11 9 8 8 8 8 8 9 10 10 9 9 9 8 6 5 4 4 4 5 6 7 8 9 10 11 12 12 13 13 14 15 16 17 18 19 20 21 22 23
12 11 10 9 9 9 9 9 10 10 10 10 10 10 9 7 6 5 4 4 5 5 7 8 8 9 10 11 11 12 13 13 14 14 15 16 17 19 20 21 21 22
12 11 10 9 9 9 10 10 11 11 11 12 12 10 8 7 6 4 4 4 5 6 7 8 8 9 9 10 10 11 12 13 14 14 15 16 17 18 19 20 21 22
12 11 10 9 10 10 11 12 12 12 13 13 12 10 9 7 5 4 4 4 5 6 7 7 8 8 8 9 10 11 12 13 14 14 14 15 17 18 18 20 21 22
12 11 10 10 11 12 13 14 14 14 14 13 12 10 8 7 5 4 4 4 5 6 7 7 7 8 8 8 9 10 11 12 13 14 15 16 16 17 18 19 21 22
12 11 10 11 13 14 15 16 16 16 14 13 12 10 8 6 5 4 4 4 5 5 6 6 6 6 7 7 8 10 10 11 12 13 14 15 16 17 18 19 20 22

ECMWFNIL_700_spd_117.txt.gz
Wind_Speed
13 13 12 12 11 11 10 10 10 10 11 12 13 14 14 16 16 16 17 17 18 19 19 20 20 19 19 19 18 18 18 19 20 21 22 23 23 24 24 24 24 25
13 12 12 12 12 11 10 10 11 12 13 14 14 14 15 16 17 17 18 19 19 20 20 20 19 18 18 18 18 18 18 19 20 21 22 23 23 23 23 23 24 25
13 12 13 12 12 11 10 11 12 13 14 14 14 15 16 17 18 19 20 20 20 20 20 19 18 17 17 17 18 18 19 20 21 22 22 22 22 22 22 23 24 24
14 14 14 13 11 11 11 12 13 13 14 14 15 16 18 18 19 20 20 20 19 18 18 18 17 17 17 17 17 18 19 20 21 21 22 22 22 22 22 23 23 24
15 14 13 12 11 11 12 12 13 13 14 15 16 17 18 19 20 20 19 18 17 17 17 17 16 16 16 17 17 18 19 20 20 21 21 21 21 21 22 22 22 23
14 13 12 11 11 11 11 12 12 13 14 15 16 17 19 19 19 18 17 16 16 16 16 16 15 16 16 17 17 18 18 19 20 20 20 21 21 21 21 21 22 23
12 11 11 10 10 10 10 11 12 13 14 15 16 17 18 18 17 17 16 16 15 15 15 15 15 15 16 16 17 17 18 18 19 19 20 20 20 19 20 21 22 23
11 10 10 9 8 8 9 10 12 13 14 15 15 16 17 17 17 16 15 15 14 14 14 14 15 15 15 16 16 16 17 18 18 19 19 18 18 18 20 21 22 24
10 9 9 8 7 6 6 8 10 12 14 15 15 16 16 16 16 15 15 14 13 13 13 13 14 14 14 14 14 15 17 17 17 17 17 16 17 19 20 22 23 24
11 11 10 9 8 7 7 9 11 13 14 15 16 16 15 15 15 15 14 13 12 12 12 13 13 12 12 13 14 16 17 16 15 15 15 16 17 19 20 22 23 24
14 14 13 12 10 9 9 11 13 14 15 16 16 15 14 14 14 14 13 12 11 11 12 11 11 11 12 13 14 15 15 14 13 14 15 16 18 19 20 21 22 23
17 17 16 15 13 12 11 13 14 16 16 16 15 14 13 13 13 12 11 11 10 10 10 10 10 11 13 13 13 13 13 12 13 14 15 16 18 19 20 21 22 23
20 19 18 17 15 13 13 14 15 15 15 15 14 13 13 12 11 10 10 10 9 9 9 10 11 12 12 11 11 12 12 12 13 14 15 16 18 19 21 21 22 22
19 18 17 16 14 13 13 14 14 15 14 14 13 13 11 10 10 9 9 8 8 8 10 11 11 10 10 10 11 11 12 12 13 14 15 16 17 19 20 21 21 22
18 17 16 14 13 13 14 14 14 14 14 13 12 11 10 9 9 9 8 8 8 9 10 10 9 9 9 10 10 11 12 13 14 14 15 16 17 18 19 20 21 22
18 16 15 14 13 14 14 14 14 14 13 11 11 10 9 9 9 9 8 9 9 10 9 8 8 8 9 9 10 11 12 14 14 15 16 16 17 17 17 19 20 22
18 17 16 16 15 15 14 14 14 13 12 11 10 10 9 9 9 9 9 9 9 9 8 8 8 8 8 9 10 11 12 13 14 15 15 16 17 17 17 18 20 21
19 18 19 19 17 16 15 15 14 12 11 10 10 10 9 9 9 9 10 9 8 8 8 8 8 8 8 9 10 11 12 13 14 14 15 15 16 16 17 19 20 21
20 20 21 19 17 16 15 14 13 12 10 10 10 10 9 10 10 10 9 9 8 8 7 7 7 8 8 9 10 11 12 13 13 14 14 15 16 17 18 19 21 22
23 23 21 19 17 17 15 14 13 11 10 11 11 11 10 10 10 9 9 9 8 7 7 6 7 8 8 9 10 11 12 12 13 13 14 14 16 17 18 20 20 21
25 24 22 19 18 16 14 13 12 11 11 11 11 11 11 11 10 10 10 9 8 7 6 6 7 8 9 9 9 10 11 11 12 12 13 14 15 17 18 19 20 20
22 21 20 17 16 15 13 13 12 11 12 12 12 12 11 11 11 11 10 8 7 6 6 6 7 8 9 9 9 9 10 11 11 12 13 14 16 17 18 19 19 20
20 17 17 15 14 14 13 13 13 12 13 14 13 12 11 11 12 11 9 8 6 6 6 7 8 8 9 8 8 8 9 10 11 12 13 14 15 16 17 18 18 19
20 16 16 15 14 13 13 13 13 14 14 15 14 13 13 13 12 11 9 7 6 6 7 7 8 9 8 8 8 8 8 9 10 11 12 14 15 16 16 17 18 19
20 17 17 16 15 14 14 14 14 15 16 15 14 15 15 14 13 11 9 7 7 6 7 8 8 8 8 7 8 8 8 9 10 11 12 13 14 15 16 16 18 19
20 18 18 17 15 15 16 16 15 16 16 15 15 16 16 14 12 10 9 7 7 7 7 8 8 7 7 7 7 7 8 8 9 10 12 13 14 14 15 16 18 19

ECMWFNIL_700_spd_120.txt.gz
Wind_Speed
13 11 10 10 10 10 9 8 7 7 8 8 8 8 9 9 10 11 13 14 15 16 16 17 18 18 19 19 19 20 20 21 21 21 21 21 21 22 22 22 23 23
11 9 9 10 10 10 9 8 8 8 9 9 10 10 10 10 11 13 14 15 16 16 17 17 18 19 19 19 20 20 20 21 21 21 21 20 21 21 22 22 23 23
11 10 10 10 10 10 9 9 9 10 10 10 11 11 11 11 13 14 15 15 16 17 17 17 18 19 19 19 20 20 20 20 20 20 20 20 20 21 21 22 22 23
13 12 11 11 10 10 10 9 10 10 11 11 11 11 12 13 14 14 15 16 16 17 17 17 18 18 19 19 19 19 19 19 19 19 19 19 20 20 21 22 22 23
14 13 11 11 11 10 10 9 10 10 10 11 11 12 13 13 14 14 15 15 16 16 16 16 17 17 18 19 19 19 18 18 18 18 18 19 20 20 21 22 22 22
13 13 12 11 11 10 9 9 9 9 10 11 11 12 12 13 13 14 14 15 15 15 15 16 16 17 18 18 18 18 17 17 17 17 18 19 20 21 21 21 21 22
13 13 12 12 11 10 9 9 8 9 10 11 11 12 12 13 13 14 14 14 14 14 14 15 16 16 17 17 17 16 16 16 16 17 19 20 20 20 20 20 21 22
13 13 12 12 11 9 8 7 7 8 9 10 11 12 12 13 14 14 14 14 14 13 13 14 15 16 16 16 15 15 15 16 17 19 19 20 19 19 18 19 21 22
14 13 12 11 10 9 8 7 7 7 8 9 11 12 13 14 14 14 14 13 13 13 13 14 15 15 15 14 14 14 16 17 18 19 19 18 18 18 18 20 21 22
15 13 12 10 10 9 8 7 7 8 9 11 12 13 14 14 13 13 13 12 12 13 13 14 14 13 13 13 13 15 17 18 18 17 17 16 16 17 19 20 22 22
15 13 11 11 11 10 8 8 9 10 11 12 14 15 14 13 13 13 12 12 12 13 13 13 12 12 12 13 14 16 16 16 16 15 15 15 16 18 19 21 22 22
15 13 13 13 12 11 11 11 12 13 14 15 15 15 14 13 13 12 12 12 12 12 12 11 11 11 12 14 15 15 15 14 14 14 14 15 17 18 19 20 21 21
16 15 15 15 15 15 14 14 15 16 16 16 16 15 14 13 13 12 12 12 12 12 11 10 10 11 13 14 14 13 13 13 13 13 14 15 17 18 19 19 20 20
18 17 18 18 18 18 17 17 18 18 18 17 16 15 14 13 12 12 13 12 11 10 10 10 11 12 13 12 12 12 12 12 12 13 14 15 17 18 19 19 19 19
20 19 19 19 19 19 20 20 20 20 20 18 16 15 14 13 13 13 12 12 11 10 10 11 12 12 11 11 11 11 11 11 12 13 14 15 16 18 18 19 18 19
21 20 20 19 19 20 21 22 22 21 20 18 16 15 14 13 13 12 12 11 11 11 11 11 11 10 10 10 10 10 11 11 12 13 14 15 16 17 17 18 18 19
22 21 21 20 21 22 23 23 23 23 21 18 16 15 14 13 13 12 11 11 11 11 11 10 9 8 9 10 10 10 10 11 12 13 14 14 15 16 16 16 17 18
23 23 23 23 23 24 25 25 25 24 22 18 17 16 15 14 13 12 12 12 12 11 10 9 8 8 8 9 9 10 10 11 12 13 13 14 14 15 15 15 16 17
26 25 25 26 26 27 28 28 27 25 21 18 17 16 15 14 12 12 13 13 12 10 9 8 7 7 7 8 9 10 10 11 12 12 13 13 13 14 14 14 15 16
28 27 27 27 28 29 29 29 28 24 20 18 17 17 15 14 13 13 13 12 11 9 8 7 7 7 7 8 9 9 10 11 11 11 12 12 13 13 13 13 14 15
29 29 29 30 31 30 28 29 28 23 19 18 17 16 15 14 14 13 13 12 11 9 8 7 6 6 7 8 9 10 10 10 10 11 11 12 12 12 12 13 14 14
32 32 31 30 28 25 23 25 25 20 17 17 17 15 15 14 13 13 12 11 11 9 8 6 6 6 7 8 9 9 9 9 10 10 10 11 11 11 12 13 13 14
33 32 31 28 24 20 19 20 19 16 16 17 17 16 15 14 13 13 13 12 11 9 7 6 6 6 7 8 9 9 9 9 9 9 9 10 9 10 11 12 12 13
26 26 26 26 22 19 19 19 18 17 18 18 17 17 16 15 14 14 14 13 11 9 7 7 6 7 7 8 9 8 8 8 8 8 8 8 8 9 10 10 11 12
21 20 22 21 19 19 20 20 19 19 18 19 18 17 16 15 15 15 15 13 10 9 8 7 7 7 7 7 8 8 7 7 7 7 7 7 8 8 9 9 11 13
21 20 20 18 18 21 22 21 20 19 19 19 18 17 16 16 16 16 14 12 11 9 8 8 7 7 7 7 7 7 6 6 6 6 6 6 6 7 8 9 11 13

ECMWFNIL_700_spd_123.txt.gz
Wind_Speed
14 15 17 16 15 15 16 16 14 12 11 9 9 9 7 6 7 7 8 8 8 9 9 10 10 11 12 13 13 14 14 15 15 16 16 16 16 16 17 18 19 20
16 16 17 16 15 15 16 15 13 11 10 10 10 9 7 7 7 8 8 8 8 9 9 10 11 12 12 13 14 14 14 14 15 15 15 16 16 16 17 19 20 21
15 17 17 17 17 17 17 15 12 11 10 10 10 9 8 8 8 8 8 8 8 9 10 11 12 12 13 13 13 14 14 14 15 15 16 16 16 17 18 19 20 20
12 17 19 18 17 17 15 13 11 10 10 10 10 9 8 9 8 8 8 8 9 10 10 11 12 12 13 13 13 14 14 15 15 15 15 15 17 18 19 19 19 19
11 16 18 16 15 15 12 11 10 10 9 10 10 9 9 9 8 7 8 8 9 10 11 11 12 12 12 12 13 14 14 14 14 14 15 16 17 18 18 18 18 18
12 14 15 13 13 12 11 10 10 9 10 10 10 10 9 8 8 8 8 9 10 10 11 11 11 12 12 12 13 13 13 13 13 14 15 16 17 17 16 17 17 19
12 13 13 12 11 11 10 10 10 10 11 10 9 9 8 8 8 9 9 9 10 11 11 11 11 12 12 12 12 12 12 12 13 14 15 16 16 16 16 17 18 19
13 13 12 11 11 11 11 11 11 11 11 9 8 7 8 8 9 9 9 10 10 11 11 11 12 11 11 11 11 11 11 11 13 15 15 15 15 15 16 16 18 19
13 13 13 13 12 13 13 12 12 12 10 8 7 7 8 9 9 9 10 10 10 11 11 11 11 11 11 10 10 10 10 12 14 14 14 14 14 15 15 16 18 19
14 14 14 14 14 14 14 13 13 11 9 7 7 8 9 9 10 10 10 10 11 11 11 11 10 10 10 9 9 10 11 13 13 13 13 13 14 14 15 16 18 19
15 15 15 16 15 15 14 14 13 10 8 8 8 9 11 11 11 11 11 11 11 11 11 10 9 9 9 9 9 11 12 12 12 12 12 12 13 14 15 16 17 18
16 17 17 17 16 15 15 14 12 10 9 10 10 12 13 13 12 11 11 11 11 11 10 9 8 8 9 9 10 11 11 11 11 11 11 12 12 13 14 15 17 18
18 18 18 18 17 16 15 14 13 12 12 12 13 14 15 14 13 12 12 12 11 10 9 8 8 8 9 9 10 10 10 10 10 10 11 11 12 13 14 15 16 17
20 20 19 19 18 17 16 16 15 15 15 15 16 17 17 16 14 13 13 12 11 10 9 9 9 9 9 10 10 9 9 9 9 10 10 11 11 12 14 15 16 17
21 21 21 21 20 19 19 19 18 18 18 18 18 19 18 17 15 14 13 12 11 10 9 9 9 9 9 9 9 9 9 8 8 9 10 10 11 12 13 15 15 16
23 23 23 22 22 21 21 21 20 20 20 20 21 21 19 17 15 14 13 12 11 10 10 10 10 10 10 9 8 8 8 8 8 8 9 10 11 12 13 14 15 15
23 23 23 23 23 23 22 22 22 22 22 22 23 22 19 17 15 14 14 13 12 11 11 11 10 10 9 8 8 8 7 7 7 8 8 9 10 11 12 13 14 14
24 24 24 24 24 23 23 23 23 23 23 23 24 23 20 17 16 14 14 13 13 13 12 11 11 10 9 8 8 7 7 7 6 7 8 8 9 10 11 12 12 13
25 25 25 25 24 24 24 24 24 24 24 24 25 23 20 18 16 14 14 14 15 14 13 12 11 10 9 8 7 7 7 6 6 6 7 8 8 9 10 10 11 11
25 25 25 25 25 26 26 25 26 26 25 25 25 24 23 22 19 16 15 16 16 15 14 13 11 10 8 8 7 7 6 5 5 6 6 7 8 8 9 9 9 10
26 26 26 26 26 27 27 27 28 27 26 25 24 23 25 25 20 16 18 18 17 15 14 13 11 10 9 8 7 6 5 5 5 5 6 6 7 7 8 8 8 9
26 26 26 26 26 28 29 30 28 24 23 24 23 21 22 21 17 17 19 20 18 16 14 13 11 10 9 8 7 5 4 4 5 5 5 6 6 6 6 6 7 7
26 26 26 26 26 28 30 31 27 21 19 21 21 19 20 20 18 19 21 20 18 16 14 13 11 11 10 8 6 5 4 4 5 5 5 5 5 5 5 5 6 6
27 26 26 26 26 27 30 29 24 20 19 19 18 19 21 22 21 21 21 20 17 15 14 13 12 11 10 8 6 5 4 4 5 5 4 4 4 4 4 4 5 5
27 26 26 26 25 25 25 23 20 19 18 18 19 20 21 22 22 22 21 20 17 16 14 13 13 12 10 8 6 5 5 5 5 5 4 4 4 4 3 3 4 4
28 26 26 25 22 21 20 20 19 18 18 19 20 20 21 22 23 23 22 19 17 16 15 14 13 12 10 8 7 6 6 6 5 5 4 4 4 3 2 3 3 3

ECMWFNIL_700_spd_126.txt.gz
Wind_Speed
13 15 16 16 18 21 22 20 17 18 18 16 16 15 13 12 11 11 11 11 10 9 9 9 8 8 8 8 7 7 7 8 8 9 10 10 10 10 10 12 13 14
13 14 14 15 19 20 20 20 19 19 18 17 16 15 13 11 11 11 11 11 10 9 9 9 8 8 7 7 7 7 7 7 8 9 9 9 9 10 12 13 14 15
14 15 16 18 19 18 19 20 21 19 18 17 16 14 12 11 11 11 11 11 10 10 9 8 7 7 7 7 7 7 7 8 8 8 8 8 10 12 13 14 15 15
14 16 18 21 20 19 20 21 21 19 17 16 15 13 12 12 12 12 12 11 11 10 9 7 7 7 7 7 6 6 7 8 7 7 8 9 11 13 13 14 15 15
13 16 20 21 21 21 22 22 20 18 16 15 15 13 13 13 13 13 12 12 11 9 8 7 7 7 7 7 6 7 7 7 7 7 9 11 12 13 13 13 14 14
13 18 22 21 22 22 22 21 18 17 16 15 15 14 13 14 13 13 12 12 10 8 7 7 8 8 7 7 6 6 6 6 6 8 10 11 12 12 12 12 13 13
14 20 23 22 22 22 21 19 17 16 16 15 15 14 14 14 13 13 12 11 9 8 8 8 8 8 7 6 6 6 5 5 7 9 11 11 11 11 11 12 12 13
17 22 23 21 22 20 19 18 17 16 16 15 15 14 13 13 12 12 11 10 9 8 8 8 8 8 7 6 6 5 5 6 8 9 10 10 10 10 11 11 13 14
19 22 21 20 20 18 17 17 17 16 15 14 14 13 13 12 11 10 10 9 9 9 9 9 9 7 7 6 5 5 5 7 8 9 9 9 9 10 11 12 13 14
20 21 21 20 19 18 18 18 17 16 15 14 14 13 12 11 10 9 9 9 10 10 10 9 9 8 7 6 5 5 6 7 9 9 8 8 9 10 11 12 13 14
20 21 21 20 19 18 18 18 17 16 15 15 14 13 12 10 9 9 10 10 10 10 10 10 9 8 7 6 5 6 7 8 8 8 8 9 9 10 11 12 13 14
20 20 20 20 19 19 18 17 17 17 16 16 14 13 11 10 10 10 10 11 11 11 11 10 9 8 7 6 6 6 7 7 7 7 8 9 9 10 11 12 12 13
20 20 19 20 19 19 18 18 18 18 17 16 14 13 12 11 11 12 12 12 11 11 11 10 10 9 8 7 6 6 7 7 7 8 9 9 9 10 10 11 12 12
21 20 20 20 20 20 20 19 19 18 17 16 15 14 14 13 13 13 13 13 13 12 12 11 10 9 9 7 7 6 7 7 7 8 9 9 9 9 9 10 11 12
22 21 20 21 21 21 21 20 20 19 18 17 16 16 16 16 15 15 15 14 14 13 13 12 11 10 9 8 7 7 7 6 7 8 9 9 8 8 9 10 10 11
23 22 21 21 22 22 21 21 21 20 20 19 18 18 18 17 17 17 16 16 15 14 13 12 11 10 9 8 7 7 7 7 8 9 9 8 7 7 8 9 10 10
24 23 22 22 23 23 23 23 22 22 21 21 20 20 19 19 19 19 18 17 16 15 13 12 12 11 10 9 8 7 7 7 8 9 9 7 7 7 8 9 10 10
24 24 23 23 24 24 24 24 24 23 22 22 22 21 21 20 19 19 18 18 17 15 14 13 12 11 10 10 9 8 8 8 9 10 8 7 7 7 8 9 9 10
25 25 25 25 25 25 25 25 24 23 23 23 23 22 22 21 19 18 18 19 18 16 14 13 12 11 11 11 10 9 8 9 10 9 8 7 7 7 8 8 9 9
26 26 26 26 26 26 26 25 24 24 23 23 23 23 23 22 20 19 19 21 21 18 15 13 13 13 13 12 11 9 9 10 10 9 7 7 7 7 7 7 7 8
27 27 27 27 26 26 26 25 24 23 23 24 24 24 24 25 24 23 22 22 23 22 18 15 15 16 15 13 12 10 10 10 10 8 7 7 7 7 6 6 6 7
27 28 27 27 27 26 26 25 23 23 23 24 24 25 26 27 27 26 25 23 24 24 21 18 17 17 15 14 12 11 11 11 10 9 7 7 7 6 6 6 6 6
27 28 27 27 26 25 25 24 23 23 23 24 25 26 27 27 26 25 24 22 22 24 22 19 18 17 15 14 13 12 12 11 10 9 8 8 7 6 5 5 5 5
27 27 27 26 25 24 23 23 23 22 22 24 26 26 26 25 24 23 22 21 22 22 21 19 18 17 16 15 14 13 12 12 10 9 8 8 8 6 5 6 5 5
27 27 26 25 24 23 22 22 22 21 21 23 23 23 23 23 22 22 21 21 21 20 19 19 18 17 16 16 15 14 13 12 11 9 9 9 8 7 6 6 5 5
27 27 26 25 24 23 22 22 21 20 21 21 21 20 20 20 20 20 20 20 19 19 19 19 18 17 17 17 16 15 14 12 11 10 9 9 9 8 7 7 6 6